[[{"header":{"parameterUnit":"m.s-1","parameterCategory":1,"la1":31.0,"la2":29.5877,"lo1":-88.7671,"lo2":-86.6584,"dy":0.0162,"dx":0.0185,"nx":115,"ny":88,"refTime":"2024-04-19T06:00:00:Z","depth":0,"parameterNumber":2,"parameterNumberName":"U-component_of_WINDS"},"data":[0.0,0.0,0.0,0.0,0.0,0.0,0.0,0.0,0.0,0.0,0.0,0.0,0.0,0.0,0.0,0.0,0.0,0.0,0.0,0.0,0.0,0.0,0.0,0.0,0.0,0.0,0.0,0.0,0.0,0.0,0.0,0.0,0.0,0.0,0.0,0.0,0.0,0.0,0.0,0.0,0.0,0.0,0.0,0.0,0.0,0.0,0.0,0.0,0.0,0.0,0.0,0.0,0.0,0.0,0.0,0.0,0.0,0.0,0.0,0.0,0.0,0.0,0.0,0.0,0.0,0.0,0.0,0.0,0.0,0.0,0.0,0.0,0.0,0.0,0.0,0.0,0.0,0.0,0.0,0.0,0.0,0.0,0.0,0.0,0.0,0.0,0.0,0.0,0.0,0.0,0.0,0.0,0.0,0.0,0.0,0.0,0.0,0.0,0.0,0.0,0.0,0.0,0.0,0.0,0.0,0.0,0.0,0.0,0.0,0.0,0.0,0.0,0.0,0.0,0.0,0.0,0.0,0.0,0.0,0.0,0.0,0.0,0.0,0.0,0.0,0.0,0.0,0.0,0.0,0.0,0.0,0.0,0.0,0.0,0.0,0.0,0.0,0.0,0.0,0.0,0.0,0.0,0.0,0.0,0.0,0.0,0.0,0.0,0.0,0.0,0.0,0.0,0.0,0.0,0.0,0.0,0.0,0.0,0.0,0.0,0.0,0.0,0.0,0.0,0.0,0.0,0.0,0.0,0.0,0.0,0.0,0.0,0.0,0.0,0.0,0.0,0.0,0.0,0.0,0.0,0.0,0.0,0.0,0.0,0.0,0.0,0.0,0.0,0.0,0.0,0.0,0.0,0.0,0.0,0.0,0.0,0.0,0.0,0.0,0.0,0.0,0.0,0.0,0.0,0.0,0.0,0.0,0.0,0.0,0.0,0.0,0.0,0.0,0.0,0.0,0.0,0.0,0.0,0.0,0.0,0.0,0.0,0.0,0.0,0.0,0.0,0.0,0.0,0.0,0.0,0.0,0.0,0.0,0.0,0.0,0.0,0.0,0.0,0.0,0.0,0.0,0.0,0.0,0.0,0.0,0.0,0.0,0.0,0.0,0.0,0.0,0.0,0.0,0.0,0.0,0.0,0.0,0.0,0.0,0.0,0.0,0.0,0.0,0.0,0.0,0.0,0.0,0.0,0.0,0.0,0.0,0.0,0.0,0.0,0.0,0.0,0.0,0.0,0.0,0.0,0.0,0.0,0.0,0.0,0.0,0.0,0.0,0.0,0.0,0.0,0.0,0.0,0.0,0.0,0.0,0.0,0.0,0.0,0.0,0.0,0.0,0.0,0.0,0.0,0.0,0.0,0.0,0.0,0.0,0.0,0.0,0.0,0.0,0.0,0.0,0.0,0.0,0.0,0.0,0.0,0.0,0.0,0.0,0.0,0.0,0.0,0.0,0.0,0.0,0.0,0.0,0.0,0.0,0.0,0.0,0.0,0.0,0.0,0.0,0.0,0.0,0.0,0.0,0.0,0.0,0.0,0.0,0.0,0.0,0.0,0.0,0.0,0.0,0.0,0.0,0.0,0.0,0.0,0.0,0.0,0.0,0.0,0.0,0.0,0.0,0.0,0.0,0.0,0.0,0.0,0.0,0.0,0.0,0.0,0.0,0.0,0.0,0.0,0.0,0.0,0.0,0.0,0.0,0.0,0.0,0.0,0.0,0.0,0.0,0.0,0.0,0.0,0.0,0.0,0.0,0.0,0.0,0.0,0.0,0.0,0.0,0.0,0.0,0.0,0.0,0.0,0.0,0.0,0.0,0.0,0.0,0.0,0.0,0.0,0.0,0.0,0.0,0.0,0.0,0.0,0.0,0.0,0.0,0.0,0.0,0.0,0.0,0.0,0.0,0.0,0.0,0.0,0.0,0.0,0.0,0.0,0.0,0.0,0.0,0.0,0.0,0.0,0.0,0.0,0.0,0.0,0.0,0.0,0.0,0.0,0.0,0.0,0.0,0.0,0.0,0.0,0.0,0.0,0.0,0.0,0.0,0.0,0.0,0.0,0.0,0.0,0.0,0.0,0.0,0.0,0.0,0.0,0.0,0.0,0.0,0.0,0.0,0.0,0.0,0.0,0.0,0.0,0.0,0.0,0.0,0.0,0.0,0.0,0.0,0.0,0.0,0.0,0.0,0.0,0.0,0.0,0.0,0.0,0.0,0.0,0.0,0.0,0.0,0.0,0.0,0.0,0.0,0.0,0.0,0.0,0.0,0.0,0.0,0.0,0.0,0.0,0.0,0.0,0.0,0.0,0.0,0.0,0.0,0.0,0.0,0.0,0.0,0.0,0.0,0.0,0.0,0.0,0.0,0.0,0.0,0.0,0.0,0.0,0.0,0.0,0.0,0.0,0.0,0.0,0.0,0.0,0.0,0.0,0.0,0.0,0.0,0.0,0.0,0.0,0.0,0.0,0.0,0.0,0.0,0.0,0.0,0.0,0.0,0.0,0.0,0.0,0.0,0.0,0.0,0.0,0.0,0.0,0.0,0.0,0.0,0.0,0.0,0.0,0.0,0.0,0.0,0.0,0.0,0.0,0.0,0.0,0.0,0.0,0.0,0.0,0.0,0.0,0.0,0.0,0.0,0.0,0.0,0.0,0.0,0.0,0.0,0.0,0.0,0.0,0.0,0.0,0.0,0.0,0.0,0.0,0.0,0.0,0.0,0.0,0.0,0.0,0.0,0.0,0.0,0.0,0.0,0.0,0.0,0.0,0.0,0.0,0.0,0.0,0.0,0.0,0.0,0.0,0.0,0.0,0.0,0.0,0.0,0.0,0.0,0.0,0.0,0.0,0.0,0.0,0.0,0.0,0.0,0.0,0.0,0.0,0.0,0.0,0.0,0.0,0.0,0.0,0.0,0.0,0.0,0.0,0.0,0.0,0.0,0.0,0.0,0.0,0.0,0.0,0.0,0.0,0.0,0.0,0.0,0.0,0.0,0.0,0.0,0.0,0.0,0.0,0.0,0.0,0.0,0.0,0.0,0.0,0.0,0.0,0.0,0.0,0.0,0.0,0.0,0.0,0.0,0.0,0.0,0.0,0.0,0.0,0.0,0.0,0.0,0.0,0.0,0.0,0.0,0.0,0.0,0.0,0.0,0.0,0.0,0.0,0.0,0.0,0.0,0.0,0.0,0.0,0.0,0.0,0.0,0.0,0.0,0.0,0.0,0.0,0.0,0.0,0.0,0.0,0.0,0.0,0.0,0.0,0.0,0.0,0.0,0.0,0.0,0.0,0.0,0.0,0.0,0.0,0.0,0.0,0.0,0.0,0.0,0.0,0.0,0.0,0.0,0.0,0.0,0.0,0.0,0.0,0.0,0.0,0.0,0.0,0.0,0.0,0.0,0.0,0.0,0.0,0.0,0.0,0.0,0.0,0.0,0.0,0.0,0.0,0.0,0.0,0.0,0.0,0.0,0.0,0.0,0.0,0.0,0.0,0.0,0.0,0.0,0.0,0.0,0.0,0.0,0.0,0.0,0.0,0.0,0.0,0.0,0.0,0.0,0.0,0.0,0.0,0.0,0.0,0.0,0.0,0.0,0.0,0.0,0.0,0.0,0.0,0.0,0.0,0.0,0.0,0.0,0.0,0.0,0.0,0.0,0.0,0.0,0.0,0.0,0.0,0.0,0.0,0.0,0.0,0.0,0.0,0.0,0.0,0.0,0.0,0.0,0.0,0.0,0.0,0.0,0.0,0.0,0.0,0.0,0.0,0.0,0.0,0.0,0.0,0.0,0.0,0.0,0.0,0.0,0.0,0.0,0.0,0.0,0.0,0.0,0.0,0.0,0.0,0.0,0.0,0.0,0.0,0.0,0.0,0.0,0.0,0.0,0.0,0.0,0.0,0.0,0.0,0.0,0.0,0.0,0.0,0.0,0.0,0.0,0.0,0.0,0.0,0.0,0.0,0.0,0.0,0.0,0.0,0.0,0.0,0.0,0.0,0.0,0.0,0.0,0.0,0.0,0.0,0.0,0.0,0.0,0.0,0.0,0.0,0.0,0.0,0.0,0.0,0.0,0.0,0.0,0.0,0.0,0.0,0.0,0.0,0.0,0.0,0.0,0.0,0.0,0.0,0.0,0.0,0.0,0.0,0.0,0.0,0.0,0.0,0.0,0.0,0.0,0.0,0.0,0.0,0.0,0.0,0.0,0.0,0.0,0.0,0.0,0.0,0.0,0.0,0.0,0.0,0.0,0.0,0.0,0.0,0.0,0.0,0.0,0.0,0.9912,0.0,0.0,0.0,0.0,0.0,0.0,0.0,0.0,0.0,0.0,0.0,0.0,0.0,0.0,0.0,0.0,0.0,0.0,0.0,0.0,0.0,0.0,0.0,0.0,0.0,0.0,0.0,0.0,0.0,0.0,0.0,0.0,0.0,0.0,0.0,0.0,0.0,0.0,0.0,0.0,0.0,0.0,0.0,0.0,0.0,0.0,0.0,0.0,0.0,0.0,0.0,0.0,0.0,0.0,0.0,0.0,0.0,0.0,0.0,0.0,0.0,0.0,0.0,0.0,0.0,0.0,0.0,0.0,0.0,0.0,0.0,0.0,0.0,0.0,0.0,0.0,0.0,0.0,0.0,0.0,0.0,0.0,0.0,0.0,0.0,0.0,0.0,0.0,0.0,0.0,0.0,0.0,0.0,0.0,0.0,0.0,0.0,0.0,0.0,0.0,0.0,0.0,0.0,0.0,0.0,0.0,0.0,0.0,0.0,0.0,1.093,1.0539,1.0625,1.0454,0.9925,0.0,0.0,0.0,0.0,0.0,0.0,0.0,0.0,0.0,0.0,0.0,0.0,0.0,0.0,0.0,0.0,0.0,0.0,0.0,0.0,0.0,0.0,0.0,0.0,0.0,0.0,0.0,0.0,0.0,0.0,0.0,0.0,0.0,0.0,0.0,0.0,0.0,0.0,0.0,0.0,0.0,0.0,0.0,0.0,0.0,0.0,0.0,0.0,0.0,0.0,0.0,0.0,0.0,0.0,0.0,0.0,0.0,0.0,0.0,0.0,0.0,0.0,0.0,0.0,0.0,0.0,0.0,0.0,0.0,0.0,0.0,0.0,0.0,0.0,0.0,0.0,0.0,0.0,0.0,0.0,0.0,0.0,0.0,0.0,0.0,0.0,0.0,0.0,0.0,0.0,0.0,0.0,0.0,0.0,0.0,0.0,0.0,0.0,0.0,0.0,0.0,0.0,0.0,0.0,0.0,0.0,0.0,0.0,0.0,0.0,0.0,0.0,1.0759,1.0558,1.008,0.0,0.0,0.0,0.0,0.0,0.0,0.0,0.0,0.0,0.0,0.0,0.0,0.0,0.0,0.0,0.0,0.0,0.0,0.0,0.0,0.0,0.0,0.0,0.0,0.0,0.0,0.0,0.0,0.0,0.0,0.0,0.0,0.0,0.0,0.0,0.0,0.0,0.0,0.0,0.0,0.0,0.0,0.0,0.0,0.0,0.0,0.0,0.0,0.0,0.0,0.0,0.0,0.0,0.0,0.0,0.0,0.0,0.0,0.0,0.0,0.0,0.0,0.0,0.0,0.0,0.0,0.0,0.0,0.0,0.0,0.0,0.0,0.0,0.0,0.0,0.0,0.0,0.0,0.0,0.0,0.0,0.0,0.0,0.0,0.0,0.0,0.0,0.0,0.0,0.0,0.0,0.0,0.0,0.0,0.0,0.0,0.0,0.0,0.0,0.0,0.0,0.0,0.0,0.0,0.0,0.0,0.0,0.0,0.0,0.0,1.0502,1.0703,1.0941,0.0,1.0522,0.0,0.0,0.0,0.0,0.0,0.0,0.0,0.0,0.0,0.0,0.0,0.0,0.0,0.0,0.0,0.0,0.0,0.0,0.0,0.0,0.0,0.0,0.0,0.0,0.0,0.0,0.0,0.0,0.0,0.0,0.0,0.0,0.0,0.0,0.0,0.0,0.0,0.0,0.0,0.0,0.0,0.0,0.0,0.0,0.0,0.0,0.0,0.0,0.0,0.0,0.0,0.0,0.0,0.0,0.0,0.0,0.0,0.0,0.0,0.0,0.0,0.0,0.0,0.0,0.0,0.0,0.0,0.0,0.0,0.0,0.0,0.0,0.0,0.0,0.0,0.0,0.0,0.0,0.0,0.0,0.0,0.0,0.0,0.0,0.0,0.0,0.0,0.0,0.0,0.0,0.0,0.0,0.0,0.0,0.0,0.0,0.0,0.0,0.0,0.0,0.0,0.0,0.0,0.0,0.0,0.0,0.0,0.0,0.0,0.0,1.122,1.1161,1.0977,1.0791,0.0,0.0,0.0,0.0,0.0,0.0,0.0,0.0,0.0,0.0,0.0,0.0,0.0,0.0,0.0,0.0,0.0,0.0,0.0,0.0,0.0,0.0,0.0,0.0,0.0,0.0,0.0,0.0,0.0,0.0,0.0,0.0,0.0,0.0,0.0,0.0,0.0,0.0,0.0,0.0,0.0,0.0,0.0,0.0,0.0,0.0,0.0,0.0,0.0,0.0,0.0,0.0,0.0,0.0,0.0,0.0,0.0,0.0,0.0,0.0,0.0,0.0,0.0,0.0,0.0,0.0,0.0,0.0,0.0,0.0,0.0,0.0,0.0,0.0,0.0,0.0,0.0,0.0,0.0,0.0,0.0,0.0,0.0,0.0,0.0,0.0,0.0,0.0,0.0,0.0,0.0,0.0,0.0,0.0,0.0,0.0,0.0,0.0,0.0,0.0,0.0,0.0,0.0,0.0,0.0,0.0,0.0,0.0,0.0,0.0,1.1457,1.1556,1.1519,1.1144,1.0869,1.0685,0.0,0.0,0.0,0.0,0.0,0.0,0.0,0.0,0.0,0.0,0.0,0.0,0.0,0.0,0.0,0.0,0.0,0.0,0.0,0.0,0.0,0.0,0.0,0.0,0.0,0.0,0.0,0.0,0.0,0.0,0.0,0.0,0.0,0.0,0.0,0.0,0.0,0.0,0.0,0.0,0.0,0.0,0.0,0.0,0.0,0.0,0.0,0.0,0.0,0.0,0.0,0.0,0.0,0.0,0.0,0.0,0.0,0.0,0.0,0.0,0.0,0.0,0.0,0.0,0.0,0.0,0.0,0.0,0.0,0.0,0.0,0.0,0.0,0.0,0.0,0.0,0.0,0.0,0.0,0.0,0.0,0.0,0.0,0.0,0.0,0.0,0.0,0.0,0.0,0.0,0.0,0.0,0.0,0.0,0.0,0.0,0.0,0.0,0.0,0.0,0.0,0.0,0.0,0.0,0.0,0.0,0.0,0.0,1.1508,1.1055,1.1041,1.161,1.1573,1.1262,0.0,0.0,0.0,0.0,0.0,0.0,0.0,0.0,0.0,0.0,0.0,0.0,0.0,0.0,0.0,0.0,0.0,0.0,0.0,0.0,0.0,0.0,0.0,0.0,0.0,0.0,0.0,0.0,0.0,0.0,0.0,0.0,0.0,0.0,0.0,0.0,0.0,0.0,0.0,0.0,0.0,0.0,0.0,0.0,0.0,0.0,0.0,0.0,0.0,0.0,0.0,0.0,0.0,0.0,0.0,0.0,0.0,0.0,0.0,0.0,0.0,0.0,0.0,0.0,0.0,0.0,0.0,0.0,0.0,0.0,0.0,0.0,0.0,0.0,0.0,0.0,0.0,0.0,0.0,0.0,0.0,0.0,0.0,0.0,0.0,0.0,0.0,0.0,0.0,0.0,0.0,0.0,0.0,0.0,0.0,0.0,0.0,0.0,0.0,0.0,0.0,0.0,0.0,0.0,0.0,0.0,0.0,0.0,0.0,1.126,1.1772,1.2236,1.2596,1.2295,1.2011,0.0,0.0,0.0,0.0,0.0,0.0,0.0,0.0,0.0,0.0,0.0,0.0,0.0,0.0,0.0,0.0,0.0,0.0,0.0,0.0,0.0,0.0,0.0,0.0,0.0,0.0,0.0,0.0,0.0,0.0,0.0,0.0,0.0,0.0,0.0,0.0,0.0,0.0,0.0,0.0,0.0,0.0,0.0,0.0,0.0,0.0,0.0,0.0,0.0,0.0,0.0,0.0,0.0,0.0,0.0,0.0,0.0,0.0,0.0,0.0,0.0,0.0,0.0,0.0,0.0,0.0,0.0,0.0,0.0,0.0,0.0,0.0,0.0,0.0,0.0,0.0,0.0,0.0,0.0,0.0,0.0,0.0,0.0,0.0,0.0,0.0,0.0,0.0,0.0,0.0,0.0,0.0,0.0,0.0,0.0,0.0,0.0,0.0,0.0,0.0,0.0,0.0,0.0,0.0,0.0,0.0,0.0,0.0,0.0,1.1475,0.0,1.2694,1.2881,1.2547,1.2272,0.0,0.0,0.0,0.0,0.0,0.0,0.0,0.0,0.0,0.0,0.0,0.0,0.0,0.0,0.0,0.0,0.0,0.0,0.0,0.0,0.0,0.0,0.0,0.0,0.0,0.0,0.0,0.0,0.0,0.0,0.0,0.0,0.0,0.0,0.0,0.0,0.0,0.0,0.0,0.0,0.0,0.0,0.0,0.0,0.0,0.0,0.0,0.0,0.0,0.0,0.0,0.0,0.0,0.0,0.0,0.0,0.0,0.0,0.0,0.0,0.0,0.0,0.0,0.0,0.0,0.0,0.0,0.0,0.0,0.0,0.0,0.0,0.0,0.0,0.0,0.0,0.0,0.0,0.0,0.0,0.0,0.0,0.0,0.0,0.0,0.0,0.0,0.0,0.0,0.0,0.0,0.0,0.0,0.0,0.0,0.0,0.0,0.0,0.0,0.0,0.0,0.0,0.0,0.0,0.0,0.0,0.0,0.0,1.126,1.2228,1.2205,1.2279,1.2324,1.2357,1.2043,0.0,0.0,0.0,0.0,0.0,0.0,0.0,0.0,0.0,0.0,0.0,0.0,0.0,0.0,0.0,0.0,0.0,0.0,0.0,0.0,0.0,0.0,0.0,0.0,0.0,0.0,0.0,0.0,0.0,0.0,0.0,0.0,0.0,0.0,0.0,0.0,0.0,0.0,0.0,0.0,0.0,0.0,0.0,0.0,0.0,0.0,0.0,0.0,0.0,0.0,0.0,0.0,0.0,0.0,0.0,0.0,0.0,0.0,0.0,0.0,0.0,0.0,0.0,0.0,0.0,0.0,0.0,0.0,0.0,0.0,0.0,0.0,0.0,0.0,0.0,0.0,0.0,0.0,0.0,0.0,0.0,0.0,0.0,0.0,0.0,0.0,0.0,0.0,0.0,0.0,0.0,0.0,0.0,0.0,0.0,0.0,0.0,0.0,0.0,0.0,0.0,0.0,0.0,0.0,0.0,0.0,0.0,0.0,0.0,1.2385,1.2921,1.3259,1.3375,1.2954,1.2804,0.0,0.0,0.0,0.0,0.0,0.0,0.0,0.0,0.0,0.0,0.0,0.0,0.0,0.0,0.0,0.0,0.0,0.0,0.0,0.0,0.0,0.0,0.0,0.0,0.0,0.0,0.0,0.0,0.0,0.0,0.0,0.0,0.0,0.0,0.0,0.0,0.0,0.0,0.0,0.0,0.0,0.0,0.0,0.0,0.0,0.0,0.0,0.0,0.0,0.0,0.0,0.0,0.0,0.0,0.0,0.0,0.0,0.0,0.0,0.0,0.0,0.0,0.0,0.0,0.0,0.0,0.0,0.0,0.0,0.0,0.0,0.0,0.0,0.0,0.0,0.0,0.0,0.0,0.0,0.0,0.0,0.0,0.0,0.0,0.0,0.0,0.0,0.0,0.0,0.0,0.0,0.0,0.0,0.0,0.0,0.0,0.0,0.0,0.0,0.0,0.0,0.0,0.0,0.0,0.0,0.0,0.0,0.0,0.0,1.3238,1.3836,1.4162,1.4093,1.3692,1.3426,1.3353,0.0,0.0,0.0,0.0,0.0,0.0,0.0,0.0,0.0,0.0,0.0,0.0,0.0,0.0,0.0,0.0,0.0,0.0,0.0,0.0,0.0,0.0,0.0,0.0,0.0,0.0,0.0,0.0,0.0,0.0,0.0,0.0,0.0,0.0,0.0,0.0,0.0,0.0,0.0,0.0,0.0,0.0,0.0,0.0,0.0,0.0,0.0,0.0,0.0,0.0,0.0,0.0,0.0,0.0,0.0,0.0,0.0,0.0,0.0,0.0,0.0,0.0,0.0,0.0,0.0,0.0,0.0,0.0,0.0,0.0,0.0,0.0,0.0,0.0,0.0,0.0,0.0,0.0,0.0,0.0,0.0,0.0,0.0,0.0,0.0,0.0,0.0,0.0,0.0,0.0,0.0,0.0,0.0,0.0,0.0,0.0,0.0,0.0,0.0,0.0,0.0,0.0,0.0,0.0,0.0,0.0,0.0,0.0,1.4582,1.4973,1.4979,1.4566,1.4434,1.3934,0.0,0.0,0.0,0.0,0.0,0.0,0.0,0.0,0.0,0.0,0.0,0.0,0.0,0.0,0.0,0.0,0.0,0.0,0.0,0.0,0.0,0.0,0.0,0.0,0.0,0.0,0.0,0.0,0.0,0.0,0.0,0.0,0.0,0.0,0.0,0.0,0.0,0.0,0.0,0.0,0.0,0.0,0.0,0.0,0.0,0.0,0.0,0.0,0.0,0.0,0.0,0.0,0.0,0.0,0.0,0.0,0.0,0.0,0.0,0.0,0.0,0.0,0.0,0.0,0.0,0.0,0.0,0.0,0.0,0.0,0.0,0.0,0.0,0.0,0.0,0.0,0.0,0.0,0.0,0.0,0.0,0.0,0.0,0.0,0.0,0.0,0.0,0.0,0.0,0.0,0.0,0.0,0.0,0.0,0.0,0.0,0.0,0.0,0.0,0.0,0.0,0.0,0.0,0.0,0.0,0.0,0.0,0.0,0.0,1.5637,1.6749,1.699,1.6186,1.4988,1.4359,0.0,0.0,0.0,0.0,0.0,0.0,0.0,0.0,0.0,0.0,0.0,0.0,0.0,0.0,0.0,0.0,0.0,0.0,0.0,0.0,0.0,0.0,0.0,0.0,0.0,0.0,0.0,0.0,0.0,0.0,0.0,0.0,0.0,0.0,0.0,0.0,0.0,0.0,0.0,0.0,0.0,0.0,0.0,0.0,0.0,0.0,0.0,0.0,0.0,0.0,0.0,0.0,0.0,0.0,0.0,0.0,0.0,0.0,0.0,0.0,0.0,0.0,0.0,0.0,0.0,0.0,0.0,0.0,0.0,0.0,0.0,0.0,0.0,0.0,0.0,0.0,0.0,0.0,0.0,0.0,0.0,0.0,0.0,0.0,0.0,0.0,0.0,0.0,0.0,0.0,0.0,0.0,0.0,0.0,0.0,0.0,0.0,0.0,0.0,0.0,0.0,0.0,0.0,0.0,0.0,0.0,0.0,0.0,1.57,1.6253,1.7737,1.8292,1.7738,1.6123,1.5067,0.0,0.0,0.0,0.0,0.0,0.0,0.0,0.0,0.0,0.0,0.0,0.0,0.0,0.0,0.0,0.0,0.0,0.0,0.0,0.0,0.0,0.0,0.0,0.0,0.0,0.0,0.0,0.0,0.0,0.0,0.0,0.0,0.0,0.0,0.0,0.0,0.0,0.0,0.0,0.0,0.0,0.0,0.0,0.0,0.0,0.0,0.0,0.0,0.0,0.0,0.0,0.0,0.0,0.0,0.0,0.0,0.0,0.0,0.0,0.0,0.0,0.0,0.0,0.0,0.0,0.0,0.0,0.0,0.0,0.0,0.0,0.0,0.0,0.0,0.0,0.0,0.0,0.0,0.0,0.0,0.0,0.0,0.0,0.0,0.0,0.0,0.0,0.0,0.0,0.0,0.0,0.0,0.0,0.0,0.0,0.0,0.0,0.0,0.0,0.0,0.0,0.0,0.0,0.0,0.0,0.0,0.0,0.0,1.6253,1.6691,1.8193,1.9,1.8964,1.7436,1.5969,0.0,0.0,0.0,0.0,0.0,0.0,0.0,0.0,0.0,0.0,0.0,0.0,0.0,0.0,0.0,0.0,0.0,0.0,0.0,0.0,0.0,0.0,0.0,0.0,0.0,0.0,0.0,0.0,0.0,0.0,0.0,0.0,0.0,0.0,0.0,0.0,0.0,0.0,0.0,0.0,0.0,0.0,0.0,0.0,0.0,0.0,0.0,0.0,0.0,0.0,0.0,0.0,0.0,0.0,0.0,0.0,0.0,0.0,0.0,0.0,0.0,0.0,0.0,0.0,0.0,0.0,0.0,0.0,0.0,0.0,0.0,0.0,0.0,0.0,0.0,0.0,0.0,0.0,0.0,0.0,0.0,0.0,0.0,0.0,0.0,0.0,0.0,0.0,0.0,0.0,0.0,0.0,0.0,0.0,0.0,0.0,0.0,0.0,0.0,0.0,0.0,0.0,0.0,0.0,0.0,0.0,0.0,0.0,1.6726,1.7219,1.8385,1.9013,1.9,1.7436,1.6451,0.0,0.0,0.0,0.0,0.0,0.0,0.0,0.0,0.0,0.0,0.0,0.0,0.0,0.0,0.0,0.0,0.0,0.0,0.0,0.0,0.0,0.0,0.0,0.0,0.0,0.0,0.0,0.0,0.0,0.0,0.0,0.0,0.0,0.0,0.0,0.0,0.0,0.0,0.0,0.0,0.0,0.0,0.0,0.0,0.0,0.0,0.0,0.0,1.643,0.0,0.0,0.0,0.0,0.0,0.0,0.0,0.0,0.0,0.0,0.0,0.0,0.0,0.0,0.0,0.0,0.0,0.0,0.0,0.0,0.0,0.0,0.0,0.0,0.0,0.0,0.0,0.0,0.0,0.0,0.0,0.0,0.0,0.0,0.0,0.0,0.0,0.0,0.0,0.0,0.0,0.0,0.0,0.0,0.0,0.0,0.0,0.0,0.0,0.0,0.0,0.0,0.0,0.0,0.0,0.0,0.0,0.0,0.0,1.705,1.776,1.8578,1.9013,1.8964,1.7929,1.7111,0.0,0.0,0.0,0.0,0.0,0.0,0.0,0.0,0.0,0.0,0.0,0.0,0.0,0.0,0.0,0.0,0.0,0.0,0.0,0.0,0.0,0.0,0.0,0.0,0.0,0.0,0.0,0.0,0.0,0.0,0.0,0.0,0.0,0.0,0.0,0.0,0.0,0.0,0.0,0.0,0.0,0.0,0.0,0.0,0.0,0.0,0.0,0.0,0.0,0.0,0.0,0.0,0.0,0.0,0.0,0.0,0.0,0.0,0.0,0.0,0.0,0.0,0.0,0.0,0.0,0.0,0.0,0.0,0.0,0.0,0.0,0.0,0.0,0.0,0.0,0.0,0.0,0.0,0.0,0.0,0.0,0.0,0.0,0.0,0.0,0.0,0.0,0.0,0.0,0.0,0.0,0.0,0.0,0.0,0.0,0.0,0.0,0.0,0.0,0.0,0.0,0.0,0.0,0.0,0.0,0.0,0.0,1.6458,1.7485,1.8423,1.8963,1.9239,1.9241,1.8735,1.794,1.6883,0.0,0.0,0.0,0.0,0.0,0.0,0.0,0.0,0.0,0.0,0.0,0.0,0.0,0.0,0.0,0.0,0.0,0.0,0.0,0.0,0.0,0.0,0.0,0.0,0.0,0.0,0.0,0.0,0.0,0.0,0.0,0.0,0.0,0.0,0.0,0.0,0.0,0.0,1.5772,1.6084,0.0,0.0,0.0,0.0,0.0,0.0,0.0,0.0,1.8446,0.0,0.0,0.0,0.0,0.0,0.0,0.0,0.0,0.0,0.0,0.0,0.0,0.0,0.0,0.0,0.0,0.0,0.0,0.0,0.0,0.0,0.0,0.0,0.0,0.0,0.0,0.0,0.0,0.0,0.0,0.0,0.0,0.0,0.0,0.0,0.0,0.0,0.0,0.0,0.0,0.0,0.0,0.0,0.0,0.0,0.0,0.0,0.0,0.0,0.0,0.0,0.0,0.0,0.0,0.0,0.0,1.6979,1.7652,1.8484,1.9505,2.0069,2.0358,2.0319,1.9805,1.9023,1.7928,0.0,0.0,0.0,0.0,0.0,0.0,0.0,0.0,0.0,0.0,0.0,0.0,0.0,0.0,0.0,0.0,0.0,0.0,0.0,0.0,0.0,0.0,0.0,0.0,0.0,0.0,0.0,0.0,0.0,0.0,0.0,0.0,0.0,0.0,0.0,0.0,0.0,0.0,0.0,1.8054,1.85,0.0,0.0,0.0,0.0,0.0,0.0,0.0,0.0,1.9385,0.0,0.0,0.0,0.0,0.0,0.0,0.0,0.0,0.0,0.0,0.0,0.0,0.0,0.0,0.0,0.0,0.0,0.0,0.0,0.0,0.0,0.0,0.0,0.0,0.0,0.0,0.0,0.0,0.0,0.0,0.0,0.0,0.0,0.0,0.0,0.0,0.0,0.0,0.0,0.0,0.0,0.0,0.0,0.0,0.0,0.0,0.0,0.0,0.0,0.0,0.0,0.0,0.0,0.0,0.0,1.7351,1.8482,1.9421,2.0189,2.0464,2.0596,2.0574,1.9818,1.9012,0.0,0.0,0.0,0.0,0.0,0.0,0.0,0.0,0.0,0.0,0.0,0.0,0.0,0.0,0.0,0.0,0.0,0.0,0.0,0.0,0.0,0.0,0.0,0.0,0.0,0.0,0.0,0.0,0.0,0.0,0.0,0.0,0.0,0.0,0.0,0.0,0.0,0.0,0.0,0.0,1.8923,1.9432,2.1002,0.0,0.0,0.0,0.0,0.0,0.0,2.0939,2.066,0.0,0.0,0.0,0.0,0.0,0.0,0.0,0.0,0.0,0.0,0.0,0.0,0.0,0.0,0.0,0.0,0.0,0.0,0.0,0.0,0.0,0.0,0.0,0.0,0.0,0.0,0.0,0.0,0.0,0.0,0.0,0.0,0.0,0.0,0.0,0.0,0.0,0.0,0.0,0.0,0.0,0.0,0.0,0.0,0.0,0.0,0.0,0.0,0.0,0.0,0.0,0.0,0.0,0.0,0.0,1.7555,1.9253,2.0396,2.0896,2.1125,2.1247,2.1217,2.0095,1.9166,0.0,0.0,0.0,0.0,0.0,0.0,0.0,0.0,0.0,0.0,0.0,0.0,0.0,0.0,0.0,0.0,0.0,0.0,0.0,0.0,0.0,0.0,0.0,0.0,0.0,0.0,0.0,0.0,0.0,0.0,0.0,0.0,0.0,0.0,0.0,0.0,0.0,0.0,0.0,0.0,0.0,2.0411,2.1993,2.1342,0.0,0.0,0.0,0.0,2.2366,2.2157,0.0,0.0,0.0,0.0,0.0,0.0,0.0,0.0,0.0,0.0,0.0,0.0,0.0,0.0,0.0,0.0,0.0,0.0,0.0,0.0,0.0,0.0,0.0,0.0,0.0,0.0,0.0,0.0,0.0,0.0,0.0,0.0,0.0,0.0,0.0,0.0,0.0,0.0,0.0,0.0,0.0,0.0,0.0,0.0,0.0,0.0,0.0,0.0,0.0,0.0,0.0,0.0,0.0,0.0,0.0,0.0,1.8121,2.0151,2.1464,2.2017,2.2951,2.3433,2.3408,2.1921,2.0646,0.0,0.0,0.0,0.0,0.0,0.0,0.0,0.0,0.0,0.0,0.0,0.0,0.0,0.0,0.0,0.0,0.0,0.0,0.0,0.0,0.0,0.0,0.0,0.0,0.0,0.0,0.0,0.0,0.0,0.0,0.0,0.0,0.0,0.0,0.0,0.0,0.0,0.0,0.0,0.0,0.0,2.2055,2.3522,2.2676,2.1918,0.0,0.0,2.2698,2.2617,2.2955,0.0,0.0,0.0,0.0,0.0,0.0,0.0,0.0,0.0,0.0,0.0,0.0,0.0,0.0,0.0,0.0,0.0,0.0,0.0,0.0,0.0,0.0,0.0,0.0,0.0,0.0,0.0,0.0,0.0,0.0,0.0,0.0,0.0,0.0,0.0,0.0,0.0,0.0,0.0,0.0,0.0,0.0,0.0,0.0,0.0,0.0,0.0,0.0,0.0,0.0,0.0,0.0,0.0,0.0,0.0,1.7808,1.9132,2.1515,2.2891,2.3087,2.3013,2.2989,2.3119,2.116,1.9787,0.0,0.0,0.0,0.0,0.0,0.0,0.0,0.0,0.0,0.0,0.0,0.0,0.0,0.0,0.0,0.0,0.0,0.0,0.0,0.0,0.0,0.0,0.0,0.0,0.0,0.0,0.0,0.0,0.0,0.0,0.0,0.0,0.0,0.0,0.0,0.0,0.0,0.0,0.0,0.0,0.0,0.0,2.3622,2.2882,0.0,0.0,0.0,2.3579,2.3867,0.0,0.0,0.0,0.0,0.0,0.0,0.0,0.0,0.0,0.0,0.0,0.0,0.0,0.0,0.0,0.0,0.0,0.0,0.0,0.0,0.0,0.0,0.0,0.0,0.0,0.0,0.0,0.0,0.0,0.0,0.0,0.0,0.0,0.0,0.0,0.0,0.0,0.0,0.0,0.0,0.0,0.0,0.0,0.0,0.0,0.0,0.0,0.0,0.0,0.0,0.0,0.0,0.0,0.0,0.0,0.0,0.0,1.983,2.2376,2.3685,2.3685,2.288,2.2549,2.2654,2.0737,0.0,0.0,0.0,0.0,0.0,0.0,0.0,0.0,0.0,0.0,0.0,0.0,0.0,0.0,0.0,0.0,0.0,0.0,0.0,0.0,0.0,0.0,0.0,0.0,0.0,0.0,0.0,1.4209,0.0,0.0,0.0,0.0,0.0,0.0,0.0,0.0,0.0,0.0,0.0,0.0,0.0,0.0,2.3004,2.3732,2.3186,2.3203,0.0,0.0,2.4186,2.5023,2.5754,2.5586,0.0,0.0,0.0,0.0,0.0,0.0,0.0,0.0,0.0,0.0,0.0,0.0,0.0,0.0,0.0,0.0,0.0,0.0,0.0,0.0,0.0,0.0,0.0,0.0,0.0,0.0,0.0,0.0,0.0,0.0,0.0,0.0,0.0,0.0,0.0,0.0,0.0,0.0,0.0,0.0,0.0,0.0,0.0,0.0,0.0,0.0,0.0,0.0,0.0,0.0,0.0,0.0,0.0,0.0,0.0,1.9865,2.2183,2.3438,2.3432,2.3121,2.297,2.2948,2.1848,2.0616,0.0,0.0,0.0,0.0,0.0,0.0,0.0,0.0,0.0,0.0,0.0,0.0,0.0,0.0,0.0,0.0,0.0,0.0,0.0,0.0,0.0,0.0,0.0,0.0,0.0,0.0,0.0,0.0,0.0,0.0,0.0,0.0,0.0,0.0,0.0,0.0,0.0,0.0,0.0,0.0,0.0,2.4095,2.4392,2.4059,2.4275,0.0,0.0,2.4345,2.5641,2.5934,2.5643,2.4572,0.0,0.0,0.0,0.0,0.0,0.0,0.0,0.0,0.0,0.0,0.0,0.0,0.0,0.0,0.0,0.0,0.0,0.0,0.0,0.0,0.0,0.0,0.0,0.0,0.0,0.0,0.0,0.0,0.0,0.0,0.0,0.0,0.0,0.0,0.0,0.0,0.0,0.0,0.0,0.0,0.0,0.0,0.0,0.0,0.0,0.0,0.0,0.0,0.0,0.0,0.0,0.0,0.0,1.9549,2.0414,2.2703,2.3735,2.3333,2.26,2.2094,2.183,2.0663,1.9534,0.0,0.0,0.0,0.0,0.0,0.0,0.0,0.0,0.0,0.0,0.0,0.0,0.0,0.0,0.0,0.0,0.0,0.0,0.0,0.0,0.0,0.0,0.0,0.0,0.0,0.0,0.0,0.0,1.9711,1.9783,1.886,0.0,0.0,0.0,0.0,0.0,0.0,0.0,0.0,0.0,0.0,2.3433,2.447,2.4216,0.0,0.0,2.5376,2.5192,2.5903,2.6333,2.5937,2.4102,2.4069,0.0,0.0,0.0,0.0,0.0,0.0,0.0,0.0,0.0,0.0,0.0,0.0,0.0,0.0,0.0,0.0,0.0,0.0,0.0,0.0,0.0,0.0,0.0,0.0,0.0,0.0,0.0,0.0,0.0,0.0,0.0,0.0,0.0,0.0,0.0,0.0,0.0,0.0,0.0,0.0,0.0,0.0,0.0,0.0,0.0,0.0,0.0,0.0,0.0,0.0,0.0,0.0,1.9616,2.0515,2.2333,2.308,2.263,2.1669,2.1019,2.075,1.9875,1.8996,0.0,0.0,0.0,0.0,0.0,0.0,0.0,0.0,0.0,0.0,0.0,0.0,0.0,0.0,0.0,0.0,0.0,0.0,0.0,0.0,0.0,0.0,0.0,0.0,0.0,0.0,0.0,0.0,2.1075,2.0973,1.9808,0.0,0.0,0.0,0.0,0.0,0.0,0.0,0.0,0.0,0.0,2.3502,2.4682,2.4554,2.487,2.6308,2.612,2.6032,2.6749,2.6906,2.6342,2.4707,0.0,0.0,0.0,0.0,0.0,0.0,0.0,0.0,0.0,0.0,0.0,0.0,0.0,0.0,0.0,0.0,0.0,0.0,0.0,0.0,0.0,0.0,0.0,0.0,0.0,0.0,0.0,0.0,0.0,0.0,1.2175,0.0,0.0,0.0,0.0,0.0,0.0,0.0,0.0,0.0,0.0,0.0,0.0,0.0,0.0,0.0,0.0,0.0,0.0,0.0,0.0,0.0,0.0,1.9377,1.992,2.0812,2.1212,2.1165,2.0362,1.998,1.9951,1.9903,1.9544,1.8787,0.0,0.0,0.0,0.0,0.0,0.0,0.0,0.0,0.0,0.0,0.0,0.0,0.0,0.0,0.0,0.0,0.0,0.0,0.0,0.0,0.0,0.0,0.0,0.0,0.0,0.0,1.756,1.9043,2.0364,0.0,0.0,0.0,0.0,0.0,0.0,0.0,0.0,0.0,0.0,2.3202,2.4762,2.5106,2.5284,2.5879,2.7468,2.6833,2.6713,2.8206,2.7633,2.6939,0.0,0.0,0.0,0.0,0.0,0.0,0.0,0.0,0.0,0.0,0.0,0.0,0.0,0.0,0.0,0.0,0.0,0.0,0.0,0.0,0.0,0.0,0.0,0.0,0.0,0.0,0.0,1.3893,1.3861,0.0,0.0,0.0,0.0,0.0,0.0,0.0,0.0,0.0,0.0,0.0,1.6312,1.6272,0.0,0.0,0.0,0.0,0.0,0.0,0.0,0.0,0.0,0.0,0.0,0.0,1.9256,2.0386,2.1189,2.1501,2.1366,2.1101,2.0631,1.9914,1.9905,1.9474,1.8572,0.0,0.0,0.0,0.0,0.0,0.0,0.0,0.0,0.0,0.0,0.0,0.0,0.0,0.0,0.0,0.0,0.0,0.0,0.0,0.0,0.0,0.0,0.0,0.0,0.0,1.9199,0.0,0.0,0.0,0.0,0.0,0.0,0.0,0.0,0.0,0.0,0.0,2.2098,2.2897,2.3334,2.3863,2.4615,2.5088,2.577,0.0,0.0,0.0,0.0,0.0,0.0,0.0,0.0,0.0,0.0,0.0,0.0,0.0,0.0,2.623,2.3721,2.3825,2.4326,2.4326,0.0,0.0,0.0,0.0,0.0,0.0,0.0,0.0,0.0,0.0,0.0,0.0,0.0,0.0,1.4542,0.0,1.4068,0.0,0.0,0.0,0.0,0.0,0.0,0.0,0.0,1.5693,1.6282,1.7157,1.7129,1.7271,0.0,1.7414,1.6739,0.0,0.0,0.0,0.0,0.0,0.0,0.0,0.0,1.8741,2.0142,2.0803,2.1121,2.1152,2.1159,2.0819,2.0145,1.9957,1.9535,1.8738,1.9026,1.8957,0.0,0.0,0.0,0.0,0.0,0.0,0.0,0.0,0.0,0.0,0.0,0.0,0.0,0.0,0.0,0.0,0.0,0.0,0.0,0.0,0.0,0.0,0.0,1.9987,0.0,0.0,0.0,0.0,0.0,0.0,0.0,0.0,0.0,2.2692,2.2619,2.2942,2.3981,2.409,2.4259,2.4705,0.0,0.0,0.0,0.0,0.0,0.0,0.0,2.6353,2.545,2.5979,2.6253,2.551,2.6345,2.7072,2.6957,0.0,0.0,2.5629,2.5743,2.6163,2.5936,2.5777,2.5672,2.5656,2.536,2.5207,0.0,0.0,0.0,0.0,0.0,0.0,0.0,0.0,1.4878,1.4679,0.0,1.4304,0.0,0.0,0.0,0.0,0.0,1.4816,0.0,0.0,1.698,1.7522,1.755,1.7586,1.7568,1.7559,1.7274,1.7153,1.7322,1.7559,0.0,0.0,0.0,0.0,0.0,0.0,1.7901,1.924,1.9753,2.0143,2.0558,2.0546,2.0537,2.0509,2.0152,1.9758,1.934,1.8982,1.9134,1.9957,1.8583,0.0,0.0,0.0,0.0,0.0,0.0,0.0,0.0,0.0,0.0,0.0,0.0,0.0,0.0,0.0,0.0,0.0,0.0,0.0,0.0,1.9555,0.0,0.0,0.0,0.0,0.0,0.0,0.0,0.0,0.0,0.0,2.3147,2.3999,2.4649,2.4553,0.0,0.0,0.0,0.0,2.7483,2.7006,2.778,2.842,2.8428,2.8023,2.7817,2.8293,0.0,0.0,2.7675,2.7724,2.7619,2.7105,2.8414,2.897,2.7442,2.7076,2.6831,2.6275,2.5858,2.5399,2.5385,2.5648,2.5581,1.6449,0.0,0.0,0.0,0.0,1.5345,1.5754,1.6635,1.6251,1.6009,1.591,1.5567,0.0,0.0,0.0,0.0,0.0,0.0,1.6841,1.7227,1.7418,1.7944,1.876,1.8779,1.9081,1.9611,1.954,1.95,1.9558,1.9633,1.8654,1.6623,0.0,0.0,0.0,0.0,1.8705,2.0003,2.0516,2.0949,2.1352,2.1361,2.1224,2.093,2.0833,2.0555,2.0191,2.1478,2.1849,2.1114,2.138,0.0,0.0,0.0,0.0,0.0,0.0,0.0,0.0,0.0,0.0,0.0,0.0,0.0,0.0,0.0,0.0,0.0,0.0,0.0,1.9607,2.0793,2.1206,0.0,0.0,0.0,0.0,0.0,0.0,0.0,0.0,0.0,2.4987,2.4759,2.471,0.0,0.0,2.564,2.5915,2.6608,2.7233,2.7451,2.7413,0.0,0.0,2.781,2.7613,2.7392,2.7541,2.8072,2.9243,2.9111,2.9184,3.0184,3.0491,3.0376,2.9965,2.9554,2.9237,2.9034,2.8586,2.8226,2.8182,2.7889,2.77,1.8359,1.7573,1.656,1.6393,1.6786,1.6482,1.6848,1.7665,1.7332,1.7106,1.6964,1.6823,1.6762,1.6703,1.6078,0.0,0.0,0.0,1.7945,1.8627,1.8508,1.8915,1.9751,1.9778,2.0014,2.0491,2.05,2.05,2.05,2.0335,1.935,1.7609,0.0,0.0,1.8057,1.8529,1.9317,2.0407,2.0873,2.1288,2.17,2.1687,2.1517,2.1104,2.1086,2.0924,2.0539,2.1757,2.235,2.2159,2.2547,2.2355,0.0,0.0,0.0,0.0,0.0,0.0,0.0,0.0,0.0,0.0,0.0,1.792,0.0,0.0,0.0,0.0,1.959,2.0112,2.1101,2.1416,0.0,0.0,0.0,0.0,0.0,0.0,0.0,2.3598,2.4549,2.5392,2.5918,2.5683,2.5659,2.6222,2.6275,2.6317,2.6454,0.0,2.789,2.7998,2.8106,2.8274,2.8607,2.8655,2.8546,2.8213,2.8438,2.8936,2.9907,2.984,3.0002,3.0836,3.0894,3.0646,3.0646,3.0419,3.0223,3.0223,2.9925,2.9697,2.9677,2.9367,2.9245,2.028,1.9815,1.8082,1.7483,1.7642,1.7651,1.7853,1.8192,1.8192,1.7972,1.7669,1.8027,1.7596,1.6598,1.6616,0.0,1.777,1.8118,1.8897,1.995,1.995,2.0149,2.0537,2.0537,2.0564,2.0601,2.0592,2.0592,2.0582,2.0223,1.9861,1.9448,1.9439,1.9435,1.9383,1.9389,1.9767,2.0527,2.0952,2.1346,2.17,2.1687,2.1535,2.115,2.1163,2.0967,2.0598,2.0664,2.1455,2.3022,2.2631,2.2821,2.3775,0.0,0.0,0.0,0.0,0.0,0.0,0.0,0.0,0.0,0.0,0.0,0.0,0.0,0.0,0.0,2.1308,0.0,2.3091,2.184,0.0,0.0,0.0,2.2129,2.3982,2.4372,2.4714,2.5211,0.0,0.0,2.6226,2.67,2.7241,2.7757,2.7794,2.7589,2.7165,2.8374,2.9184,2.8727,2.9448,3.005,2.9929,2.995,2.9935,2.9893,3.0086,3.0058,3.0185,3.02,3.0167,3.035,3.026,3.0284,3.0239,3.0314,3.0227,3.0302,3.0152,3.0083,3.0055,3.0022,3.001,2.0445,2.0317,1.9881,1.9376,1.888,1.8871,1.8926,1.8998,1.9026,1.8962,1.888,1.8952,1.9016,1.9071,1.9373,1.9602,1.9797,1.9907,2.0079,2.0353,2.0363,2.0564,2.094,2.094,2.1114,2.1407,2.1425,2.1425,2.1416,2.1312,2.1068,2.0674,2.0686,2.0235,1.9386,1.9931,2.0454,2.0961,2.1361,2.1608,2.1687,2.1687,2.1641,2.1572,2.1562,2.1517,2.1425,2.1973,2.2671,2.3585,2.4023,2.4209,2.4116,2.2428,0.0,0.0,0.0,0.0,0.0,0.0,0.0,0.0,0.0,1.9767,1.7748,0.0,2.037,0.0,2.3135,2.4482,2.4735,2.441,0.0,0.0,2.3913,2.4031,2.492,2.5749,2.6197,2.59,2.6726,2.7313,2.7344,2.7781,2.831,2.8835,2.857,2.8396,2.8702,2.9387,2.9857,2.9749,2.9941,3.0086,3.0122,3.0086,3.0122,3.0086,3.0098,3.0218,3.0648,3.0708,3.0829,3.1235,3.131,3.131,3.1332,3.131,3.131,3.125,3.0672,3.0086,3.0086,3.0098,3.0098,2.104,2.104,2.104,2.0775,2.0356,1.9978,1.9842,1.9842,1.9822,1.9822,1.9842,1.9831,1.995,2.0189,2.0399,2.0613,2.0756,2.0756,2.0879,2.1031,2.1031,2.1159,2.1361,2.1361,2.1467,2.1687,2.1687,2.1687,2.1687,2.1687,2.1599,2.137,2.1383,2.1031,2.0399,2.0454,2.0631,2.083,2.1224,2.1526,2.1709,2.1687,2.1513,2.1187,2.1169,2.1004,2.0647,2.1039,2.1691,2.2613,2.3206,2.3673,2.3917,2.2587,2.1275,0.0,0.0,0.0,0.0,0.0,0.0,0.0,0.0,0.0,0.0,0.0,2.1789,2.2101,2.4049,2.5198,2.4958,2.4963,2.5114,2.5534,2.5553,2.5871,2.6647,2.7241,2.7493,2.7212,2.789,2.8406,2.8418,2.8883,2.9316,2.9637,2.9605,2.9575,2.9671,3.0105,3.0468,3.0456,3.066,3.0817,3.0817,3.0817,3.0804,3.0817,3.0804,3.0985,3.1514,3.1601,3.1781,3.2285,3.2417,3.2405,3.2417,3.2417,3.2405,3.2333,3.1948,3.1406,3.0913,3.0817,3.0817,2.1687,2.1687,2.1687,2.1687,2.1641,2.0927,2.0647,2.0656,2.0656,2.0656,2.0647,2.0647,2.0647,2.0656,2.0656,2.0839,2.119,2.1181,2.137,2.1709,2.1687,2.1687,2.1687,2.1742,2.1769,2.1769,2.1824,2.1851,2.1851,2.1851,2.1815,2.1769,2.176,2.1742,2.1659,2.1004,2.0656,2.0656,2.094,2.126,2.1595,2.159,2.1196,2.0472,2.0418,2.0069,1.9338,1.9292,1.9874,2.1126,2.1538,2.2348,2.3683,2.2644,2.1861,0.0,2.003,0.0,0.0,0.0,0.0,0.0,0.0,0.0,0.0,2.3212,2.3304,2.3392,2.4687,2.5366,2.5042,2.5,2.5583,2.691,2.7102,2.7474,2.8358,2.857,2.8607,2.8599,2.9063,2.94,2.94,2.9878,3.0203,3.0218,3.0624,3.0744,3.0465,3.073,3.1009,3.0997,3.1442,3.1731,3.1767,3.1862,3.191,3.1887,3.1899,3.2056,3.2478,3.2575,3.2731,3.3128,3.3212,3.3236,3.3284,3.326,3.326,3.3212,3.314,3.2874,3.214,3.1899,3.1899,2.1687,2.1687,2.1687,2.1687,2.1678,2.1522,2.1467,2.1489,2.1489,2.1458,2.1489,2.1467,2.1458,2.1489,2.1458,2.1504,2.159,2.159,2.1636,2.1687,2.1687,2.1687,2.1714,2.2039,2.2195,2.2213,2.251,2.2675,2.2675,2.2675,2.251,2.2195,2.2195,2.203,2.1727,0.0,0.0,0.0,2.1214,2.1154,2.1187,2.0894,2.05,2.0021,2.0003,0.0,1.9329,1.9292,1.9903,2.1126,2.127,0.0,0.0,0.0,0.0,0.0,0.0,0.0,0.0,0.0,0.0,0.0,2.2771,2.2979,2.3603,2.4386,2.5047,2.548,2.6183,2.6916,2.7661,2.7733,2.7854,2.8142,2.8178,2.8286,2.851,2.8883,2.9148,2.916,2.9617,2.9941,2.9977,3.0407,3.0723,3.0783,3.1214,3.15,3.1406,3.1478,3.1526,3.1575,3.201,3.2334,3.2369,3.2683,3.2852,3.3007,3.3007,3.3008,3.3092,3.3163,3.314,3.3332,3.3284,3.332,3.332,3.3284,3.3286,3.3296,3.3285,3.3247,3.3043,3.2984,3.2856,2.1687,0.0,2.1687,2.1687,0.0,2.1687,2.1687,2.1687,2.1687,2.1687,2.1687,2.1687,2.1687,2.1687,2.1687,2.1687,2.1687,2.1687,2.1797,2.2002,2.198,2.2089,2.2291,2.2515,2.2593,2.2602,2.2789,2.2889,2.2889,2.2889,2.2803,2.2593,2.2593,2.2492,2.2309,2.2291,2.2089,2.1687,2.1297,2.1187,2.137,2.1196,2.079,2.0214,0.0,0.0,0.0,0.0,0.0,0.0,0.0,0.0,0.0,0.0,0.0,2.2708,2.2493,2.2555,2.3022,2.3067,2.3582,2.4743,2.5051,2.5126,2.5046,2.5973,2.6686,2.6985,2.7426,2.7836,2.8171,2.8383,2.851,2.8522,2.8739,2.8907,2.8943,2.9376,2.9677,2.9737,3.0167,3.0482,3.0482,3.0961,3.1273,3.1325,3.1756,3.2086,3.2086,3.2091,3.2176,3.2441,3.2671,3.2783,3.2565,3.2673,3.2923,3.2911,3.2911,3.3111,3.3562,3.3645,3.3729,3.3946,3.3827,3.366,3.3612,3.3444,3.3228,3.3252,3.3252,3.3252,3.3241,3.3066,3.2829,2.1687,2.1687,2.1687,2.1687,2.1687,2.1687,2.1687,2.1687,0.0,0.0,0.0,2.1687,2.1687,2.1687,2.1687,2.1733,2.1819,2.1819,2.2016,2.2405,2.2414,2.2598,2.2913,2.2953,2.299,2.3014,2.3087,2.3147,2.3114,2.3147,2.3138,2.3123,2.3138,2.3138,2.3114,2.305,2.2675,2.2025,2.1566,2.1471,2.181,2.1755,2.1339,2.0619,2.0537,2.0173,1.9439,1.9338,1.9548,2.0069,2.0673,2.1071,2.1202,2.237,2.2901,2.2582,2.3152,2.3875,2.4692,2.4738,2.5227,2.6318,2.6734,2.6841,2.6469,2.7276,2.778,2.778,2.8091,2.8119,2.782,2.8246,2.8522,2.8514,2.9083,2.9436,2.9472,2.9905,3.0251,3.0278,3.0718,3.1047,3.1061,3.1504,3.1835,3.1897,3.2302,3.2632,3.2629,3.2636,3.2709,3.2965,3.3075,3.3077,3.2641,3.2616,3.2628,3.2865,3.2841,3.309,3.3756,3.3995,3.4138,3.4267,3.4139,3.3882,3.3795,3.3476,3.3233,3.3208,3.3208,3.3208,3.3164,3.28,3.2508,2.1696,2.1687,2.1687,2.1687,2.1687,2.1687,2.1687,2.1687,2.1696,2.1696,2.1687,2.1687,2.1687,2.1687,2.1687,2.1901,2.219,2.2199,2.2419,2.2812,2.2821,2.2825,2.2922,2.3251,2.3407,2.3435,2.3813,2.4012,2.4012,2.4002,2.4012,2.4027,2.4027,2.4002,2.3984,2.3614,2.3361,2.3224,2.2492,2.2158,2.2213,2.1883,2.1489,2.1044,2.0692,2.0289,1.984,1.9502,1.9539,2.0059,2.0196,2.0839,2.213,2.2896,2.3673,2.4451,2.5108,2.5557,2.5688,2.5699,2.5774,2.5968,2.6042,2.6348,2.701,2.7195,2.7298,2.7319,2.7403,2.7368,2.7351,2.8073,2.8578,2.8633,2.9424,2.9965,2.9947,3.0428,3.0764,3.0754,3.126,3.1569,3.1592,3.1981,3.2311,3.2418,3.2664,3.3123,3.3078,3.316,3.3003,3.2782,3.296,3.2968,3.258,3.2827,3.3124,3.3719,3.366,3.3625,3.3877,3.3937,3.3837,3.3522,3.3396,3.331,3.3296,3.3247,3.3097,3.3072,3.3047,3.3108,3.3072,3.2717,3.239,2.2355,2.2355,2.2355,2.2346,2.2355,2.2346,2.2355,2.2355,2.2355,2.2099,2.1733,2.1938,2.2039,2.2057,2.2245,2.2446,2.262,2.262,2.284,2.3206,2.3224,2.3376,2.3602,2.3785,2.3868,2.3886,2.4085,2.4211,2.4211,2.4211,2.4211,2.4211,2.4211,2.4211,2.4192,2.3984,2.3877,2.3849,2.3056,2.262,2.262,2.2446,2.2263,2.2085,2.1911,2.1714,2.1531,2.1339,2.1268,2.1304,2.1679,2.1947,2.2038,2.3038,2.3673,2.379,2.4775,2.5359,2.5359,2.5696,2.5895,2.5906,2.6147,2.6437,2.6837,2.6851,2.695,2.7234,2.7432,2.7609,2.764,2.8218,2.8601,2.8601,2.9268,2.9701,2.9828,3.0427,3.0895,3.0965,3.1367,3.1692,3.1716,3.1913,3.2072,3.2111,3.2521,3.2883,3.3151,3.3208,3.3166,3.2959,3.3047,3.293,3.2508,3.2578,3.2862,3.3087,3.3124,3.3249,3.3471,3.357,3.3446,3.3247,3.2985,3.2784,3.2748,3.2496,3.2381,3.2331,3.2305,3.2331,3.2305,3.2102,3.199,2.2541,2.2532,2.2541,2.2541,2.2541,2.2541,2.2532,2.2541,2.2508,2.2198,2.1703,2.2066,2.2248,2.2284,2.2467,2.2633,2.2833,2.2851,2.3132,2.3633,2.366,2.3776,2.3976,2.3994,2.3945,2.382,2.382,2.382,2.382,2.3945,2.4069,2.4177,2.4211,2.4211,2.4211,2.4211,2.4211,2.4165,2.3514,2.3202,2.3202,2.3178,2.3202,2.3193,2.3068,2.3041,2.3032,2.2959,2.2757,2.2478,2.2993,2.2866,2.2124,2.3155,2.3607,2.325,2.4232,2.4992,2.5218,2.5819,2.6223,2.6223,2.654,2.6758,2.6747,2.6718,2.6852,2.7262,2.7575,2.7764,2.7841,2.8349,2.8656,2.8668,2.92,2.9688,2.9793,3.0457,3.0972,3.1087,3.1451,3.1711,3.1734,3.179,3.1957,3.2146,3.2272,3.2574,3.2935,3.2946,3.2835,3.2871,3.2946,3.275,3.2345,3.2218,3.2283,3.237,3.2446,3.2647,3.2935,3.301,3.291,3.2784,3.2482,3.2243,3.2193,3.1913,3.1706,3.1695,3.1721,3.1644,3.1695,3.1669,3.1593,2.1477,2.1444,2.1518,2.1468,2.1494,2.1518,2.1526,2.1494,2.1477,2.141,2.1445,2.1898,2.2129,2.2049,2.1683,2.1981,2.2691,2.2733,2.3206,2.4002,2.4146,2.3859,2.3413,2.3379,2.3129,2.2761,2.2703,2.2753,2.2787,2.3204,2.3687,2.4152,2.4211,2.4211,2.4211,2.4211,2.4211,2.4211,2.4137,2.4091,2.4091,2.4091,2.4058,2.4091,2.366,2.3444,2.3435,2.3096,2.2895,2.2858,2.2919,2.2901,2.2869,2.3549,2.3955,2.39,2.4555,2.5302,2.6021,2.6776,2.7097,2.7162,2.7195,2.7228,2.7228,2.7239,2.7228,2.736,2.7371,2.7426,2.7425,2.8222,2.8768,2.8869,2.9534,3.0296,3.0594,3.0823,3.1087,3.1569,3.1626,3.171,3.173,3.1988,3.2431,3.2676,3.2443,3.2345,3.242,3.2153,3.1899,3.1899,3.2142,3.2218,3.1848,3.1669,3.1899,3.2269,3.2384,3.2384,3.2446,3.2446,3.2345,3.2102,3.1848,3.1772,3.1721,3.1593,3.1593,3.1593,3.1593,3.1593,3.1593,3.1593,3.1593,2.2015,2.2006,2.2015,2.1734,2.1379,2.1809,2.1734,2.1354,2.1817,2.2015,2.199,2.1916,2.192,2.1975,2.1986,2.2233,2.2569,2.2578,2.278,2.3179,2.3188,2.3063,2.2853,2.2828,2.2703,2.2526,2.2501,2.2501,2.2602,2.3054,2.3612,2.4152,2.4211,2.4211,2.4211,2.4211,2.4211,2.4211,2.4211,2.4211,2.4211,2.4211,2.4211,2.4192,2.4012,2.3904,2.392,2.3739,2.3523,2.3279,2.3251,2.3142,2.2913,2.32,2.3355,2.3378,2.4011,2.4933,2.6123,2.6482,2.6839,2.7238,2.7566,2.7719,2.7718,2.7992,2.819,2.8157,2.7882,2.7839,2.818,2.8559,2.8905,2.9204,2.9565,2.9983,3.0426,3.0726,3.1007,3.1205,3.1479,3.1627,3.166,3.1817,3.2015,3.2215,3.2052,3.1975,3.1924,3.1721,3.1618,3.1629,3.1823,3.1848,3.1618,3.1593,3.1721,3.1848,3.1924,3.1913,3.1939,3.1913,3.1837,3.1618,3.1593,3.1593,3.1618,3.1593,3.1593,3.1593,3.1593,3.1593,3.1593,3.1593,3.1593,2.2047,2.208,2.2047,2.1717,2.1242,2.1818,2.1734,2.131,2.1818,2.2055,2.2021,2.1649,2.1543,2.1645,2.1938,2.2148,2.2274,2.2274,2.2367,2.2476,2.2501,2.2426,2.2299,2.2274,2.2198,2.208,2.203,2.2131,2.2342,2.295,2.3539,2.4067,2.4377,2.4532,2.4542,2.4542,2.4542,2.4551,2.4532,2.4542,2.4507,2.4431,2.4296,2.422,2.4211,2.4211,2.4211,2.4211,2.4039,2.3706,2.3688,2.3559,2.3294,2.3257,2.3257,2.3305,2.3952,2.4909,2.6191,2.6476,2.6898,2.764,2.8047,2.821,2.8275,2.8583,2.8792,2.8736,2.856,2.8615,2.89,2.9,2.9185,2.9609,2.9709,2.9871,3.0341,3.0712,3.0944,3.1094,3.1454,3.1593,3.1593,3.1618,3.1644,3.1644,3.1618,3.1593,3.1593,3.1593,3.1593,3.1593,3.1593,3.1593,3.1593,3.1593,3.1593,3.1593,3.1618,3.1644,3.1593,3.1593,3.1618,3.1593,3.1593,3.1593,3.1593,3.1593,3.1593,3.1593,3.1593,3.1593,3.1593,3.1593,3.1593,2.0968,2.0994,2.0994,2.0968,2.0917,2.0994,2.0968,2.0865,2.1002,2.1002,2.1045,2.0994,2.096,2.0979,2.1054,2.1275,2.1674,2.1751,2.1979,2.2375,2.2434,2.2198,2.1751,2.1725,2.1471,2.1139,2.1121,2.136,2.186,2.269,2.3401,2.3983,2.4837,2.5306,2.5278,2.526,2.5324,2.5251,2.5251,2.5297,2.5269,2.4957,2.4599,2.4312,2.4211,2.4211,2.4211,2.4211,2.4183,2.4174,2.4122,2.4137,2.4103,2.4119,2.4076,2.4159,2.4779,2.5538,2.6345,2.6957,2.7698,2.8509,2.8556,2.8725,2.8682,2.8814,2.8846,2.8814,2.9185,2.9425,2.9502,2.9502,2.9652,3.01,3.0188,3.0395,3.081,3.0908,3.1116,3.1418,3.156,3.1593,3.1593,3.1593,3.1593,3.1593,3.1593,3.1593,3.1593,3.1593,3.1593,3.1593,3.1593,3.1593,3.1593,3.1593,3.1593,3.1593,3.1593,3.1593,3.1593,3.1593,3.1593,3.1593,3.1593,3.1593,3.1593,3.1593,3.1593,3.1593,3.1593,3.1593,3.1593,3.1593,3.1593,2.0899,2.0899,2.0899,2.0609,2.0197,2.066,2.0617,2.0197,2.0686,2.0899,2.0899,2.0899,2.0899,2.0899,2.0899,2.0994,2.1198,2.1173,2.13,2.1471,2.1479,2.1377,2.1224,2.1173,2.1096,2.0942,2.0925,2.1491,2.2578,2.3219,2.3957,2.4764,2.5211,2.5398,2.5398,2.5398,2.5398,2.5398,2.5398,2.5398,2.5407,2.526,2.5104,2.4939,2.4468,2.4211,2.4211,2.4211,2.4211,2.4211,2.4211,2.4211,2.4211,2.4211,2.4211,2.4236,2.444,2.4913,2.5625,2.5954,2.6686,2.7859,2.8023,2.8314,2.8731,2.9053,2.9239,2.9327,2.9663,3.0024,3.0264,3.0133,3.0144,3.0548,3.0657,3.0832,3.1236,3.1342,3.1418,3.156,3.1593,3.1593,3.1593,3.1593,3.1593,3.1593,3.1593,3.1604,3.1604,3.1604,3.1626,3.1615,3.1593,3.1593,3.1593,3.1593,3.1593,3.1593,3.1593,3.1593,3.1593,3.1593,3.1593,3.1593,3.1593,3.1593,3.1593,3.1593,3.1593,3.1593,3.1593,3.1593,3.1593,3.1593,3.1593,2.0899,2.0899,2.0899,2.0583,2.0171,2.066,2.0617,2.0171,2.0668,2.0899,2.0899,2.0899,2.0899,2.0899,2.0899,2.0899,2.0899,2.0899,2.0899,2.0899,2.0899,2.0899,2.0899,2.0899,2.0955,2.1074,2.1211,2.19,2.2967,2.3612,2.4412,2.5266,2.5604,2.5792,2.5783,2.5792,2.5792,2.5783,2.5792,2.5766,2.5774,2.5655,2.559,2.5499,2.492,2.4587,2.4587,2.4477,2.4404,2.4395,2.4275,2.4211,2.4211,2.4211,2.4211,2.4211,2.4211,2.4514,2.5182,2.5294,2.6048,2.7608,2.7844,2.8206,2.9134,2.9556,2.9696,2.9816,3.0155,3.0592,3.0777,3.0745,3.0799,3.1072,3.1127,3.1247,3.1549,3.1593,3.1582,3.1593,3.1593,3.1593,3.1593,3.1593,3.1593,3.1593,3.1593,3.1636,3.18,3.188,3.1957,3.2044,3.1964,3.1935,3.1833,3.1778,3.1647,3.1615,3.1593,3.1593,3.1593,3.1593,3.1593,3.1593,3.1593,3.1593,3.1593,3.1593,3.1593,3.1593,3.1593,3.1593,3.1593,3.1593,3.1713,2.0814,2.0745,2.0865,2.0686,2.0557,2.0609,2.0789,2.0634,2.0771,2.0771,2.0745,2.0865,2.0899,2.0899,2.0899,2.0899,2.0899,2.0899,2.0899,2.0899,2.0899,2.0899,2.0899,2.0939,2.1129,2.1431,2.1817,2.2317,2.3088,2.3889,2.4653,2.5281,2.6037,2.6318,2.6527,2.6381,2.6491,2.649,2.649,2.6509,2.6554,2.6187,2.5994,2.5958,2.56,2.5407,2.5398,2.5021,2.4801,2.4764,2.4461,2.4229,2.4266,2.4229,2.4211,2.4257,2.4238,2.4582,2.5166,2.5327,2.6168,2.7762,2.8244,2.8693,2.9753,3.0144,3.0209,3.0275,3.0614,3.093,3.1018,3.1269,3.1473,3.1582,3.1516,3.1538,3.1582,3.1593,3.1593,3.1593,3.1593,3.1604,3.1615,3.168,3.1724,3.1789,3.18,3.192,3.2295,3.2372,3.2606,3.2803,3.265,3.2372,3.2197,3.2012,3.1815,3.1636,3.1615,3.1593,3.1593,3.1593,3.1593,3.1593,3.1593,3.1593,3.1593,3.1593,3.1593,3.1593,3.1593,3.1669,3.1778,3.1866,3.2055,1.9179,1.9179,1.9172,1.9179,1.9179,1.9179,1.9179,1.9257,1.9802,2.0068,2.0171,2.066,2.0899,2.0899,2.0899,2.0899,2.0899,2.0899,2.0899,2.0907,2.0899,2.0899,2.0947,2.1153,2.1439,2.1806,2.2183,2.2868,2.3785,2.4354,2.4954,2.551,2.5836,2.599,2.5999,2.5999,2.6136,2.6555,2.6618,2.6618,2.6582,2.6463,2.6416,2.6407,2.6297,2.6242,2.6196,2.5581,2.5232,2.5214,2.5086,2.4893,2.4627,2.4333,2.4324,2.4572,2.4608,2.4822,2.5247,2.5419,2.6097,2.7542,2.7962,2.8704,3.0,3.0491,3.0619,3.0698,3.1105,3.14,3.1407,3.1495,3.1593,3.1593,3.1593,3.1593,3.1604,3.1615,3.1593,3.1593,3.1593,3.1746,3.2055,3.2143,3.2252,3.2529,3.2584,3.2693,3.2824,3.2879,3.289,3.3054,3.2901,3.2879,3.2759,3.2595,3.2361,3.2077,3.1887,3.1658,3.1626,3.1593,3.1593,3.1593,3.1593,3.1593,3.1593,3.1593,3.1604,3.1636,3.1669,3.1859,3.2077,3.2263,3.2416,1.8396,1.8396,1.8396,1.8396,1.8396,1.8396,1.8605,1.8945,1.9465,1.9861,2.0223,2.066,2.0899,2.0899,2.0899,2.0899,2.0899,2.0899,2.097,2.1042,2.0931,2.0962,2.1137,2.1597,2.1934,2.2199,2.2506,2.3179,2.4114,2.4363,2.4759,2.5257,2.5376,2.5514,2.5679,2.5706,2.5999,2.6527,2.6618,2.6618,2.6618,2.6618,2.6618,2.6609,2.6609,2.6618,2.6572,2.6104,2.5774,2.5618,2.5489,2.5269,2.5021,2.4817,2.4755,2.4948,2.503,2.5141,2.537,2.5394,2.618,2.7593,2.777,2.8406,2.9848,3.0586,3.0694,3.0769,3.1255,3.1593,3.1593,3.1593,3.1593,3.1593,3.1593,3.1593,3.1615,3.1804,3.1902,3.1931,3.2051,3.2306,3.2562,3.2682,3.277,3.3043,3.3098,3.3229,3.3283,3.3371,3.3426,3.3469,3.3469,3.3437,3.336,3.3174,3.2945,3.2617,3.2263,3.1909,3.168,3.1626,3.1593,3.1593,3.1593,3.1593,3.1593,3.1604,3.1615,3.1669,3.1924,3.2186,3.2496,3.2639,3.2824,1.8239,1.8265,1.8232,1.8134,1.8134,1.8108,1.852,1.9361,1.955,1.9964,2.0583,2.0822,2.0899,2.0899,2.0899,2.0899,2.0899,2.0899,2.1074,2.1198,2.1119,2.1153,2.1573,2.2124,2.2402,2.2553,2.2831,2.3283,2.3911,2.398,2.4184,2.4676,2.487,2.5064,2.5486,2.5651,2.599,2.6527,2.6618,2.6618,2.6618,2.6618,2.6618,2.6618,2.6618,2.6618,2.66,2.6517,2.6361,2.6031,2.5682,2.5471,2.5434,2.5407,2.5324,2.5407,2.5434,2.548,2.548,2.56,2.6364,2.7988,2.7797,2.8101,2.9984,3.0436,3.0555,3.0669,3.1238,3.1593,3.1593,3.1593,3.1615,3.1658,3.1735,3.1724,3.1702,3.2132,3.2372,3.2496,3.2803,3.3098,3.3098,3.3141,3.3185,3.3283,3.3338,3.3546,3.3715,3.389,3.4065,3.4054,3.3956,3.3912,3.3825,3.3726,3.3497,3.3185,3.2798,3.2416,3.1887,3.1735,3.1604,3.1593,3.1669,3.1647,3.1702,3.1778,3.2001,3.2274,3.2492,3.2704,3.289,3.3076,3.3294,1.6551,1.6551,1.6551,1.6551,1.6551,1.6551,1.71,1.791,1.8546,1.9335,2.0009,2.066,2.0899,2.0899,2.0899,2.0899,2.0899,2.0907,2.1081,2.1341,2.1343,2.1645,2.2116,2.2386,2.2633,2.2847,2.295,2.3304,2.3865,2.3865,2.3968,2.4156,2.4565,2.4842,2.5055,2.5486,2.6017,2.6527,2.6618,2.6618,2.6618,2.6618,2.6618,2.6618,2.6618,2.6618,2.6618,2.6618,2.6582,2.6417,2.6058,2.5838,2.5811,2.56,2.5572,2.5792,2.5847,2.5976,2.6205,2.6251,2.6853,2.7765,2.7728,2.8463,3.0177,3.0391,3.0703,3.1116,3.1516,3.1593,3.1593,3.1615,3.1767,3.211,3.2197,3.2208,3.2252,3.2606,3.2912,3.2923,3.3054,3.3294,3.3546,3.3617,3.3715,3.3967,3.4054,3.4076,3.4157,3.4234,3.4321,3.4365,3.4321,3.4321,3.4277,3.4212,3.4054,3.3726,3.3388,3.3071,3.2481,3.1968,3.1746,3.1593,3.1844,3.1898,3.2099,3.223,3.2525,3.2824,3.2956,3.3087,3.3388,3.3617,3.3825,1.5885,1.5885,1.5885,1.5885,1.5965,1.6285,1.6915,1.7753,1.8598,1.9413,2.0163,2.0668,2.0899,2.0899,2.0899,2.0899,2.0907,2.105,2.132,2.1687,2.1962,2.2232,2.249,2.2609,2.2823,2.299,2.3014,2.3183,2.3464,2.3528,2.352,2.3632,2.4128,2.4537,2.487,2.5404,2.5999,2.65,2.6618,2.6618,2.6618,2.6618,2.6618,2.6618,2.6618,2.6618,2.6618,2.6618,2.6618,2.6563,2.638,2.6251,2.6233,2.6049,2.5995,2.6242,2.6251,2.6371,2.6545,2.6618,2.6971,2.7511,2.7538,2.8208,2.9392,2.9874,3.0203,3.0899,3.1362,3.1567,3.1647,3.1778,3.2066,3.2339,3.2759,3.2863,3.2737,3.3109,3.336,3.3447,3.359,3.3748,3.4076,3.4087,3.4229,3.4376,3.4397,3.4419,3.4463,3.4496,3.4496,3.4496,3.4496,3.4441,3.4419,3.4365,3.4343,3.4087,3.3814,3.3541,3.306,3.2405,3.2285,3.2186,3.2197,3.2274,3.2514,3.2721,3.294,3.3185,3.3305,3.3557,3.3857,3.3999,3.4201,1.5885,1.5885,1.5885,1.5903,1.6073,1.6781,1.755,1.8534,1.9234,2.0098,2.0877,2.1,2.1066,2.0955,2.1018,2.0972,2.0915,2.1224,2.1629,2.2084,2.2529,2.2815,2.2625,2.2839,2.2966,2.3014,2.3014,2.3014,2.3098,2.307,2.3042,2.3296,2.3745,2.4295,2.487,2.5486,2.6081,2.65,2.6618,2.6618,2.6618,2.6618,2.6618,2.6618,2.6618,2.6618,2.6618,2.6618,2.6618,2.6618,2.6618,2.6545,2.6554,2.66,2.6582,2.6563,2.6545,2.6572,2.6582,2.6646,2.6845,2.7359,2.7053,2.7368,2.8827,2.9408,2.989,3.077,3.1208,3.1516,3.1658,3.2055,3.2398,3.2628,3.3257,3.3497,3.3437,3.3633,3.3868,3.3879,3.4272,3.4441,3.4496,3.4496,3.4496,3.4441,3.4496,3.4496,3.4496,3.4496,3.4496,3.4496,3.4496,3.4496,3.4485,3.4485,3.4463,3.4354,3.4103,3.3868,3.3573,3.3136,3.3065,3.2956,3.2715,3.2792,3.3087,3.3283,3.3426,3.3628,3.3835,3.4098,3.4321,3.4288,3.4419,1.5885,1.5885,1.5885,1.6024,1.6226,1.645,1.7508,1.9088,1.9319,2.0382,2.1471,2.1746,2.1552,2.127,2.1238,2.1143,2.097,2.1296,2.174,2.2394,2.2791,2.2974,2.2903,2.299,2.3006,2.3014,2.3014,2.3014,2.3014,2.3014,2.3014,2.3127,2.4008,2.464,2.4898,2.5825,2.6455,2.6591,2.6618,2.6618,2.6618,2.6618,2.6618,2.6618,2.6618,2.6618,2.6618,2.6618,2.6618,2.6618,2.6618,2.6618,2.6618,2.6618,2.6618,2.6618,2.6618,2.6618,2.6618,2.6646,2.6673,2.6872,2.7413,2.7985,2.8949,2.9733,3.0432,3.1131,3.149,3.1567,3.1647,3.2088,3.2529,3.2934,3.3431,3.3934,3.413,3.4272,3.4288,3.4332,3.4397,3.4496,3.4496,3.4496,3.4496,3.4496,3.4496,3.4496,3.4496,3.4496,3.4496,3.4496,3.4496,3.4496,3.4496,3.4496,3.4496,3.4496,3.4321,3.419,3.3923,3.3672,3.3513,3.3294,3.3065,3.3273,3.3622,3.3688,3.3781,3.4087,3.4288,3.4365,3.4441,3.4485,3.4496,1.5964,1.6072,1.6099,1.6235,1.6603,1.7353,1.831,1.9339,2.0263,2.1086,2.1815,2.2011,2.1767,2.1431,2.1381,2.1224,2.1089,2.1473,2.2069,2.2641,2.2942,2.3006,2.3014,2.3014,2.3014,2.3014,2.3014,2.3014,2.3014,2.3014,2.3014,2.3098,2.4195,2.4731,2.4981,2.599,2.6527,2.6618,2.6618,2.6618,2.6618,2.6618,2.6618,2.6618,2.6618,2.6618,2.6618,2.6618,2.6618,2.6618,2.6618,2.6618,2.6618,2.6618,2.6618,2.6618,2.6618,2.6618,2.6646,2.6926,2.7008,2.6673,2.7672,2.8482,2.9171,2.99,3.0728,3.1347,3.1567,3.1604,3.1647,3.2365,3.2813,3.313,3.3715,3.419,3.443,3.4496,3.4496,3.4496,3.4485,3.4496,3.4496,3.4496,3.4496,3.4496,3.4496,3.4496,3.4496,3.4496,3.4496,3.4496,3.4496,3.4496,3.4496,3.4496,3.4496,3.4496,3.4452,3.4386,3.4266,3.4037,3.3835,3.3693,3.3617,3.3825,3.4081,3.4152,3.413,3.4277,3.4419,3.4474,3.4496,3.4496,3.4496,1.6069,1.6311,1.6284,1.6465,1.6983,1.8419,1.9209,1.9722,2.1203,2.1877,2.2159,2.2143,2.1997,2.1581,2.1526,2.132,2.133,2.1658,2.2302,2.2903,2.299,2.3014,2.3014,2.3014,2.3014,2.3014,2.3014,2.3014,2.3014,2.3014,2.3014,2.3203,2.4203,2.4759,2.5072,2.5962,2.6618,2.6618,2.6618,2.6618,2.6618,2.6618,2.6618,2.6618,2.6618,2.6618,2.6618,2.6618,2.6618,2.6618,2.6618,2.6618,2.6618,2.6618,2.6618,2.6618,2.6618,2.6618,2.6745,2.7215,2.7439,2.6881,2.8342,2.9197,2.9549,3.0162,3.0899,3.1322,3.1593,3.1593,3.1658,3.2437,3.2967,3.3273,3.3934,3.4419,3.4496,3.4496,3.4496,3.4496,3.4496,3.4496,3.4496,3.4496,3.4496,3.4496,3.4496,3.4496,3.4496,3.4496,3.4496,3.4496,3.4496,3.4496,3.4496,3.4496,3.4496,3.4496,3.4496,3.4496,3.4496,3.4332,3.4157,3.4299,3.4332,3.4397,3.4386,3.4354,3.4376,3.4496,3.4496,3.4496,3.4496,3.4496,3.4496,1.6069,1.6284,1.6284,1.6561,1.7155,1.8215,1.9249,2.0202,2.1273,2.2114,2.2751,2.2815,2.2418,2.2016,2.1889,2.1841,2.1746,2.1937,2.235,2.2895,2.2998,2.3014,2.3014,2.3014,2.3014,2.3014,2.3014,2.3014,2.3014,2.3014,2.3014,2.3239,2.4203,2.4787,2.5128,2.5935,2.6618,2.6618,2.6618,2.6618,2.6618,2.6618,2.6618,2.6618,2.6618,2.6618,2.6618,2.6618,2.6618,2.6618,2.6618,2.6618,2.6618,2.6618,2.6618,2.6618,2.6618,2.6618,2.6718,2.7368,2.7699,2.7985,2.9181,3.0068,3.0328,3.0821,3.1322,3.1476,3.1593,3.1604,3.1651,3.2492,3.301,3.3338,3.3868,3.4474,3.4496,3.4496,3.4496,3.4496,3.4496,3.4496,3.4496,3.4496,3.4496,3.4496,3.4496,3.4496,3.4496,3.4496,3.4496,3.4496,3.4496,3.4496,3.4496,3.4496,3.4496,3.4496,3.4496,3.4496,3.4496,3.4496,3.4496,3.4496,3.4496,3.4463,3.4474,3.4496,3.4496,3.4496,3.4496,3.4496,3.4496,3.4496,3.4496,1.6281,1.6507,1.6668,1.693,1.751,1.8851,1.9758,2.045,2.1723,2.2575,2.2893,2.2982,2.2625,2.2135,2.2011,2.1897,2.1785,2.1937,2.2279,2.2688,2.2919,2.3014,2.3014,2.3014,2.3014,2.3014,2.3014,2.3014,2.3014,2.3014,2.3014,2.3296,2.4203,2.4814,2.5072,2.5999,2.65,2.6609,2.66,2.66,2.66,2.66,2.6609,2.6609,2.6609,2.6618,2.6618,2.6618,2.6618,2.6618,2.6618,2.6618,2.6618,2.6618,2.6618,2.6618,2.6646,2.6646,2.6881,2.7628,2.8269,2.8092,2.9733,3.064,3.0718,3.1028,3.1542,3.1593,3.1593,3.1593,3.1626,3.254,3.301,3.3262,3.3923,3.4408,3.4496,3.4496,3.4496,3.4496,3.4496,3.4496,3.4496,3.4496,3.4496,3.4496,3.4496,3.4496,3.4496,3.4345,3.4289,3.4317,3.4289,3.4401,3.444,3.4496,3.4496,3.4496,3.4496,3.4496,3.4496,3.4496,3.4496,3.4496,3.4496,3.4496,3.4496,3.4496,3.4496,3.4496,3.4496,3.4496,3.4496,3.4496,3.4496,1.6447,1.6724,1.6984,1.7243,1.7777,1.9519,2.0263,2.0637,2.2214,2.2958,2.3006,2.2903,2.2573,2.2072,2.1809,2.1616,2.1412,2.1833,2.2191,2.2529,2.2863,2.3014,2.3014,2.3014,2.3014,2.3014,2.3014,2.3014,2.3014,2.3014,2.3014,2.3324,2.4211,2.4814,2.5072,2.6026,2.6427,2.6499,2.649,2.6444,2.6371,2.6444,2.649,2.6527,2.6572,2.6618,2.6618,2.6618,2.6618,2.6618,2.6618,2.6618,2.6618,2.6618,2.6618,2.6646,2.6755,2.6827,2.7269,2.8432,2.9128,2.8784,3.0411,3.095,3.1028,3.1234,3.1593,3.1593,3.1593,3.1593,3.1713,3.2518,3.2999,3.3294,3.3879,3.4496,3.4496,3.4496,3.4496,3.4496,3.4496,3.4496,3.4496,3.4496,3.4496,3.4496,3.4496,3.4496,3.444,3.4026,3.3942,3.3998,3.4082,3.4222,3.4345,3.4468,3.4496,3.4496,3.4496,3.4496,3.4496,3.4496,3.4496,3.4496,3.4496,3.4496,3.4496,3.4496,3.4496,3.4496,3.4496,3.4496,3.4496,3.4496,3.4496,1.6447,1.6724,1.6984,1.7272,1.7747,1.9455,2.027,2.0529,2.2186,2.2986,2.295,2.2688,2.2374,2.1913,2.1314,2.1216,2.1439,2.1806,2.2151,2.2442,2.2815,2.3014,2.3014,2.3014,2.3014,2.3014,2.3014,2.3014,2.3098,2.3098,2.3098,2.3372,2.4267,2.4825,2.4986,2.5955,2.6389,2.6132,2.6068,2.5912,2.571,2.5912,2.6031,2.615,2.6334,2.6536,2.6517,2.6536,2.6563,2.6618,2.6618,2.6618,2.6618,2.6618,2.6618,2.6827,2.7188,2.7663,2.7833,2.8996,3.0005,2.9848,3.1002,3.1414,3.1439,3.1414,3.1593,3.1593,3.1593,3.1593,3.1746,3.2529,3.2956,3.3415,3.3923,3.4365,3.4496,3.4496,3.4496,3.4496,3.4496,3.4496,3.4496,3.4496,3.4496,3.4496,3.4468,3.444,3.4177,3.3649,3.3526,3.3621,3.3734,3.3903,3.4345,3.4468,3.4468,3.4468,3.4496,3.4496,3.4496,3.4496,3.4496,3.4496,3.4496,3.4496,3.4496,3.4496,3.4496,3.4496,3.4496,3.4496,3.4496,3.4496,3.4496,1.6447,1.6736,1.717,1.7376,1.7655,1.8962,1.9809,2.05,2.1631,2.2409,2.2664,2.2569,2.2188,2.164,2.1097,2.0986,2.1224,2.1719,2.2048,2.235,2.272,2.3014,2.3014,2.3014,2.3014,2.3014,2.3042,2.3267,2.3352,2.3548,2.3624,2.4092,2.4797,2.5208,2.5022,2.582,2.5933,2.5765,2.5672,2.5563,2.548,2.5544,2.5645,2.5664,2.5847,2.6049,2.6215,2.626,2.6407,2.6527,2.6618,2.6618,2.6618,2.6618,2.6618,2.6673,2.7368,2.7753,2.7931,2.9039,2.9812,3.051,3.1079,3.1542,3.1593,3.1593,3.1593,3.1593,3.1593,3.1593,3.1756,3.254,3.2912,3.3371,3.3956,3.4266,3.4496,3.4496,3.4496,3.4496,3.4496,3.4496,3.4496,3.4496,3.4468,3.444,3.4149,3.3829,3.3424,3.2846,3.2892,3.3204,3.3356,3.3526,3.4082,3.4496,3.4468,3.4468,3.4496,3.4496,3.4496,3.4496,3.4496,3.4496,3.4496,3.4496,3.4496,3.4496,3.4496,3.4496,3.4496,3.4496,3.4496,3.4496,3.4496,1.6432,1.664,1.7194,1.7418,1.7625,1.8735,1.9581,2.0237,2.1404,2.2044,2.2257,2.2227,2.1827,2.1359,2.1042,2.0978,2.1097,2.1722,2.2008,2.231,2.2649,2.2974,2.3014,2.3014,2.3014,2.3014,2.3014,2.3408,2.3932,2.4156,2.4351,2.4806,2.5117,2.5313,2.5299,2.553,2.5645,2.5287,2.5113,2.504,2.5049,2.5168,2.5232,2.5287,2.537,2.5535,2.5819,2.6002,2.6205,2.6352,2.6572,2.6609,2.6618,2.6618,2.6618,2.6773,2.7368,2.7958,2.8359,2.9128,2.9812,3.0552,3.1105,3.1593,3.1593,3.1593,3.1593,3.1593,3.1593,3.1593,3.1789,3.2529,3.2967,3.3415,3.3923,3.4234,3.4496,3.4496,3.4496,3.4496,3.4496,3.4496,3.4496,3.4496,3.444,3.4373,3.397,3.3385,3.2835,3.2322,3.2322,3.2626,3.2293,3.2664,3.3593,3.4054,3.4205,3.444,3.444,3.4496,3.4496,3.4496,3.4496,3.4496,3.4496,3.4496,3.4496,3.4496,3.4496,3.4496,3.4496,3.4496,3.4496,3.4496,3.4496,1.6317,1.6356,1.6887,1.7266,1.7566,1.9432,1.9945,1.9893,2.1564,2.2088,2.1981,2.1653,2.1327,2.1042,2.1018,2.1105,2.1357,2.1791,2.2143,2.2458,2.2787,2.299,2.3014,2.3014,2.3014,2.3014,2.3042,2.3624,2.4426,2.4593,2.4704,2.4872,2.5313,2.5209,2.513,2.5255,2.517,2.4847,2.4599,2.444,2.4498,2.4645,2.4838,2.4929,2.5168,2.5407,2.5479,2.5718,2.61,2.621,2.6523,2.6745,2.6799,2.6971,2.7035,2.6999,2.7574,2.8279,2.8986,2.9691,3.0578,3.1234,3.1542,3.1593,3.1593,3.1593,3.1593,3.1593,3.1593,3.1647,3.1909,3.2405,3.3021,3.348,3.3934,3.4288,3.4496,3.4496,3.4496,3.4496,3.4496,3.4496,3.4496,3.4496,3.4496,3.444,3.397,3.3413,3.275,3.2264,3.1977,3.1862,3.1208,3.1613,3.2864,3.3328,3.3678,3.4093,3.4317,3.4412,3.4496,3.4496,3.4496,3.4496,3.4496,3.4496,3.4496,3.4496,3.4496,3.4496,3.4496,3.4496,3.4496,3.4496,3.4496,1.616,1.6329,1.6513,1.6748,1.7059,1.7793,1.8604,1.9473,2.0233,2.1012,2.1597,2.1264,2.1026,2.0978,2.1153,2.1254,2.1476,2.2061,2.2323,2.2553,2.2815,2.299,2.3014,2.3014,2.3014,2.3014,2.307,2.3616,2.4648,2.4787,2.5404,2.5618,2.5649,2.5485,2.5344,2.4922,2.4604,2.4498,2.4296,2.4211,2.4238,2.4312,2.4415,2.4477,2.4507,2.4801,2.5003,2.5159,2.5804,2.6483,2.6852,2.7069,2.7411,2.7753,2.7726,2.752,2.8145,2.8943,2.9665,3.025,3.0754,3.1362,3.1567,3.1593,3.1593,3.1593,3.1593,3.1593,3.1604,3.1669,3.2175,3.2704,3.3218,3.36,3.3967,3.4354,3.4496,3.4496,3.4496,3.4496,3.4496,3.4496,3.4496,3.4496,3.4496,3.444,3.3942,3.3452,3.2892,3.2369,3.214,3.1805,3.1208,3.1237,3.2436,3.2892,3.3215,3.3734,3.4233,3.4345,3.4496,3.4496,3.4496,3.4496,3.4496,3.4496,3.4496,3.4496,3.4496,3.4496,3.4496,3.4496,3.4496,3.4496,3.4496,1.5994,1.6184,1.619,1.6374,1.6704,1.7002,1.7885,1.9049,1.9533,2.0142,2.123,2.1002,2.0899,2.0994,2.1248,2.1502,2.1716,2.218,2.249,2.272,2.2903,2.3006,2.3014,2.3014,2.3014,2.3014,2.3098,2.3624,2.4759,2.4787,2.5459,2.601,2.6086,2.562,2.5263,2.4661,2.4211,2.4211,2.4211,2.4211,2.4211,2.422,2.4229,2.4303,2.4514,2.4756,2.5051,2.5317,2.605,2.6814,2.7327,2.7571,2.8139,2.8615,2.8694,2.8694,2.8969,2.9796,3.0235,3.0728,3.0987,3.1501,3.1593,3.1593,3.1593,3.1593,3.1593,3.1593,3.1626,3.1822,3.235,3.2824,3.3294,3.365,3.4114,3.4496,3.4496,3.4496,3.4496,3.4496,3.4496,3.4496,3.4496,3.4496,3.4496,3.4496,3.4289,3.3885,3.3526,3.2978,3.2493,3.2064,3.1516,3.1747,3.215,3.2407,3.2778,3.397,3.4345,3.4412,3.4496,3.4496,3.4496,3.4496,3.4496,3.4496,3.4496,3.4496,3.4496,3.4496,3.4496,3.4496,3.4496,3.4496,3.4496,1.5897,1.5918,1.5936,1.6211,1.6705,1.7661,1.827,1.8798,1.9694,2.0332,2.0832,2.0848,2.0899,2.0994,2.1304,2.1648,2.1941,2.2358,2.2692,2.2911,2.2966,2.3014,2.3014,2.3014,2.3014,2.3014,2.3183,2.3764,2.4778,2.4925,2.5605,2.6055,2.593,2.5388,2.5306,2.4581,2.4229,2.4211,2.4211,2.4211,2.4211,2.4211,2.4202,2.4514,2.4839,2.5136,2.5443,2.5664,2.6475,2.7487,2.7602,2.8035,2.8884,2.9262,2.9292,2.9171,2.9874,3.0339,3.0469,3.1142,3.145,3.1527,3.1527,3.1593,3.1593,3.1593,3.1593,3.1593,3.168,3.1946,3.2361,3.2868,3.3382,3.3835,3.431,3.4496,3.4496,3.4496,3.4496,3.4496,3.4496,3.4496,3.4496,3.4496,3.4496,3.4496,3.4496,3.4289,3.397,3.3621,3.3073,3.2178,3.1661,3.1555,3.1718,3.1862,3.2407,3.3678,3.444,3.4468,3.4496,3.4496,3.4496,3.4496,3.4496,3.4496,3.4496,3.4496,3.4496,3.4496,3.4496,3.4496,3.4496,3.4496,3.4496,1.5885,1.5885,1.5885,1.6021,1.6205,1.6482,1.706,1.7915,1.9175,1.9959,2.0212,2.0609,2.0899,2.1058,2.1481,2.1857,2.2056,2.2617,2.2966,2.299,2.3014,2.3014,2.3014,2.3014,2.3014,2.3135,2.338,2.3932,2.4806,2.5119,2.577,2.6245,2.5792,2.5131,2.4716,2.4275,2.4211,2.4211,2.4211,2.4211,2.4211,2.4226,2.444,2.4864,2.5221,2.5659,2.6037,2.6299,2.6973,2.805,2.8127,2.8753,2.957,3.0,3.0385,3.0214,3.0625,3.092,3.1013,3.1347,3.1487,3.1476,3.1501,3.1578,3.1593,3.1593,3.1593,3.1691,3.1924,3.2263,3.2824,3.3278,3.3759,3.4163,3.4485,3.4496,3.4496,3.4496,3.4496,3.4496,3.4496,3.4496,3.4496,3.4496,3.4496,3.4496,3.4496,3.4496,3.4261,3.4082,3.3678,3.2465,3.169,3.1411,3.1324,3.1632,3.2178,3.33,3.4082,3.4468,3.4496,3.4496,3.4496,3.4496,3.4496,3.4496,3.4496,3.4496,3.4496,3.4496,3.4496,3.4496,3.4496,3.4496,3.4496,1.5885,1.5885,1.5885,1.5885,1.5885,1.5885,1.6391,1.7404,1.8938,1.9706,1.9887,2.0532,2.0899,2.1066,2.1481,2.1929,2.2032,2.2529,2.293,2.2982,2.3014,2.3014,2.3014,2.3014,2.3014,2.3191,2.3604,2.4211,2.4806,2.5404,2.59,2.6062,2.5737,2.5131,2.4633,2.4358,2.4211,2.4211,2.4211,2.4211,2.4301,2.4489,2.4839,2.5319,2.5819,2.6388,2.6733,2.7078,2.7438,2.8403,2.9,2.9476,3.0184,3.0743,3.1212,3.1064,3.109,3.1307,3.1281,3.1424,3.145,3.1281,3.145,3.1578,3.1593,3.1593,3.1593,3.1735,3.2158,3.2595,3.3065,3.3541,3.3988,3.4354,3.4485,3.4496,3.4496,3.4496,3.4496,3.4496,3.4496,3.4496,3.4496,3.4496,3.4496,3.4496,3.4496,3.4496,3.4496,3.4356,3.4026,3.2864,3.1949,3.1632,3.1526,3.1613,3.2207,3.2978,3.3706,3.444,3.4496,3.4496,3.4496,3.4496,3.4496,3.4496,3.4496,3.4496,3.4496,3.4496,3.4496,3.4496,3.4496,3.4496,3.4496,1.5885,1.5885,1.5885,1.5885,1.5885,1.5885,1.6365,1.7279,1.8885,1.9595,1.9654,2.048,2.0891,2.097,2.1288,2.1597,2.1976,2.2339,2.2656,2.2875,2.2974,2.2998,2.3014,2.3014,2.3014,2.3211,2.3604,2.4211,2.4814,2.5578,2.5973,2.5952,2.5719,2.5251,2.4856,2.4581,2.4385,2.4275,2.439,2.4415,2.4538,2.4888,2.5319,2.5843,2.6484,2.7139,2.7494,2.7715,2.8346,2.893,2.9304,2.9913,3.0511,3.1062,3.1312,3.145,3.1476,3.1384,3.1307,3.145,3.1476,3.1347,3.1476,3.1542,3.1593,3.1615,3.1669,3.1877,3.2263,3.2704,3.3141,3.3606,3.4076,3.4288,3.4474,3.4496,3.4496,3.4496,3.4496,3.4496,3.4496,3.4496,3.4496,3.4496,3.4496,3.4496,3.4496,3.4496,3.4496,3.4496,3.4054,3.3204,3.2397,3.1939,3.1834,3.1862,3.2532,3.3385,3.3885,3.4496,3.4496,3.4496,3.4496,3.4496,3.4496,3.4496,3.4496,3.4496,3.4496,3.4496,3.4496,3.4496,3.4496,3.4496,3.4496,1.5885,1.5885,1.5885,1.5885,1.5885,1.5885,1.6078,1.6497,1.8029,1.8762,1.8866,2.03,2.0822,2.0931,2.1238,2.1454,2.1764,2.2148,2.2458,2.2672,2.2823,2.295,2.2998,2.2982,2.3006,2.3211,2.3632,2.4267,2.4934,2.5743,2.6118,2.6013,2.5847,2.5554,2.5306,2.5095,2.4691,2.4519,2.4721,2.4852,2.4971,2.5294,2.5892,2.6699,2.6867,2.7552,2.8205,2.8393,2.8932,2.9308,2.974,3.0305,3.0776,3.1066,3.123,3.1034,3.1163,3.1281,3.1245,3.145,3.1542,3.1465,3.1542,3.1567,3.1593,3.1636,3.1782,3.2088,3.2481,3.2956,3.3437,3.3879,3.4218,3.4365,3.4496,3.4496,3.4496,3.4496,3.4496,3.4496,3.4496,3.4496,3.4496,3.4496,3.4496,3.4496,3.4496,3.4496,3.4496,3.4496,3.4054,3.3243,3.2711,3.2197,3.2207,3.2264,3.3016,3.3734,3.4177,3.4468,3.4496,3.4496,3.4496,3.4496,3.4496,3.4496,3.4496,3.4496,3.4496,3.4496,3.4496,3.4496,3.4496,3.4496,3.4496,1.5885,1.5885,1.5885,1.5885,1.5885,1.5885,1.5885,1.6152,1.7338,1.8075,1.8546,1.9828,2.0609,2.0923,2.1113,2.1288,2.1452,2.1772,2.21,2.235,2.2529,2.2641,2.2736,2.2823,2.2887,2.3195,2.3792,2.4518,2.5072,2.5898,2.6435,2.627,2.6123,2.5892,2.5627,2.5407,2.5131,2.5061,2.5167,2.5388,2.5562,2.5883,2.6829,2.737,2.7299,2.8094,2.8878,2.9064,2.9327,2.9751,3.022,3.057,3.0963,3.1168,3.1142,3.1008,3.1204,3.1281,3.127,3.145,3.1542,3.1593,3.1593,3.1593,3.1593,3.1615,3.1924,3.2263,3.2781,3.3273,3.3737,3.4174,3.4321,3.4496,3.4496,3.4496,3.4496,3.4496,3.4496,3.4496,3.4496,3.4496,3.4496,3.4496,3.4496,3.4496,3.4496,3.4496,3.4496,3.4496,3.3998,3.3243,3.2835,3.2454,3.255,3.2636,3.313,3.3678,3.4138,3.4373,3.444,3.4496,3.4496,3.4496,3.4496,3.4496,3.4496,3.4496,3.4496,3.4496,3.4496,3.4496,3.4496,3.4496,3.4496,1.5885,1.5885,1.5885,1.5885,1.5885,1.5885,1.5885,1.5992,1.675,1.7569,1.8448,1.9342,2.0223,2.0804,2.097,2.1113,2.1254,2.151,2.1751,2.196,2.2112,2.2263,2.2422,2.2493,2.2617,2.323,2.3791,2.4233,2.5027,2.5898,2.6591,2.6582,2.6279,2.6068,2.6022,2.5801,2.5598,2.5533,2.5917,2.6297,2.6261,2.6824,2.7752,2.8005,2.8408,2.8999,2.941,2.9644,2.9762,3.0231,3.0581,3.0843,3.1073,3.1229,3.1139,3.1127,3.1255,3.1358,3.1347,3.149,3.1542,3.1593,3.1593,3.1593,3.1593,3.1767,3.2121,3.2584,3.3076,3.353,3.401,3.4256,3.443,3.4496,3.4496,3.4496,3.4496,3.4496,3.4496,3.4496,3.4496,3.4496,3.4496,3.4496,3.4496,3.4496,3.4496,3.4496,3.4496,3.4496,3.4121,3.3424,3.3034,3.2807,3.2921,3.3016,3.3148,3.3582,3.4138,3.4373,3.4468,3.4496,3.4496,3.4496,3.4496,3.4496,3.4496,3.4496,3.4496,3.4496,3.4496,3.4496,3.4496,3.4496,3.4496,1.5885,1.5885,1.5885,1.5885,1.5885,1.5885,1.5885,1.5912,1.6072,1.7047,1.837,1.9283,2.0086,2.0712,2.0873,2.0986,2.1058,2.1246,2.1454,2.164,2.1793,2.1913,2.2096,2.2127,2.2326,2.2588,2.3075,2.3925,2.4956,2.5935,2.6618,2.6609,2.6426,2.6398,2.6398,2.6205,2.6122,2.5945,2.6842,2.7271,2.7322,2.8068,2.8939,2.9151,2.9548,2.9478,2.9794,3.0057,3.0319,3.069,3.0788,3.0957,3.1123,3.1242,3.1245,3.1178,3.123,3.1358,3.145,3.1516,3.1567,3.1593,3.1593,3.1593,3.1713,3.1997,3.2394,3.289,3.3349,3.3792,3.4157,3.4354,3.4496,3.4496,3.4496,3.4496,3.4496,3.4496,3.4496,3.4496,3.4496,3.4496,3.4496,3.4496,3.4496,3.4496,3.4496,3.4496,3.4496,3.4496,3.4496,3.3914,3.3385,3.3176,3.3328,3.3452,3.3554,3.3818,3.4317,3.4468,3.4496,3.4496,3.4496,3.4496,3.4496,3.4496,3.4496,3.4496,3.4496,3.4496,3.4496,3.4496,3.4496,3.4496,3.4496,1.5885,1.5885,1.5885,1.5885,1.5885,1.5885,1.5885,1.5885,1.5885,1.663,1.7865,1.8762,1.9595,2.0403,2.0712,2.0899,2.0931,2.1064,2.1153,2.1264,2.1433,2.1552,2.1648,2.1735,2.1992,2.2269,2.3154,2.409,2.5149,2.599,2.6618,2.6618,2.6618,2.6618,2.6618,2.6564,2.6481,2.6359,2.7583,2.809,2.8278,2.9113,2.9677,2.9965,2.9962,2.9988,3.026,3.0537,3.0799,3.1083,3.1236,3.1262,3.1363,3.1403,3.1322,3.1281,3.1307,3.141,3.145,3.1516,3.1567,3.1593,3.1615,3.1626,3.2088,3.2394,3.2693,3.3141,3.348,3.3901,3.4234,3.4474,3.4496,3.4496,3.4496,3.4496,3.4496,3.4496,3.4496,3.4496,3.4496,3.4496,3.4496,3.4496,3.4496,3.4496,3.4496,3.4496,3.4496,3.4496,3.4496,3.4384,3.3818,3.3734,3.3998,3.4026,3.4026,3.4289,3.4468,3.4496,3.4496,3.4496,3.4496,3.4496,3.4496,3.4496,3.4496,3.4496,3.4496,3.4496,3.4496,3.4496,3.4496,3.4496,3.4496,1.5885,1.5885,1.5885,1.5916,1.594,1.5972,1.5976,1.6,1.5991,1.6341,1.7185,1.8076,1.8893,1.9724,2.0532,2.0763,2.0915,2.097,2.0947,2.0939,2.0962,2.1161,2.1296,2.1341,2.1751,2.2543,2.3501,2.4536,2.5579,2.6272,2.6618,2.6618,2.6618,2.6618,2.6618,2.6609,2.6554,2.6744,2.7435,2.815,2.8896,2.9787,3.0191,3.0337,3.0428,3.0614,3.0865,3.105,3.1244,3.1364,3.1516,3.1513,3.1509,3.1527,3.145,3.1384,3.145,3.145,3.1424,3.149,3.1542,3.1604,3.1636,3.1924,3.2383,3.2792,3.3076,3.3371,3.371,3.3999,3.4332,3.4496,3.4496,3.4496,3.4496,3.4496,3.4496,3.4496,3.4496,3.4496,3.4496,3.4496,3.4496,3.4496,3.4496,3.4496,3.4496,3.4496,3.4496,3.4496,3.4496,3.4496,3.4261,3.4317,3.4496,3.4412,3.4289,3.4345,3.4496,3.4496,3.4496,3.4496,3.4496,3.4496,3.4496,3.4496,3.4496,3.4496,3.4496,3.4496,3.4496,3.4496,3.4496,3.4496,3.4496,1.5885,1.5885,1.5912,1.6033,1.6214,1.6232,1.6359,1.6489,1.6317,1.6341,1.6827,1.7861,1.8893,1.9732,2.0557,2.0891,2.0899,2.0899,2.0899,2.0899,2.0899,2.0955,2.101,2.1121,2.1756,2.2681,2.3737,2.4727,2.5653,2.6272,2.6618,2.6618,2.6618,2.6618,2.6618,2.6618,2.6636,2.6845,2.7206,2.7877,2.8439,2.9397,3.0655,3.1026,3.1331,3.1385,3.1451,3.1451,3.1516,3.1571,3.1593,3.1593,3.1593,3.1593,3.1527,3.1501,3.1578,3.1553,3.1516,3.1542,3.1593,3.1636,3.1804,3.2208,3.2715,3.3191,3.3491,3.3715,3.4021,3.4223,3.4496,3.4496,3.4496,3.4496,3.4496,3.4496,3.4496,3.4496,3.4496,3.4496,3.4496,3.4496,3.4496,3.4496,3.4496,3.4496,3.4496,3.4496,3.4496,3.4496,3.4496,3.4496,3.4496,3.4496,3.4496,3.4496,3.4412,3.4468,3.4496,3.4496,3.4496,3.4496,3.4496,3.4496,3.4496,3.4496,3.4496,3.4496,3.4496,3.4496,3.4496,3.4496,3.4496,3.4496,3.4496]},{"header":{"parameterUnit":"m.s-1","parameterCategory":1,"la1":31.0,"la2":29.5877,"lo1":-88.7671,"lo2":-86.6584,"dy":0.0162,"dx":0.0185,"nx":115,"ny":88,"refTime":"2024-04-19T06:00:00:Z","depth":0,"parameterNumber":3,"parameterNumberName":"V-component_of_WINDS"},"data":[0.0,0.0,0.0,0.0,0.0,0.0,0.0,0.0,0.0,0.0,0.0,0.0,0.0,0.0,0.0,0.0,0.0,0.0,0.0,0.0,0.0,0.0,0.0,0.0,0.0,0.0,0.0,0.0,0.0,0.0,0.0,0.0,0.0,0.0,0.0,0.0,0.0,0.0,0.0,0.0,0.0,0.0,0.0,0.0,0.0,0.0,0.0,0.0,0.0,0.0,0.0,0.0,0.0,0.0,0.0,0.0,0.0,0.0,0.0,0.0,0.0,0.0,0.0,0.0,0.0,0.0,0.0,0.0,0.0,0.0,0.0,0.0,0.0,0.0,0.0,0.0,0.0,0.0,0.0,0.0,0.0,0.0,0.0,0.0,0.0,0.0,0.0,0.0,0.0,0.0,0.0,0.0,0.0,0.0,0.0,0.0,0.0,0.0,0.0,0.0,0.0,0.0,0.0,0.0,0.0,0.0,0.0,0.0,0.0,0.0,0.0,0.0,0.0,0.0,0.0,0.0,0.0,0.0,0.0,0.0,0.0,0.0,0.0,0.0,0.0,0.0,0.0,0.0,0.0,0.0,0.0,0.0,0.0,0.0,0.0,0.0,0.0,0.0,0.0,0.0,0.0,0.0,0.0,0.0,0.0,0.0,0.0,0.0,0.0,0.0,0.0,0.0,0.0,0.0,0.0,0.0,0.0,0.0,0.0,0.0,0.0,0.0,0.0,0.0,0.0,0.0,0.0,0.0,0.0,0.0,0.0,0.0,0.0,0.0,0.0,0.0,0.0,0.0,0.0,0.0,0.0,0.0,0.0,0.0,0.0,0.0,0.0,0.0,0.0,0.0,0.0,0.0,0.0,0.0,0.0,0.0,0.0,0.0,0.0,0.0,0.0,0.0,0.0,0.0,0.0,0.0,0.0,0.0,0.0,0.0,0.0,0.0,0.0,0.0,0.0,0.0,0.0,0.0,0.0,0.0,0.0,0.0,0.0,0.0,0.0,0.0,0.0,0.0,0.0,0.0,0.0,0.0,0.0,0.0,0.0,0.0,0.0,0.0,0.0,0.0,0.0,0.0,0.0,0.0,0.0,0.0,0.0,0.0,0.0,0.0,0.0,0.0,0.0,0.0,0.0,0.0,0.0,0.0,0.0,0.0,0.0,0.0,0.0,0.0,0.0,0.0,0.0,0.0,0.0,0.0,0.0,0.0,0.0,0.0,0.0,0.0,0.0,0.0,0.0,0.0,0.0,0.0,0.0,0.0,0.0,0.0,0.0,0.0,0.0,0.0,0.0,0.0,0.0,0.0,0.0,0.0,0.0,0.0,0.0,0.0,0.0,0.0,0.0,0.0,0.0,0.0,0.0,0.0,0.0,0.0,0.0,0.0,0.0,0.0,0.0,0.0,0.0,0.0,0.0,0.0,0.0,0.0,0.0,0.0,0.0,0.0,0.0,0.0,0.0,0.0,0.0,0.0,0.0,0.0,0.0,0.0,0.0,0.0,0.0,0.0,0.0,0.0,0.0,0.0,0.0,0.0,0.0,0.0,0.0,0.0,0.0,0.0,0.0,0.0,0.0,0.0,0.0,0.0,0.0,0.0,0.0,0.0,0.0,0.0,0.0,0.0,0.0,0.0,0.0,0.0,0.0,0.0,0.0,0.0,0.0,0.0,0.0,0.0,0.0,0.0,0.0,0.0,0.0,0.0,0.0,0.0,0.0,0.0,0.0,0.0,0.0,0.0,0.0,0.0,0.0,0.0,0.0,0.0,0.0,0.0,0.0,0.0,0.0,0.0,0.0,0.0,0.0,0.0,0.0,0.0,0.0,0.0,0.0,0.0,0.0,0.0,0.0,0.0,0.0,0.0,0.0,0.0,0.0,0.0,0.0,0.0,0.0,0.0,0.0,0.0,0.0,0.0,0.0,0.0,0.0,0.0,0.0,0.0,0.0,0.0,0.0,0.0,0.0,0.0,0.0,0.0,0.0,0.0,0.0,0.0,0.0,0.0,0.0,0.0,0.0,0.0,0.0,0.0,0.0,0.0,0.0,0.0,0.0,0.0,0.0,0.0,0.0,0.0,0.0,0.0,0.0,0.0,0.0,0.0,0.0,0.0,0.0,0.0,0.0,0.0,0.0,0.0,0.0,0.0,0.0,0.0,0.0,0.0,0.0,0.0,0.0,0.0,0.0,0.0,0.0,0.0,0.0,0.0,0.0,0.0,0.0,0.0,0.0,0.0,0.0,0.0,0.0,0.0,0.0,0.0,0.0,0.0,0.0,0.0,0.0,0.0,0.0,0.0,0.0,0.0,0.0,0.0,0.0,0.0,0.0,0.0,0.0,0.0,0.0,0.0,0.0,0.0,0.0,0.0,0.0,0.0,0.0,0.0,0.0,0.0,0.0,0.0,0.0,0.0,0.0,0.0,0.0,0.0,0.0,0.0,0.0,0.0,0.0,0.0,0.0,0.0,0.0,0.0,0.0,0.0,0.0,0.0,0.0,0.0,0.0,0.0,0.0,0.0,0.0,0.0,0.0,0.0,0.0,0.0,0.0,0.0,0.0,0.0,0.0,0.0,0.0,0.0,0.0,0.0,0.0,0.0,0.0,0.0,0.0,0.0,0.0,0.0,0.0,0.0,0.0,0.0,0.0,0.0,0.0,0.0,0.0,0.0,0.0,0.0,0.0,0.0,0.0,0.0,0.0,0.0,0.0,0.0,0.0,0.0,0.0,0.0,0.0,0.0,0.0,0.0,0.0,0.0,0.0,0.0,0.0,0.0,0.0,0.0,0.0,0.0,0.0,0.0,0.0,0.0,0.0,0.0,0.0,0.0,0.0,0.0,0.0,0.0,0.0,0.0,0.0,0.0,0.0,0.0,0.0,0.0,0.0,0.0,0.0,0.0,0.0,0.0,0.0,0.0,0.0,0.0,0.0,0.0,0.0,0.0,0.0,0.0,0.0,0.0,0.0,0.0,0.0,0.0,0.0,0.0,0.0,0.0,0.0,0.0,0.0,0.0,0.0,0.0,0.0,0.0,0.0,0.0,0.0,0.0,0.0,0.0,0.0,0.0,0.0,0.0,0.0,0.0,0.0,0.0,0.0,0.0,0.0,0.0,0.0,0.0,0.0,0.0,0.0,0.0,0.0,0.0,0.0,0.0,0.0,0.0,0.0,0.0,0.0,0.0,0.0,0.0,0.0,0.0,0.0,0.0,0.0,0.0,0.0,0.0,0.0,0.0,0.0,0.0,0.0,0.0,0.0,0.0,0.0,0.0,0.0,0.0,0.0,0.0,0.0,0.0,0.0,0.0,0.0,0.0,0.0,0.0,0.0,0.0,0.0,0.0,0.0,0.0,0.0,0.0,0.0,0.0,0.0,0.0,0.0,0.0,0.0,0.0,0.0,0.0,0.0,0.0,0.0,0.0,0.0,0.0,0.0,0.0,0.0,0.0,0.0,0.0,0.0,0.0,0.0,0.0,0.0,0.0,0.0,0.0,0.0,0.0,0.0,0.0,0.0,0.0,0.0,0.0,0.0,0.0,0.0,0.0,0.0,0.0,0.0,0.0,0.0,0.0,0.0,0.0,0.0,0.0,0.0,0.0,0.0,0.0,0.0,0.0,0.0,0.0,0.0,0.0,0.0,0.0,0.0,0.0,0.0,0.0,0.0,0.0,0.0,0.0,0.0,0.0,0.0,0.0,0.0,0.0,0.0,0.0,0.0,0.0,0.0,0.0,0.0,0.0,0.0,0.0,0.0,0.0,0.0,0.0,0.0,0.0,0.0,0.0,0.0,0.0,0.0,0.0,0.0,0.0,0.0,0.0,0.0,0.0,0.0,0.0,0.0,0.0,0.0,0.0,0.0,0.0,0.0,0.0,0.0,0.0,0.0,0.0,0.0,0.0,0.0,0.0,0.0,0.0,0.0,0.0,0.0,0.0,0.0,0.0,0.0,0.0,0.0,0.0,0.0,0.0,0.0,0.0,0.0,0.0,0.0,0.0,0.0,0.0,0.0,0.0,0.0,0.0,0.0,0.0,0.0,0.0,0.0,0.0,0.0,0.0,0.0,0.0,0.0,0.0,0.0,0.0,0.0,0.0,0.0,0.0,0.0,0.0,0.0,0.0,0.0,0.0,0.0,0.0,0.0,0.0,0.0,0.0,0.0,0.0,0.0,0.0,0.0,0.0,0.0,0.0,0.0,0.0,0.0,0.0,0.0,0.0,0.0,0.0,0.0,0.0,0.0,0.0,0.0,0.0,0.0,0.0,0.0,0.0,0.0,0.0,1.1774,0.0,0.0,0.0,0.0,0.0,0.0,0.0,0.0,0.0,0.0,0.0,0.0,0.0,0.0,0.0,0.0,0.0,0.0,0.0,0.0,0.0,0.0,0.0,0.0,0.0,0.0,0.0,0.0,0.0,0.0,0.0,0.0,0.0,0.0,0.0,0.0,0.0,0.0,0.0,0.0,0.0,0.0,0.0,0.0,0.0,0.0,0.0,0.0,0.0,0.0,0.0,0.0,0.0,0.0,0.0,0.0,0.0,0.0,0.0,0.0,0.0,0.0,0.0,0.0,0.0,0.0,0.0,0.0,0.0,0.0,0.0,0.0,0.0,0.0,0.0,0.0,0.0,0.0,0.0,0.0,0.0,0.0,0.0,0.0,0.0,0.0,0.0,0.0,0.0,0.0,0.0,0.0,0.0,0.0,0.0,0.0,0.0,0.0,0.0,0.0,0.0,0.0,0.0,0.0,0.0,0.0,0.0,0.0,0.0,0.0,1.0835,1.1216,1.1135,1.1322,1.1789,0.0,0.0,0.0,0.0,0.0,0.0,0.0,0.0,0.0,0.0,0.0,0.0,0.0,0.0,0.0,0.0,0.0,0.0,0.0,0.0,0.0,0.0,0.0,0.0,0.0,0.0,0.0,0.0,0.0,0.0,0.0,0.0,0.0,0.0,0.0,0.0,0.0,0.0,0.0,0.0,0.0,0.0,0.0,0.0,0.0,0.0,0.0,0.0,0.0,0.0,0.0,0.0,0.0,0.0,0.0,0.0,0.0,0.0,0.0,0.0,0.0,0.0,0.0,0.0,0.0,0.0,0.0,0.0,0.0,0.0,0.0,0.0,0.0,0.0,0.0,0.0,0.0,0.0,0.0,0.0,0.0,0.0,0.0,0.0,0.0,0.0,0.0,0.0,0.0,0.0,0.0,0.0,0.0,0.0,0.0,0.0,0.0,0.0,0.0,0.0,0.0,0.0,0.0,0.0,0.0,0.0,0.0,0.0,0.0,0.0,0.0,0.0,1.1412,1.1598,1.2066,0.0,0.0,0.0,0.0,0.0,0.0,0.0,0.0,0.0,0.0,0.0,0.0,0.0,0.0,0.0,0.0,0.0,0.0,0.0,0.0,0.0,0.0,0.0,0.0,0.0,0.0,0.0,0.0,0.0,0.0,0.0,0.0,0.0,0.0,0.0,0.0,0.0,0.0,0.0,0.0,0.0,0.0,0.0,0.0,0.0,0.0,0.0,0.0,0.0,0.0,0.0,0.0,0.0,0.0,0.0,0.0,0.0,0.0,0.0,0.0,0.0,0.0,0.0,0.0,0.0,0.0,0.0,0.0,0.0,0.0,0.0,0.0,0.0,0.0,0.0,0.0,0.0,0.0,0.0,0.0,0.0,0.0,0.0,0.0,0.0,0.0,0.0,0.0,0.0,0.0,0.0,0.0,0.0,0.0,0.0,0.0,0.0,0.0,0.0,0.0,0.0,0.0,0.0,0.0,0.0,0.0,0.0,0.0,0.0,0.0,1.1727,1.2614,1.2408,0.0,1.2892,0.0,0.0,0.0,0.0,0.0,0.0,0.0,0.0,0.0,0.0,0.0,0.0,0.0,0.0,0.0,0.0,0.0,0.0,0.0,0.0,0.0,0.0,0.0,0.0,0.0,0.0,0.0,0.0,0.0,0.0,0.0,0.0,0.0,0.0,0.0,0.0,0.0,0.0,0.0,0.0,0.0,0.0,0.0,0.0,0.0,0.0,0.0,0.0,0.0,0.0,0.0,0.0,0.0,0.0,0.0,0.0,0.0,0.0,0.0,0.0,0.0,0.0,0.0,0.0,0.0,0.0,0.0,0.0,0.0,0.0,0.0,0.0,0.0,0.0,0.0,0.0,0.0,0.0,0.0,0.0,0.0,0.0,0.0,0.0,0.0,0.0,0.0,0.0,0.0,0.0,0.0,0.0,0.0,0.0,0.0,0.0,0.0,0.0,0.0,0.0,0.0,0.0,0.0,0.0,0.0,0.0,0.0,0.0,0.0,0.0,1.1836,1.2369,1.2558,1.2719,0.0,0.0,0.0,0.0,0.0,0.0,0.0,0.0,0.0,0.0,0.0,0.0,0.0,0.0,0.0,0.0,0.0,0.0,0.0,0.0,0.0,0.0,0.0,0.0,0.0,0.0,0.0,0.0,0.0,0.0,0.0,0.0,0.0,0.0,0.0,0.0,0.0,0.0,0.0,0.0,0.0,0.0,0.0,0.0,0.0,0.0,0.0,0.0,0.0,0.0,0.0,0.0,0.0,0.0,0.0,0.0,0.0,0.0,0.0,0.0,0.0,0.0,0.0,0.0,0.0,0.0,0.0,0.0,0.0,0.0,0.0,0.0,0.0,0.0,0.0,0.0,0.0,0.0,0.0,0.0,0.0,0.0,0.0,0.0,0.0,0.0,0.0,0.0,0.0,0.0,0.0,0.0,0.0,0.0,0.0,0.0,0.0,0.0,0.0,0.0,0.0,0.0,0.0,0.0,0.0,0.0,0.0,0.0,0.0,0.0,1.1852,1.219,1.2571,1.2905,1.3011,1.2833,0.0,0.0,0.0,0.0,0.0,0.0,0.0,0.0,0.0,0.0,0.0,0.0,0.0,0.0,0.0,0.0,0.0,0.0,0.0,0.0,0.0,0.0,0.0,0.0,0.0,0.0,0.0,0.0,0.0,0.0,0.0,0.0,0.0,0.0,0.0,0.0,0.0,0.0,0.0,0.0,0.0,0.0,0.0,0.0,0.0,0.0,0.0,0.0,0.0,0.0,0.0,0.0,0.0,0.0,0.0,0.0,0.0,0.0,0.0,0.0,0.0,0.0,0.0,0.0,0.0,0.0,0.0,0.0,0.0,0.0,0.0,0.0,0.0,0.0,0.0,0.0,0.0,0.0,0.0,0.0,0.0,0.0,0.0,0.0,0.0,0.0,0.0,0.0,0.0,0.0,0.0,0.0,0.0,0.0,0.0,0.0,0.0,0.0,0.0,0.0,0.0,0.0,0.0,0.0,0.0,0.0,0.0,0.0,1.3519,1.3058,1.307,1.3714,1.3746,1.3496,0.0,0.0,0.0,0.0,0.0,0.0,0.0,0.0,0.0,0.0,0.0,0.0,0.0,0.0,0.0,0.0,0.0,0.0,0.0,0.0,0.0,0.0,0.0,0.0,0.0,0.0,0.0,0.0,0.0,0.0,0.0,0.0,0.0,0.0,0.0,0.0,0.0,0.0,0.0,0.0,0.0,0.0,0.0,0.0,0.0,0.0,0.0,0.0,0.0,0.0,0.0,0.0,0.0,0.0,0.0,0.0,0.0,0.0,0.0,0.0,0.0,0.0,0.0,0.0,0.0,0.0,0.0,0.0,0.0,0.0,0.0,0.0,0.0,0.0,0.0,0.0,0.0,0.0,0.0,0.0,0.0,0.0,0.0,0.0,0.0,0.0,0.0,0.0,0.0,0.0,0.0,0.0,0.0,0.0,0.0,0.0,0.0,0.0,0.0,0.0,0.0,0.0,0.0,0.0,0.0,0.0,0.0,0.0,0.0,1.2882,1.3498,1.4232,1.5028,1.4669,1.4346,0.0,0.0,0.0,0.0,0.0,0.0,0.0,0.0,0.0,0.0,0.0,0.0,0.0,0.0,0.0,0.0,0.0,0.0,0.0,0.0,0.0,0.0,0.0,0.0,0.0,0.0,0.0,0.0,0.0,0.0,0.0,0.0,0.0,0.0,0.0,0.0,0.0,0.0,0.0,0.0,0.0,0.0,0.0,0.0,0.0,0.0,0.0,0.0,0.0,0.0,0.0,0.0,0.0,0.0,0.0,0.0,0.0,0.0,0.0,0.0,0.0,0.0,0.0,0.0,0.0,0.0,0.0,0.0,0.0,0.0,0.0,0.0,0.0,0.0,0.0,0.0,0.0,0.0,0.0,0.0,0.0,0.0,0.0,0.0,0.0,0.0,0.0,0.0,0.0,0.0,0.0,0.0,0.0,0.0,0.0,0.0,0.0,0.0,0.0,0.0,0.0,0.0,0.0,0.0,0.0,0.0,0.0,0.0,0.0,1.3186,0.0,1.4895,1.5453,1.507,1.4739,0.0,0.0,0.0,0.0,0.0,0.0,0.0,0.0,0.0,0.0,0.0,0.0,0.0,0.0,0.0,0.0,0.0,0.0,0.0,0.0,0.0,0.0,0.0,0.0,0.0,0.0,0.0,0.0,0.0,0.0,0.0,0.0,0.0,0.0,0.0,0.0,0.0,0.0,0.0,0.0,0.0,0.0,0.0,0.0,0.0,0.0,0.0,0.0,0.0,0.0,0.0,0.0,0.0,0.0,0.0,0.0,0.0,0.0,0.0,0.0,0.0,0.0,0.0,0.0,0.0,0.0,0.0,0.0,0.0,0.0,0.0,0.0,0.0,0.0,0.0,0.0,0.0,0.0,0.0,0.0,0.0,0.0,0.0,0.0,0.0,0.0,0.0,0.0,0.0,0.0,0.0,0.0,0.0,0.0,0.0,0.0,0.0,0.0,0.0,0.0,0.0,0.0,0.0,0.0,0.0,0.0,0.0,0.0,1.3524,1.4801,1.4972,1.5063,1.495,1.4974,1.4625,0.0,0.0,0.0,0.0,0.0,0.0,0.0,0.0,0.0,0.0,0.0,0.0,0.0,0.0,0.0,0.0,0.0,0.0,0.0,0.0,0.0,0.0,0.0,0.0,0.0,0.0,0.0,0.0,0.0,0.0,0.0,0.0,0.0,0.0,0.0,0.0,0.0,0.0,0.0,0.0,0.0,0.0,0.0,0.0,0.0,0.0,0.0,0.0,0.0,0.0,0.0,0.0,0.0,0.0,0.0,0.0,0.0,0.0,0.0,0.0,0.0,0.0,0.0,0.0,0.0,0.0,0.0,0.0,0.0,0.0,0.0,0.0,0.0,0.0,0.0,0.0,0.0,0.0,0.0,0.0,0.0,0.0,0.0,0.0,0.0,0.0,0.0,0.0,0.0,0.0,0.0,0.0,0.0,0.0,0.0,0.0,0.0,0.0,0.0,0.0,0.0,0.0,0.0,0.0,0.0,0.0,0.0,0.0,0.0,1.4875,1.585,1.6355,1.6261,1.5873,1.5794,0.0,0.0,0.0,0.0,0.0,0.0,0.0,0.0,0.0,0.0,0.0,0.0,0.0,0.0,0.0,0.0,0.0,0.0,0.0,0.0,0.0,0.0,0.0,0.0,0.0,0.0,0.0,0.0,0.0,0.0,0.0,0.0,0.0,0.0,0.0,0.0,0.0,0.0,0.0,0.0,0.0,0.0,0.0,0.0,0.0,0.0,0.0,0.0,0.0,0.0,0.0,0.0,0.0,0.0,0.0,0.0,0.0,0.0,0.0,0.0,0.0,0.0,0.0,0.0,0.0,0.0,0.0,0.0,0.0,0.0,0.0,0.0,0.0,0.0,0.0,0.0,0.0,0.0,0.0,0.0,0.0,0.0,0.0,0.0,0.0,0.0,0.0,0.0,0.0,0.0,0.0,0.0,0.0,0.0,0.0,0.0,0.0,0.0,0.0,0.0,0.0,0.0,0.0,0.0,0.0,0.0,0.0,0.0,0.0,1.6095,1.722,1.7685,1.7364,1.6984,1.6747,1.6656,0.0,0.0,0.0,0.0,0.0,0.0,0.0,0.0,0.0,0.0,0.0,0.0,0.0,0.0,0.0,0.0,0.0,0.0,0.0,0.0,0.0,0.0,0.0,0.0,0.0,0.0,0.0,0.0,0.0,0.0,0.0,0.0,0.0,0.0,0.0,0.0,0.0,0.0,0.0,0.0,0.0,0.0,0.0,0.0,0.0,0.0,0.0,0.0,0.0,0.0,0.0,0.0,0.0,0.0,0.0,0.0,0.0,0.0,0.0,0.0,0.0,0.0,0.0,0.0,0.0,0.0,0.0,0.0,0.0,0.0,0.0,0.0,0.0,0.0,0.0,0.0,0.0,0.0,0.0,0.0,0.0,0.0,0.0,0.0,0.0,0.0,0.0,0.0,0.0,0.0,0.0,0.0,0.0,0.0,0.0,0.0,0.0,0.0,0.0,0.0,0.0,0.0,0.0,0.0,0.0,0.0,0.0,0.0,1.8149,1.9036,1.913,1.8312,1.8167,1.7517,0.0,0.0,0.0,0.0,0.0,0.0,0.0,0.0,0.0,0.0,0.0,0.0,0.0,0.0,0.0,0.0,0.0,0.0,0.0,0.0,0.0,0.0,0.0,0.0,0.0,0.0,0.0,0.0,0.0,0.0,0.0,0.0,0.0,0.0,0.0,0.0,0.0,0.0,0.0,0.0,0.0,0.0,0.0,0.0,0.0,0.0,0.0,0.0,0.0,0.0,0.0,0.0,0.0,0.0,0.0,0.0,0.0,0.0,0.0,0.0,0.0,0.0,0.0,0.0,0.0,0.0,0.0,0.0,0.0,0.0,0.0,0.0,0.0,0.0,0.0,0.0,0.0,0.0,0.0,0.0,0.0,0.0,0.0,0.0,0.0,0.0,0.0,0.0,0.0,0.0,0.0,0.0,0.0,0.0,0.0,0.0,0.0,0.0,0.0,0.0,0.0,0.0,0.0,0.0,0.0,0.0,0.0,0.0,0.0,1.9681,2.1341,2.1649,2.0417,1.8949,1.8276,0.0,0.0,0.0,0.0,0.0,0.0,0.0,0.0,0.0,0.0,0.0,0.0,0.0,0.0,0.0,0.0,0.0,0.0,0.0,0.0,0.0,0.0,0.0,0.0,0.0,0.0,0.0,0.0,0.0,0.0,0.0,0.0,0.0,0.0,0.0,0.0,0.0,0.0,0.0,0.0,0.0,0.0,0.0,0.0,0.0,0.0,0.0,0.0,0.0,0.0,0.0,0.0,0.0,0.0,0.0,0.0,0.0,0.0,0.0,0.0,0.0,0.0,0.0,0.0,0.0,0.0,0.0,0.0,0.0,0.0,0.0,0.0,0.0,0.0,0.0,0.0,0.0,0.0,0.0,0.0,0.0,0.0,0.0,0.0,0.0,0.0,0.0,0.0,0.0,0.0,0.0,0.0,0.0,0.0,0.0,0.0,0.0,0.0,0.0,0.0,0.0,0.0,0.0,0.0,0.0,0.0,0.0,0.0,2.0005,2.0663,2.2651,2.3333,2.2526,2.0567,1.9285,0.0,0.0,0.0,0.0,0.0,0.0,0.0,0.0,0.0,0.0,0.0,0.0,0.0,0.0,0.0,0.0,0.0,0.0,0.0,0.0,0.0,0.0,0.0,0.0,0.0,0.0,0.0,0.0,0.0,0.0,0.0,0.0,0.0,0.0,0.0,0.0,0.0,0.0,0.0,0.0,0.0,0.0,0.0,0.0,0.0,0.0,0.0,0.0,0.0,0.0,0.0,0.0,0.0,0.0,0.0,0.0,0.0,0.0,0.0,0.0,0.0,0.0,0.0,0.0,0.0,0.0,0.0,0.0,0.0,0.0,0.0,0.0,0.0,0.0,0.0,0.0,0.0,0.0,0.0,0.0,0.0,0.0,0.0,0.0,0.0,0.0,0.0,0.0,0.0,0.0,0.0,0.0,0.0,0.0,0.0,0.0,0.0,0.0,0.0,0.0,0.0,0.0,0.0,0.0,0.0,0.0,0.0,0.0,2.0663,2.1411,2.3286,2.4292,2.4246,2.2342,2.0439,0.0,0.0,0.0,0.0,0.0,0.0,0.0,0.0,0.0,0.0,0.0,0.0,0.0,0.0,0.0,0.0,0.0,0.0,0.0,0.0,0.0,0.0,0.0,0.0,0.0,0.0,0.0,0.0,0.0,0.0,0.0,0.0,0.0,0.0,0.0,0.0,0.0,0.0,0.0,0.0,0.0,0.0,0.0,0.0,0.0,0.0,0.0,0.0,0.0,0.0,0.0,0.0,0.0,0.0,0.0,0.0,0.0,0.0,0.0,0.0,0.0,0.0,0.0,0.0,0.0,0.0,0.0,0.0,0.0,0.0,0.0,0.0,0.0,0.0,0.0,0.0,0.0,0.0,0.0,0.0,0.0,0.0,0.0,0.0,0.0,0.0,0.0,0.0,0.0,0.0,0.0,0.0,0.0,0.0,0.0,0.0,0.0,0.0,0.0,0.0,0.0,0.0,0.0,0.0,0.0,0.0,0.0,0.0,2.1409,2.2089,2.3558,2.4281,2.4292,2.2342,2.1103,0.0,0.0,0.0,0.0,0.0,0.0,0.0,0.0,0.0,0.0,0.0,0.0,0.0,0.0,0.0,0.0,0.0,0.0,0.0,0.0,0.0,0.0,0.0,0.0,0.0,0.0,0.0,0.0,0.0,0.0,0.0,0.0,0.0,0.0,0.0,0.0,0.0,0.0,0.0,0.0,0.0,0.0,0.0,0.0,0.0,0.0,0.0,0.0,1.5372,0.0,0.0,0.0,0.0,0.0,0.0,0.0,0.0,0.0,0.0,0.0,0.0,0.0,0.0,0.0,0.0,0.0,0.0,0.0,0.0,0.0,0.0,0.0,0.0,0.0,0.0,0.0,0.0,0.0,0.0,0.0,0.0,0.0,0.0,0.0,0.0,0.0,0.0,0.0,0.0,0.0,0.0,0.0,0.0,0.0,0.0,0.0,0.0,0.0,0.0,0.0,0.0,0.0,0.0,0.0,0.0,0.0,0.0,0.0,2.175,2.2757,2.3779,2.4281,2.4246,2.2948,2.1951,0.0,0.0,0.0,0.0,0.0,0.0,0.0,0.0,0.0,0.0,0.0,0.0,0.0,0.0,0.0,0.0,0.0,0.0,0.0,0.0,0.0,0.0,0.0,0.0,0.0,0.0,0.0,0.0,0.0,0.0,0.0,0.0,0.0,0.0,0.0,0.0,0.0,0.0,0.0,0.0,0.0,0.0,0.0,0.0,0.0,0.0,0.0,0.0,0.0,0.0,0.0,0.0,0.0,0.0,0.0,0.0,0.0,0.0,0.0,0.0,0.0,0.0,0.0,0.0,0.0,0.0,0.0,0.0,0.0,0.0,0.0,0.0,0.0,0.0,0.0,0.0,0.0,0.0,0.0,0.0,0.0,0.0,0.0,0.0,0.0,0.0,0.0,0.0,0.0,0.0,0.0,0.0,0.0,0.0,0.0,0.0,0.0,0.0,0.0,0.0,0.0,0.0,0.0,0.0,0.0,0.0,0.0,2.0924,2.2204,2.3553,2.4271,2.4625,2.4599,2.3953,2.2988,2.1658,0.0,0.0,0.0,0.0,0.0,0.0,0.0,0.0,0.0,0.0,0.0,0.0,0.0,0.0,0.0,0.0,0.0,0.0,0.0,0.0,0.0,0.0,0.0,0.0,0.0,0.0,0.0,0.0,0.0,0.0,0.0,0.0,0.0,0.0,0.0,0.0,0.0,0.0,1.4358,1.4999,0.0,0.0,0.0,0.0,0.0,0.0,0.0,0.0,1.7448,0.0,0.0,0.0,0.0,0.0,0.0,0.0,0.0,0.0,0.0,0.0,0.0,0.0,0.0,0.0,0.0,0.0,0.0,0.0,0.0,0.0,0.0,0.0,0.0,0.0,0.0,0.0,0.0,0.0,0.0,0.0,0.0,0.0,0.0,0.0,0.0,0.0,0.0,0.0,0.0,0.0,0.0,0.0,0.0,0.0,0.0,0.0,0.0,0.0,0.0,0.0,0.0,0.0,0.0,0.0,0.0,2.1781,2.2569,2.3605,2.4938,2.5687,2.6057,2.6037,2.5349,2.4348,2.2973,0.0,0.0,0.0,0.0,0.0,0.0,0.0,0.0,0.0,0.0,0.0,0.0,0.0,0.0,0.0,0.0,0.0,0.0,0.0,0.0,0.0,0.0,0.0,0.0,0.0,0.0,0.0,0.0,0.0,0.0,0.0,0.0,0.0,0.0,0.0,0.0,0.0,0.0,0.0,1.7264,1.7787,0.0,0.0,0.0,0.0,0.0,0.0,0.0,0.0,1.8416,0.0,0.0,0.0,0.0,0.0,0.0,0.0,0.0,0.0,0.0,0.0,0.0,0.0,0.0,0.0,0.0,0.0,0.0,0.0,0.0,0.0,0.0,0.0,0.0,0.0,0.0,0.0,0.0,0.0,0.0,0.0,0.0,0.0,0.0,0.0,0.0,0.0,0.0,0.0,0.0,0.0,0.0,0.0,0.0,0.0,0.0,0.0,0.0,0.0,0.0,0.0,0.0,0.0,0.0,0.0,2.2259,2.3656,2.483,2.5841,2.6222,2.6391,2.6334,2.5338,2.4307,0.0,0.0,0.0,0.0,0.0,0.0,0.0,0.0,0.0,0.0,0.0,0.0,0.0,0.0,0.0,0.0,0.0,0.0,0.0,0.0,0.0,0.0,0.0,0.0,0.0,0.0,0.0,0.0,0.0,0.0,0.0,0.0,0.0,0.0,0.0,0.0,0.0,0.0,0.0,0.0,1.8334,1.893,2.0482,0.0,0.0,0.0,0.0,0.0,0.0,1.9871,1.9541,0.0,0.0,0.0,0.0,0.0,0.0,0.0,0.0,0.0,0.0,0.0,0.0,0.0,0.0,0.0,0.0,0.0,0.0,0.0,0.0,0.0,0.0,0.0,0.0,0.0,0.0,0.0,0.0,0.0,0.0,0.0,0.0,0.0,0.0,0.0,0.0,0.0,0.0,0.0,0.0,0.0,0.0,0.0,0.0,0.0,0.0,0.0,0.0,0.0,0.0,0.0,0.0,0.0,0.0,0.0,2.2521,2.4615,2.6076,2.6776,2.7069,2.7196,2.7095,2.5692,2.4559,0.0,0.0,0.0,0.0,0.0,0.0,0.0,0.0,0.0,0.0,0.0,0.0,0.0,0.0,0.0,0.0,0.0,0.0,0.0,0.0,0.0,0.0,0.0,0.0,0.0,0.0,0.0,0.0,0.0,0.0,0.0,0.0,0.0,0.0,0.0,0.0,0.0,0.0,0.0,0.0,0.0,2.008,2.1897,2.0972,0.0,0.0,0.0,0.0,2.1318,2.1141,0.0,0.0,0.0,0.0,0.0,0.0,0.0,0.0,0.0,0.0,0.0,0.0,0.0,0.0,0.0,0.0,0.0,0.0,0.0,0.0,0.0,0.0,0.0,0.0,0.0,0.0,0.0,0.0,0.0,0.0,0.0,0.0,0.0,0.0,0.0,0.0,0.0,0.0,0.0,0.0,0.0,0.0,0.0,0.0,0.0,0.0,0.0,0.0,0.0,0.0,0.0,0.0,0.0,0.0,0.0,0.0,2.3194,2.5821,2.7473,2.8181,2.931,2.9925,2.9894,2.8057,2.6426,0.0,0.0,0.0,0.0,0.0,0.0,0.0,0.0,0.0,0.0,0.0,0.0,0.0,0.0,0.0,0.0,0.0,0.0,0.0,0.0,0.0,0.0,0.0,0.0,0.0,0.0,0.0,0.0,0.0,0.0,0.0,0.0,0.0,0.0,0.0,0.0,0.0,0.0,0.0,0.0,0.0,2.1863,2.2989,2.2066,2.1305,0.0,0.0,2.2184,2.2543,2.298,0.0,0.0,0.0,0.0,0.0,0.0,0.0,0.0,0.0,0.0,0.0,0.0,0.0,0.0,0.0,0.0,0.0,0.0,0.0,0.0,0.0,0.0,0.0,0.0,0.0,0.0,0.0,0.0,0.0,0.0,0.0,0.0,0.0,0.0,0.0,0.0,0.0,0.0,0.0,0.0,0.0,0.0,0.0,0.0,0.0,0.0,0.0,0.0,0.0,0.0,0.0,0.0,0.0,0.0,0.0,2.2819,2.4461,2.7507,2.9233,2.955,3.047,3.0927,3.0854,2.8563,2.6833,0.0,0.0,0.0,0.0,0.0,0.0,0.0,0.0,0.0,0.0,0.0,0.0,0.0,0.0,0.0,0.0,0.0,0.0,0.0,0.0,0.0,0.0,0.0,0.0,0.0,0.0,0.0,0.0,0.0,0.0,0.0,0.0,0.0,0.0,0.0,0.0,0.0,0.0,0.0,0.0,0.0,0.0,2.3417,2.2832,0.0,0.0,0.0,2.307,2.353,0.0,0.0,0.0,0.0,0.0,0.0,0.0,0.0,0.0,0.0,0.0,0.0,0.0,0.0,0.0,0.0,0.0,0.0,0.0,0.0,0.0,0.0,0.0,0.0,0.0,0.0,0.0,0.0,0.0,0.0,0.0,0.0,0.0,0.0,0.0,0.0,0.0,0.0,0.0,0.0,0.0,0.0,0.0,0.0,0.0,0.0,0.0,0.0,0.0,0.0,0.0,0.0,0.0,0.0,0.0,0.0,0.0,2.5353,2.8965,3.0866,3.0866,3.1636,3.2017,3.187,2.9685,0.0,0.0,0.0,0.0,0.0,0.0,0.0,0.0,0.0,0.0,0.0,0.0,0.0,0.0,0.0,0.0,0.0,0.0,0.0,0.0,0.0,0.0,0.0,0.0,0.0,0.0,0.0,1.2766,0.0,0.0,0.0,0.0,0.0,0.0,0.0,0.0,0.0,0.0,0.0,0.0,0.0,0.0,2.3589,2.3887,2.3957,2.4239,0.0,0.0,2.4345,2.4778,2.6008,2.6036,0.0,0.0,0.0,0.0,0.0,0.0,0.0,0.0,0.0,0.0,0.0,0.0,0.0,0.0,0.0,0.0,0.0,0.0,0.0,0.0,0.0,0.0,0.0,0.0,0.0,0.0,0.0,0.0,0.0,0.0,0.0,0.0,0.0,0.0,0.0,0.0,0.0,0.0,0.0,0.0,0.0,0.0,0.0,0.0,0.0,0.0,0.0,0.0,0.0,0.0,0.0,0.0,0.0,0.0,0.0,2.5426,2.9774,3.2076,3.2104,3.3213,3.3815,3.3783,3.2429,3.0243,0.0,0.0,0.0,0.0,0.0,0.0,0.0,0.0,0.0,0.0,0.0,0.0,0.0,0.0,0.0,0.0,0.0,0.0,0.0,0.0,0.0,0.0,0.0,0.0,0.0,0.0,0.0,0.0,0.0,0.0,0.0,0.0,0.0,0.0,0.0,0.0,0.0,0.0,0.0,0.0,0.0,2.4708,2.4552,2.5688,2.6579,0.0,0.0,2.6568,2.661,2.7598,2.7469,2.4869,0.0,0.0,0.0,0.0,0.0,0.0,0.0,0.0,0.0,0.0,0.0,0.0,0.0,0.0,0.0,0.0,0.0,0.0,0.0,0.0,0.0,0.0,0.0,0.0,0.0,0.0,0.0,0.0,0.0,0.0,0.0,0.0,0.0,0.0,0.0,0.0,0.0,0.0,0.0,0.0,0.0,0.0,0.0,0.0,0.0,0.0,0.0,0.0,0.0,0.0,0.0,0.0,0.0,2.5767,2.6876,3.0822,3.297,3.3208,3.4064,3.4556,3.4724,3.3472,3.1529,0.0,0.0,0.0,0.0,0.0,0.0,0.0,0.0,0.0,0.0,0.0,0.0,0.0,0.0,0.0,0.0,0.0,0.0,0.0,0.0,0.0,0.0,0.0,0.0,0.0,0.0,0.0,0.0,1.7748,1.7813,1.7,0.0,0.0,0.0,0.0,0.0,0.0,0.0,0.0,0.0,0.0,2.6025,2.6559,2.7341,0.0,0.0,2.84,2.8225,2.8768,2.8958,2.8182,2.5621,2.5006,0.0,0.0,0.0,0.0,0.0,0.0,0.0,0.0,0.0,0.0,0.0,0.0,0.0,0.0,0.0,0.0,0.0,0.0,0.0,0.0,0.0,0.0,0.0,0.0,0.0,0.0,0.0,0.0,0.0,0.0,0.0,0.0,0.0,0.0,0.0,0.0,0.0,0.0,0.0,0.0,0.0,0.0,0.0,0.0,0.0,0.0,0.0,0.0,0.0,0.0,0.0,0.0,2.6814,2.7947,3.1858,3.3977,3.4231,3.4847,3.5243,3.5402,3.4555,3.2943,0.0,0.0,0.0,0.0,0.0,0.0,0.0,0.0,0.0,0.0,0.0,0.0,0.0,0.0,0.0,0.0,0.0,0.0,0.0,0.0,0.0,0.0,0.0,0.0,0.0,0.0,0.0,0.0,1.8976,1.8885,1.7815,0.0,0.0,0.0,0.0,0.0,0.0,0.0,0.0,0.0,0.0,2.7548,2.8206,2.8781,2.941,3.0131,2.9621,2.9359,2.9871,2.9915,2.916,2.7111,0.0,0.0,0.0,0.0,0.0,0.0,0.0,0.0,0.0,0.0,0.0,0.0,0.0,0.0,0.0,0.0,0.0,0.0,0.0,0.0,0.0,0.0,0.0,0.0,0.0,0.0,0.0,0.0,0.0,0.0,1.6624,0.0,0.0,0.0,0.0,0.0,0.0,0.0,0.0,0.0,0.0,0.0,0.0,0.0,0.0,0.0,0.0,0.0,0.0,0.0,0.0,0.0,0.0,2.7609,2.835,3.2826,3.5173,3.5224,3.5717,3.5999,3.5993,3.5952,3.4721,3.2093,0.0,0.0,0.0,0.0,0.0,0.0,0.0,0.0,0.0,0.0,0.0,0.0,0.0,0.0,0.0,0.0,0.0,0.0,0.0,0.0,0.0,0.0,0.0,0.0,0.0,0.0,1.5933,1.7146,1.8336,0.0,0.0,0.0,0.0,0.0,0.0,0.0,0.0,0.0,0.0,2.7136,2.9347,2.9234,3.0032,3.0603,3.0407,3.0163,2.993,2.9723,3.0389,3.0617,0.0,0.0,0.0,0.0,0.0,0.0,0.0,0.0,0.0,0.0,0.0,0.0,0.0,0.0,0.0,0.0,0.0,0.0,0.0,0.0,0.0,0.0,0.0,0.0,0.0,0.0,0.0,1.9455,1.9478,0.0,0.0,0.0,0.0,0.0,0.0,0.0,0.0,0.0,0.0,0.0,2.6104,2.6816,0.0,0.0,0.0,0.0,0.0,0.0,0.0,0.0,0.0,0.0,0.0,0.0,2.8381,3.0116,3.395,3.6365,3.71,3.7296,3.7268,3.7014,3.6997,3.5497,3.233,0.0,0.0,0.0,0.0,0.0,0.0,0.0,0.0,0.0,0.0,0.0,0.0,0.0,0.0,0.0,0.0,0.0,0.0,0.0,0.0,0.0,0.0,0.0,0.0,0.0,1.8299,0.0,0.0,0.0,0.0,0.0,0.0,0.0,0.0,0.0,0.0,0.0,2.5198,2.678,2.8401,2.9733,3.0532,3.1329,3.2109,0.0,0.0,0.0,0.0,0.0,0.0,0.0,0.0,0.0,0.0,0.0,0.0,0.0,0.0,2.7883,2.5549,2.4915,2.4728,2.4728,0.0,0.0,0.0,0.0,0.0,0.0,0.0,0.0,0.0,0.0,0.0,0.0,0.0,0.0,2.1971,0.0,2.2324,0.0,0.0,0.0,0.0,0.0,0.0,0.0,0.0,2.6843,2.8488,2.92,2.9893,3.0104,0.0,2.9637,2.7653,0.0,0.0,0.0,0.0,0.0,0.0,0.0,0.0,2.956,3.177,3.5054,3.7285,3.8208,3.8271,3.8145,3.7887,3.7633,3.6309,3.3762,3.1861,2.9793,0.0,0.0,0.0,0.0,0.0,0.0,0.0,0.0,0.0,0.0,0.0,0.0,0.0,0.0,0.0,0.0,0.0,0.0,0.0,0.0,0.0,0.0,0.0,2.0009,0.0,0.0,0.0,0.0,0.0,0.0,0.0,0.0,0.0,2.3809,2.5651,2.7585,2.9286,3.0252,3.1015,3.1657,0.0,0.0,0.0,0.0,0.0,0.0,0.0,3.1302,3.1011,3.0927,3.0772,3.0301,3.1258,3.1768,3.0705,0.0,0.0,2.862,2.7909,2.7812,2.7996,2.8723,2.9338,2.9352,2.989,3.0274,0.0,0.0,0.0,0.0,0.0,0.0,0.0,0.0,2.4189,2.3807,0.0,2.4193,0.0,0.0,0.0,0.0,0.0,2.5342,0.0,0.0,3.1273,3.2911,3.2963,3.2988,3.3041,3.3024,3.2402,3.1469,3.0345,2.9188,0.0,0.0,0.0,0.0,0.0,0.0,3.1162,3.3366,3.6146,3.7933,3.8663,3.8692,3.8675,3.8623,3.795,3.7208,3.6325,3.3894,3.2161,3.1402,2.7681,0.0,0.0,0.0,0.0,0.0,0.0,0.0,0.0,0.0,0.0,0.0,0.0,0.0,0.0,0.0,0.0,0.0,0.0,0.0,0.0,2.1552,0.0,0.0,0.0,0.0,0.0,0.0,0.0,0.0,0.0,0.0,2.6279,2.8099,3.0001,3.1181,0.0,0.0,0.0,0.0,3.3562,3.2943,3.296,3.3056,3.3101,3.347,3.397,3.459,0.0,0.0,3.4061,3.3895,3.3728,3.3064,3.3601,3.351,3.1604,3.047,2.9929,3.0393,3.085,3.1053,3.1139,3.1957,3.2559,2.8707,0.0,0.0,0.0,0.0,2.5665,2.6512,2.817,2.7693,2.7382,2.7214,2.7726,0.0,0.0,0.0,0.0,0.0,0.0,2.954,3.0332,3.208,3.3749,3.5328,3.5318,3.5887,3.6932,3.6749,3.6483,3.6163,3.5833,3.2351,2.5999,0.0,0.0,0.0,0.0,3.2727,3.4954,3.7688,3.9451,4.021,4.0227,3.9968,3.9416,3.9181,3.8709,3.7974,3.6967,3.5654,3.3996,3.166,0.0,0.0,0.0,0.0,0.0,0.0,0.0,0.0,0.0,0.0,0.0,0.0,0.0,0.0,0.0,0.0,0.0,0.0,0.0,2.268,2.4211,2.4448,0.0,0.0,0.0,0.0,0.0,0.0,0.0,0.0,0.0,3.0076,3.0541,3.0857,0.0,0.0,3.2488,3.1967,3.3265,3.439,3.4666,3.4347,0.0,0.0,3.4228,3.3985,3.4513,3.5093,3.5569,3.5832,3.619,3.6281,3.5813,3.6217,3.6442,3.5869,3.4451,3.3485,3.3584,3.3992,3.4317,3.4378,3.4866,3.5216,3.3725,3.146,3.0146,2.9613,2.9594,2.9205,3.0008,3.1543,3.1147,3.0781,3.0525,3.1025,3.0279,2.8605,2.9006,0.0,0.0,0.0,3.2415,3.3734,3.44,3.5621,3.7146,3.7198,3.7691,3.8588,3.8606,3.8606,3.8606,3.8295,3.5454,3.027,0.0,0.0,3.0164,3.2625,3.4848,3.6767,3.8694,4.0089,4.0865,4.0894,4.052,3.9744,3.971,3.9353,3.8629,3.8406,3.752,3.5853,3.4145,3.189,0.0,0.0,0.0,0.0,0.0,0.0,0.0,0.0,0.0,0.0,0.0,2.2706,0.0,0.0,0.0,0.0,2.4573,2.5031,2.5712,2.6211,0.0,0.0,0.0,0.0,0.0,0.0,0.0,2.803,2.988,3.1461,3.2366,3.2578,3.2622,3.2599,3.3181,3.3421,3.2888,0.0,3.5737,3.5876,3.6014,3.623,3.6615,3.6105,3.5767,3.603,3.6399,3.6828,3.7304,3.7682,3.7803,3.7657,3.7812,3.8013,3.8013,3.7065,3.634,3.634,3.6586,3.6796,3.6812,3.7085,3.7181,3.8192,3.7267,3.3741,3.2622,3.3179,3.3153,3.3576,3.4259,3.4259,3.3845,3.3231,3.3948,3.3137,3.1257,3.1292,0.0,3.3377,3.4121,3.5587,3.7571,3.7571,3.7996,3.8675,3.8675,3.8726,3.8795,3.8778,3.8778,3.8761,3.8134,3.7353,3.6577,3.6559,3.603,3.5012,3.5944,3.7226,3.8657,3.9405,4.0146,4.0865,4.0894,4.0555,3.983,3.9802,3.9485,3.8841,3.8762,3.8262,3.7249,3.5696,3.4033,3.2167,0.0,0.0,0.0,0.0,0.0,0.0,0.0,0.0,0.0,0.0,0.0,0.0,0.0,0.0,0.0,2.7272,0.0,2.9522,2.7922,0.0,0.0,0.0,2.6965,2.8549,2.9697,3.0553,3.1029,0.0,0.0,3.3567,3.4213,3.4906,3.5568,3.5614,3.5352,3.4692,3.6276,3.7353,3.6769,3.7692,3.8462,3.8308,3.8291,3.8229,3.8262,3.8508,3.843,3.8505,3.8567,3.8568,3.8673,3.8644,3.8675,3.8661,3.8626,3.8645,3.8611,3.8506,3.8461,3.8383,3.8384,3.8368,3.8502,3.8261,3.7342,3.6394,3.5508,3.549,3.5594,3.5777,3.5783,3.5663,3.5508,3.569,3.5811,3.5915,3.6484,3.6915,3.7232,3.7439,3.7812,3.833,3.8347,3.8726,3.9434,3.9434,3.9761,4.0313,4.0348,4.0348,4.0331,4.0187,3.9675,3.8933,3.8905,3.7906,3.6079,3.7337,3.8519,3.9422,4.0227,4.0693,4.0894,4.0894,4.0808,4.0624,4.0607,4.052,4.0348,4.0052,3.9616,3.9011,3.8305,3.6793,3.4281,3.1119,0.0,0.0,0.0,0.0,0.0,0.0,0.0,0.0,0.0,2.5329,2.2717,0.0,2.6072,0.0,2.9612,3.1336,3.1659,3.1243,0.0,0.0,3.0367,3.0449,3.1364,3.2626,3.3267,3.2854,3.4093,3.4998,3.4999,3.5599,3.6276,3.6907,3.6569,3.606,3.5642,3.7069,3.8215,3.8077,3.8323,3.8508,3.8554,3.8508,3.8554,3.8508,3.8523,3.8677,3.9184,3.9261,3.9414,3.989,4.003,4.003,4.0013,4.003,4.003,3.9953,3.9214,3.8508,3.8508,3.8523,3.8523,3.9623,3.9623,3.9623,3.9123,3.8284,3.7622,3.7318,3.7318,3.7329,3.7329,3.7318,3.7346,3.7571,3.8019,3.8416,3.8767,3.9089,3.9089,3.9267,3.9606,3.9606,3.9848,4.0227,4.0227,4.048,4.0894,4.0894,4.0894,4.0894,4.0894,4.0676,4.0244,4.0215,3.9606,3.8416,3.8519,3.8801,3.9227,3.9968,4.0538,4.0883,4.0894,4.0567,3.9899,3.9865,3.9554,3.8882,3.8648,3.8241,3.7681,3.7318,3.628,3.4396,3.1702,2.935,0.0,0.0,0.0,0.0,0.0,0.0,0.0,0.0,0.0,0.0,0.0,2.7888,2.8288,3.0782,3.2288,3.198,3.1951,3.218,3.2719,3.278,3.3151,3.4106,3.4906,3.5229,3.4829,3.5737,3.6399,3.6415,3.6969,3.7523,3.7891,3.7892,3.7642,3.7218,3.8145,3.8953,3.8938,3.9199,3.9399,3.9399,3.9399,3.9384,3.9399,3.9384,3.9614,4.0291,4.0447,4.0678,4.1276,4.1445,4.143,4.1445,4.1445,4.143,4.1337,4.0845,4.0153,3.9522,3.9399,3.9399,4.0894,4.0894,4.0894,4.0894,4.0808,3.9462,3.8882,3.8899,3.8899,3.8899,3.8882,3.8882,3.8882,3.8899,3.8899,3.9244,3.9853,3.9836,4.0244,4.0883,4.0894,4.0894,4.0894,4.0998,4.105,4.105,4.1153,4.1205,4.1205,4.1205,4.1136,4.105,4.1032,4.0998,4.0843,3.9554,3.8899,3.8899,3.9434,4.0037,4.0722,4.0658,3.9917,3.8554,3.845,3.7795,3.637,3.6284,3.5946,3.5247,3.4975,3.4578,3.3941,3.1709,3.0228,0.0,2.7792,0.0,0.0,0.0,0.0,0.0,0.0,0.0,0.0,2.9676,2.9827,2.9907,3.1597,3.2504,3.2088,3.2071,3.2781,3.452,3.4767,3.5244,3.6338,3.6569,3.6615,3.6646,3.72,3.7631,3.7631,3.8199,3.8614,3.8677,3.9153,3.9307,3.8906,3.9244,3.9645,3.963,4.0199,4.0568,4.0614,4.0689,4.0751,4.0768,4.0784,4.0984,4.1571,4.1694,4.1894,4.2402,4.2509,4.254,4.2602,4.2571,4.2571,4.2509,4.2417,4.203,4.1091,4.0784,4.0784,4.0894,4.0894,4.0894,4.0894,4.0877,4.0584,4.048,4.0469,4.0469,4.0463,4.0469,4.048,4.0463,4.0469,4.0463,4.0549,4.0658,4.0658,4.0745,4.0894,4.0894,4.0894,4.0946,4.1504,4.1797,4.1831,4.2447,4.2758,4.2758,4.2758,4.2447,4.1797,4.1797,4.1486,4.0917,0.0,0.0,0.0,3.9951,3.9784,3.9899,3.9347,3.8606,3.7754,3.7719,0.0,3.6353,3.6284,3.5952,3.5247,3.5138,0.0,0.0,0.0,0.0,0.0,0.0,0.0,0.0,0.0,0.0,0.0,3.145,3.0983,3.0312,3.1213,3.2059,3.2613,3.3551,3.449,3.5445,3.5537,3.5691,3.6061,3.6107,3.6245,3.6492,3.6969,3.7307,3.7323,3.7908,3.8323,3.8369,3.8876,3.9323,3.94,3.9907,4.0228,4.0153,4.0245,4.0307,4.0368,4.097,4.1386,4.1384,4.1832,4.2096,4.2199,4.2199,4.2248,4.2355,4.2399,4.2417,4.2663,4.2602,4.2648,4.2648,4.2602,4.2749,4.2617,4.2651,4.2507,4.2245,4.2217,4.2291,4.0894,0.0,4.0894,4.0894,0.0,4.0894,4.0894,4.0894,4.0894,4.0894,4.0894,4.0894,4.0894,4.0894,4.0894,4.0894,4.0894,4.0894,4.1101,4.1435,4.1447,4.1654,4.2033,4.2401,4.2603,4.262,4.3029,4.3219,4.3219,4.3219,4.3,4.2603,4.2603,4.2413,4.2068,4.2033,4.1654,4.0894,4.0106,3.9899,4.0244,3.9917,3.9203,3.8116,0.0,0.0,0.0,0.0,0.0,0.0,0.0,0.0,0.0,0.0,0.0,3.4226,3.2958,3.2513,3.3187,3.3251,3.3797,3.501,3.4959,3.4229,3.2751,3.3887,3.4817,3.5128,3.5381,3.5829,3.6631,3.6616,3.6492,3.6507,3.6784,3.6999,3.7046,3.76,3.7984,3.8061,3.8568,3.9016,3.9016,3.9584,4.0208,4.0686,4.0921,4.1208,4.1628,4.1353,4.1137,4.1476,4.1817,4.215,4.2344,4.2581,4.2857,4.2842,4.2842,4.2909,4.3054,4.3113,4.3171,4.3498,4.3738,4.3867,4.3903,4.4031,4.4195,4.4177,4.4177,4.4177,4.4112,4.3485,4.288,4.0894,4.0894,4.0894,4.0894,4.0894,4.0894,4.0894,4.0894,0.0,0.0,0.0,4.0894,4.0894,4.0894,4.0894,4.0981,4.109,4.109,4.1516,4.2194,4.2211,4.2556,4.3207,4.334,4.3409,4.3396,4.3534,4.3591,4.3586,4.3591,4.3574,4.3603,4.3574,4.3574,4.3586,4.3465,4.2758,4.1533,4.056,4.0434,4.1072,4.0969,4.0239,3.883,3.8675,3.7939,3.6559,3.637,3.6191,3.5927,3.5538,3.5462,3.5725,3.5029,3.4847,3.5403,3.5103,3.5396,3.6564,3.6675,3.7051,3.7937,3.774,3.6943,3.5446,3.6403,3.7075,3.7075,3.6816,3.677,3.7045,3.6894,3.6754,3.6785,3.7308,3.7677,3.7723,3.8277,3.8676,3.8754,3.9451,3.9962,4.0026,4.0597,4.1254,4.1994,4.1955,4.2144,4.2909,4.2388,4.196,4.2479,4.2765,4.3009,4.3317,4.3579,4.3546,4.3564,4.3533,4.3565,4.3793,4.3905,4.414,4.4657,4.5098,4.5218,4.5308,4.5447,4.5794,4.5812,4.5812,4.5812,4.5699,4.4683,4.3782,4.0912,4.0894,4.0894,4.0894,4.0894,4.0894,4.0894,4.0894,4.0912,4.0912,4.0894,4.0894,4.0894,4.0894,4.0894,4.1245,4.1843,4.1861,4.2275,4.3017,4.3034,4.3098,4.3224,4.3845,4.4138,4.419,4.4785,4.51,4.51,4.5083,4.51,4.507,4.507,4.5083,4.5048,4.4471,4.4052,4.3793,4.2413,4.1728,4.1831,4.121,4.0469,3.9577,3.8968,3.8209,3.7364,3.6725,3.6174,3.591,3.5833,3.6231,3.7105,3.6775,3.707,3.8242,3.8025,3.789,3.8084,3.81,3.8167,3.8319,3.8292,3.7892,3.7134,3.7217,3.7358,3.7344,3.733,3.7283,3.7344,3.7637,3.7795,3.7826,3.8131,3.8354,3.8417,3.9033,3.9465,3.9497,4.0785,4.1704,4.1735,4.2249,4.2685,4.2874,4.2907,4.2924,4.3648,4.3118,4.2672,4.3014,4.359,4.4049,4.4433,4.5027,4.5124,4.495,4.4872,4.4825,4.4855,4.4883,4.5057,4.551,4.5651,4.569,4.5724,4.576,4.5868,4.5887,4.5905,4.5884,4.5887,4.5709,4.5725,4.2154,4.2154,4.2154,4.2137,4.2154,4.2137,4.2154,4.2154,4.2154,4.1671,4.0981,4.1314,4.1504,4.1538,4.1947,4.2327,4.2654,4.2654,4.3069,4.3759,4.3793,4.4022,4.4389,4.4734,4.4889,4.4923,4.5238,4.5414,4.5414,4.5414,4.5414,4.5414,4.5414,4.5414,4.538,4.5048,4.4906,4.4854,4.3418,4.2654,4.2654,4.2327,4.1981,4.159,4.1262,4.0946,4.0601,4.0239,3.979,3.9238,3.901,3.9039,3.9301,3.8724,3.8774,3.9594,3.9077,3.8725,3.8725,3.8502,3.8391,3.8408,3.8764,3.8874,3.8551,3.7993,3.7826,3.8224,3.8106,3.8219,3.875,3.8839,3.8874,3.8874,3.9328,3.9638,3.9763,4.0608,4.1233,4.1327,4.2245,4.2977,4.2959,4.3226,4.3691,4.4147,4.4404,4.4744,4.5007,4.4673,4.4364,4.4542,4.4865,4.5169,4.5522,4.5831,4.5965,4.5803,4.5801,4.571,4.5596,4.5523,4.5614,4.576,4.5925,4.6068,4.607,4.6248,4.6353,4.6388,4.6405,4.6388,4.6405,4.6546,4.66,4.3358,4.3341,4.3358,4.3358,4.3358,4.3358,4.3341,4.3358,4.3353,4.2699,4.1746,4.2108,4.2343,4.2412,4.3044,4.342,4.3514,4.3548,4.3908,4.4505,4.4557,4.4893,4.545,4.5485,4.5511,4.5576,4.5576,4.5576,4.5576,4.5511,4.5446,4.541,4.5414,4.5414,4.5414,4.5414,4.5414,4.5328,4.4281,4.3694,4.3694,4.3707,4.3694,4.3677,4.35,4.3448,4.3431,4.3293,4.2913,4.2332,4.1965,4.1679,4.1392,4.0667,4.0429,4.068,4.008,3.961,3.949,3.91,3.8877,3.8877,3.9394,3.9718,3.9654,3.8966,3.8707,3.9207,3.9108,3.9285,3.9899,4.002,3.9944,3.996,4.0468,4.0862,4.1147,4.2065,4.2777,4.2935,4.3588,4.405,4.4082,4.421,4.4595,4.5276,4.5928,4.6145,4.5961,4.5977,4.6032,4.603,4.5977,4.602,4.6354,4.6442,4.6373,4.6337,4.6283,4.6141,4.5961,4.5907,4.5979,4.6068,4.6282,4.6425,4.646,4.6652,4.6841,4.6824,4.6807,4.6859,4.6824,4.6842,4.6893,4.3851,4.3845,4.3875,4.3834,4.3886,4.3875,4.3892,4.3886,4.3851,4.3775,4.3606,4.3445,4.3372,4.3391,4.3728,4.4147,4.4533,4.4555,4.4817,4.526,4.5294,4.5468,4.5765,4.576,4.5887,4.6092,4.61,4.6075,4.608,4.5849,4.5624,4.5423,4.5414,4.5414,4.5414,4.5414,4.5414,4.5414,4.5276,4.519,4.519,4.519,4.5186,4.519,4.4557,4.4207,4.419,4.3552,4.3172,4.3103,4.3048,4.3014,4.2898,4.2484,4.2234,4.2243,4.1843,4.1441,4.0993,4.0551,4.0267,4.0317,4.0318,4.0414,4.0414,4.0336,4.0272,4.0372,4.0341,4.0327,4.0469,4.0776,4.099,4.1086,4.1357,4.1747,4.24,4.262,4.2935,4.3551,4.4543,4.5129,4.5211,4.5578,4.5888,4.581,4.6119,4.6354,4.6301,4.6511,4.6686,4.6686,4.6495,4.6442,4.672,4.6842,4.6686,4.6407,4.6303,4.6303,4.6283,4.6283,4.6354,4.6546,4.672,4.6772,4.6807,4.6893,4.6893,4.6893,4.6893,4.6893,4.6893,4.6893,4.6893,4.5262,4.5245,4.5262,4.5376,4.5523,4.534,4.5376,4.5534,4.5358,4.5262,4.5274,4.531,4.5004,4.4499,4.5015,4.5395,4.5577,4.5595,4.569,4.5862,4.5879,4.5942,4.6025,4.6038,4.61,4.6186,4.6198,4.6198,4.6149,4.5925,4.5662,4.5423,4.5414,4.5414,4.5414,4.5414,4.5414,4.5414,4.5414,4.5414,4.5414,4.5414,4.5414,4.538,4.51,4.4958,4.4928,4.4647,4.4298,4.3897,4.3845,4.3638,4.3207,4.3009,4.2903,4.289,4.2494,4.196,4.1253,4.1023,4.079,4.0525,4.0916,4.1143,4.1191,4.15,4.1744,4.1696,4.1386,4.1274,4.168,4.1895,4.2155,4.2542,4.2768,4.312,4.3859,4.4292,4.4644,4.4982,4.5695,4.6233,4.6281,4.6457,4.6582,4.6492,4.6581,4.6633,4.6668,4.6807,4.6876,4.6892,4.6738,4.672,4.6876,4.6893,4.6807,4.672,4.6668,4.6652,4.6635,4.6652,4.6704,4.6876,4.6893,4.6893,4.6876,4.6893,4.6893,4.6893,4.6893,4.6893,4.6893,4.6893,4.6893,4.6417,4.6423,4.6417,4.6572,4.6747,4.6525,4.6543,4.676,4.6525,4.6435,4.6429,4.6625,4.633,4.5764,4.6188,4.6369,4.6308,4.6308,4.6242,4.6211,4.6198,4.6235,4.6296,4.6308,4.6345,4.6423,4.6447,4.6398,4.6319,4.6283,4.6073,4.5866,4.5967,4.6017,4.6035,4.6035,4.6035,4.6052,4.6017,4.6035,4.6031,4.5828,4.5634,4.5432,4.5414,4.5414,4.5414,4.5414,4.5152,4.4643,4.4609,4.4367,4.3867,4.3798,4.3798,4.3772,4.3377,4.2767,4.2017,4.1861,4.1568,4.1172,4.1581,4.1872,4.1969,4.2327,4.2586,4.2553,4.2342,4.2423,4.2796,4.2894,4.3217,4.3897,4.3994,4.4285,4.4982,4.5532,4.5823,4.6099,4.6469,4.6893,4.6893,4.6876,4.6859,4.6859,4.6876,4.6893,4.6893,4.6893,4.6893,4.6893,4.6893,4.6893,4.6893,4.6893,4.6893,4.6893,4.6876,4.6859,4.6893,4.6893,4.6876,4.6893,4.6893,4.6893,4.6893,4.6893,4.6893,4.6893,4.6893,4.6893,4.6893,4.6893,4.6893,4.6957,4.6945,4.6945,4.6957,4.698,4.6945,4.6957,4.7002,4.6963,4.6963,4.6922,4.6945,4.6939,4.6845,4.6875,4.6819,4.6613,4.6578,4.6471,4.6259,4.6253,4.6345,4.6578,4.659,4.6708,4.6859,4.6888,4.6801,4.6613,4.704,4.7127,4.6943,4.727,4.7531,4.7479,4.7445,4.7565,4.7427,4.7427,4.7514,4.7462,4.6876,4.6203,4.5604,4.5414,4.5414,4.5414,4.5414,4.5363,4.5345,4.5307,4.5276,4.5272,4.5242,4.5221,4.5198,4.4817,4.4344,4.3846,4.3404,4.2958,4.2565,4.2486,4.2537,4.2472,4.2619,4.2715,4.2619,4.3217,4.3573,4.3686,4.3686,4.3962,4.4625,4.4755,4.5063,4.5678,4.5824,4.6131,4.6634,4.6845,4.6893,4.6893,4.6893,4.6893,4.6893,4.6893,4.6893,4.6893,4.6893,4.6893,4.6893,4.6893,4.6893,4.6893,4.6893,4.6893,4.6893,4.6893,4.6893,4.6893,4.6893,4.6893,4.6893,4.6893,4.6893,4.6893,4.6893,4.6893,4.6893,4.6893,4.6893,4.6893,4.6893,4.6893,4.7009,4.7009,4.7009,4.7116,4.7294,4.7093,4.7133,4.7294,4.7082,4.7009,4.7009,4.7009,4.7009,4.7009,4.7009,4.6945,4.6853,4.6865,4.6807,4.6708,4.6725,4.6772,4.6842,4.6865,4.6899,4.6968,4.6998,4.7021,4.7137,4.7739,4.7854,4.7507,4.7603,4.7703,4.7703,4.7703,4.7703,4.7703,4.7703,4.7703,4.772,4.7445,4.7151,4.6841,4.5897,4.5414,4.5414,4.5414,4.5414,4.5414,4.5414,4.5414,4.5414,4.5414,4.5414,4.5401,4.5247,4.4944,4.4496,4.4282,4.3869,4.3156,4.305,4.293,4.2746,4.3023,4.3298,4.3427,4.3978,4.4512,4.4868,4.4674,4.469,4.5289,4.5451,4.571,4.6309,4.6521,4.6634,4.6845,4.6893,4.6893,4.6893,4.6893,4.6893,4.6893,4.6893,4.691,4.691,4.691,4.6942,4.6926,4.6893,4.6893,4.6893,4.6893,4.6893,4.6893,4.6893,4.6893,4.6893,4.6893,4.6893,4.6893,4.6893,4.6893,4.6893,4.6893,4.6893,4.6893,4.6893,4.6893,4.6893,4.6893,4.6893,4.7009,4.7009,4.7009,4.7127,4.7305,4.7093,4.7133,4.7305,4.7111,4.7009,4.7009,4.7009,4.7009,4.7009,4.7009,4.7009,4.7009,4.7009,4.7009,4.7009,4.7009,4.7009,4.7009,4.7009,4.7134,4.7402,4.764,4.7779,4.7882,4.8547,4.8631,4.8214,4.8345,4.8444,4.8427,4.8444,4.8444,4.8427,4.8444,4.8459,4.841,4.8186,4.8065,4.7893,4.6807,4.6121,4.6121,4.5914,4.5776,4.5759,4.5535,4.5414,4.5414,4.5414,4.5414,4.5414,4.5414,4.5207,4.4793,4.4708,4.4386,4.3756,4.3653,4.3537,4.3345,4.3767,4.4026,4.4204,4.4706,4.5354,4.5629,4.5581,4.5662,4.6067,4.6147,4.6326,4.6829,4.6893,4.6877,4.6893,4.6893,4.6893,4.6893,4.6893,4.6893,4.6893,4.6893,4.6958,4.7201,4.7265,4.7378,4.7508,4.7444,4.7346,4.725,4.7169,4.6974,4.6926,4.6893,4.6893,4.6893,4.6893,4.6893,4.6893,4.6893,4.6893,4.6893,4.6893,4.6893,4.6893,4.6893,4.6893,4.6893,4.6893,4.7072,4.7025,4.7077,4.7002,4.7082,4.7138,4.7116,4.7037,4.7104,4.7066,4.7066,4.7077,4.7002,4.7009,4.7009,4.7009,4.7009,4.7009,4.7009,4.7009,4.7009,4.7009,4.7009,4.7009,4.7098,4.7526,4.8205,4.893,4.9112,4.8884,4.9389,4.9514,4.935,4.9619,4.9758,4.9956,4.9812,4.9887,4.9821,4.9755,4.9855,4.9875,4.9186,4.8824,4.8755,4.8082,4.772,4.7703,4.6996,4.6583,4.6514,4.5945,4.5449,4.5518,4.5449,4.5414,4.55,4.5466,4.5215,4.4937,4.4936,4.4927,4.4536,4.4441,4.4501,4.4529,4.469,4.4787,4.4885,4.5386,4.5856,4.5986,4.6358,4.6715,4.6877,4.678,4.6812,4.6877,4.6893,4.6893,4.6893,4.6893,4.691,4.6926,4.7023,4.7088,4.7185,4.7201,4.7379,4.788,4.7993,4.8283,4.8575,4.8348,4.7993,4.7734,4.7459,4.7168,4.6958,4.6926,4.6893,4.6893,4.6893,4.6893,4.6893,4.6893,4.6893,4.6893,4.6893,4.6893,4.6893,4.6893,4.7007,4.7169,4.7298,4.7524,4.7694,4.7694,4.7676,4.7694,4.7694,4.7694,4.7694,4.7663,4.7439,4.7349,4.7305,4.7093,4.7009,4.7009,4.7009,4.7009,4.7009,4.7009,4.7009,4.7027,4.7009,4.7009,4.7116,4.758,4.8223,4.8978,4.9751,4.9891,4.9656,5.0141,5.0325,5.0133,5.0163,5.026,5.0277,5.0277,5.0206,5.0008,4.9996,4.9996,4.9993,4.9769,4.9617,4.96,4.9393,4.9289,4.9203,4.8048,4.7393,4.7358,4.7117,4.6755,4.6255,4.5703,4.5686,4.6152,4.6221,4.6439,4.6742,4.6694,4.6363,4.5838,4.5629,4.5328,4.4951,4.5257,4.5501,4.5565,4.6115,4.6552,4.6618,4.6748,4.6893,4.6893,4.6893,4.6893,4.691,4.6926,4.6893,4.6893,4.6893,4.712,4.7524,4.7653,4.7815,4.817,4.8251,4.8413,4.8607,4.8688,4.8704,4.8947,4.872,4.8688,4.851,4.8267,4.7977,4.7556,4.7331,4.6991,4.6942,4.6893,4.6893,4.6893,4.6893,4.6893,4.6893,4.6893,4.691,4.6958,4.7007,4.7232,4.7556,4.7831,4.8058,4.8002,4.8002,4.8002,4.8002,4.8002,4.8002,4.7921,4.7788,4.7578,4.7436,4.7283,4.7093,4.7009,4.7009,4.7009,4.7009,4.7009,4.7009,4.717,4.733,4.708,4.7152,4.7544,4.8579,4.9264,4.9787,5.0548,5.0716,5.0343,5.0722,5.0834,5.0588,5.0551,5.0481,5.0397,5.0383,5.0277,5.0022,4.9996,4.9996,4.9996,4.9996,4.9996,4.9979,4.9979,4.9996,4.991,4.9031,4.841,4.8117,4.7876,4.7462,4.6996,4.6552,4.6496,4.6858,4.7014,4.722,4.7651,4.7572,4.7412,4.6785,4.6794,4.664,4.6127,4.632,4.6483,4.6598,4.6721,4.6893,4.6893,4.6893,4.6893,4.6893,4.6893,4.6893,4.6926,4.7151,4.7297,4.7396,4.7574,4.7896,4.8219,4.8397,4.8526,4.8931,4.9012,4.9206,4.9287,4.9416,4.9497,4.9562,4.9562,4.9513,4.94,4.9125,4.8785,4.8299,4.7831,4.7363,4.7023,4.6942,4.6893,4.6893,4.6893,4.6893,4.6893,4.691,4.6926,4.7007,4.733,4.7718,4.8121,4.8332,4.8607,4.8062,4.8052,4.8043,4.8101,4.8101,4.8111,4.7933,4.7621,4.7565,4.7392,4.7127,4.7043,4.7009,4.7009,4.7009,4.7009,4.7009,4.7009,4.7402,4.7752,4.7574,4.758,4.8526,4.9692,5.0316,5.0655,5.128,5.1462,5.1131,5.1206,5.1132,5.0874,5.078,5.0684,5.0495,5.0411,5.026,5.0022,4.9996,4.9996,4.9996,4.9996,4.9996,4.9996,4.9996,4.9996,4.9962,4.9806,4.9513,4.8893,4.8238,4.7841,4.7772,4.772,4.7565,4.772,4.7772,4.7858,4.7858,4.8082,4.7869,4.7573,4.7843,4.8005,4.7523,4.7374,4.739,4.734,4.7084,4.6893,4.6893,4.6893,4.6926,4.6991,4.7104,4.7088,4.7055,4.7637,4.7993,4.8121,4.8575,4.9012,4.9012,4.9076,4.9141,4.9287,4.9368,4.9675,4.9985,5.0244,5.0503,5.0487,5.0341,5.0276,5.0147,5.0001,4.9661,4.9141,4.8625,4.8058,4.7331,4.7104,4.691,4.6893,4.7007,4.6974,4.7055,4.7169,4.7443,4.7848,4.8171,4.8429,4.8704,4.8979,4.9303,4.8669,4.8669,4.8669,4.8669,4.8669,4.8669,4.8458,4.8143,4.7923,4.7631,4.7352,4.7093,4.7009,4.7009,4.7009,4.7009,4.7009,4.7027,4.7419,4.8074,4.8008,4.8687,4.9674,5.0281,5.0834,5.1315,5.1547,5.1582,5.1324,5.1324,5.1255,5.1145,5.0928,5.0793,5.0667,5.0495,5.0246,5.0022,4.9996,4.9996,4.9996,4.9996,4.9996,4.9996,4.9996,4.9996,4.9996,4.9996,4.9927,4.9683,4.8944,4.8531,4.8479,4.8082,4.8031,4.8444,4.8548,4.8789,4.922,4.9306,4.9137,4.8763,4.8761,4.8562,4.777,4.7704,4.7504,4.7235,4.6945,4.6893,4.6893,4.6926,4.7153,4.7605,4.7734,4.7751,4.7815,4.8283,4.8736,4.8753,4.8947,4.9303,4.9675,4.9839,4.9985,5.0357,5.0487,5.0519,5.07,5.0813,5.0943,5.1008,5.0943,5.0943,5.0878,5.0781,5.0487,5.0001,4.9499,4.903,4.8155,4.7394,4.712,4.6893,4.7266,4.7347,4.7589,4.7783,4.822,4.8607,4.8801,4.8995,4.9499,4.9839,5.0147,4.889,4.889,4.889,4.889,4.8864,4.8759,4.8523,4.8202,4.7903,4.76,4.7287,4.7111,4.7009,4.7009,4.7009,4.7009,4.7027,4.7348,4.7955,4.871,4.94,5.0007,5.0513,5.078,5.1262,5.1637,5.169,5.1615,5.1487,5.1479,5.1462,5.141,5.1158,5.0941,5.078,5.0537,5.0277,5.0037,4.9996,4.9996,4.9996,4.9996,4.9996,4.9996,4.9996,4.9996,4.9996,4.9996,4.9996,4.9893,4.9548,4.9306,4.9272,4.8927,4.889,4.9289,4.9306,4.9531,4.9858,4.9996,4.974,4.9376,4.9361,4.8981,4.8258,4.7983,4.7754,4.7354,4.7048,4.6911,4.6974,4.7169,4.754,4.7945,4.851,4.8722,4.8477,4.9028,4.94,4.953,4.974,5.0034,5.0519,5.0536,5.0746,5.1024,5.1056,5.1089,5.1153,5.1202,5.1202,5.1202,5.1202,5.1121,5.1089,5.1008,5.0975,5.0536,5.0131,4.9726,4.9013,4.8042,4.7864,4.7718,4.7734,4.7848,4.8204,4.8512,4.8835,4.9141,4.9319,4.9691,5.0196,5.0406,5.0765,4.889,4.889,4.889,4.8946,4.9014,4.8735,4.8629,4.8283,4.8135,4.7781,4.7446,4.7306,4.7384,4.7134,4.7277,4.7105,4.7045,4.7741,4.8651,4.9603,5.0602,5.1244,5.0816,5.1298,5.1583,5.169,5.169,5.169,5.1652,5.1665,5.1678,5.1564,5.1359,5.1079,5.078,5.0495,5.0235,5.0037,4.9996,4.9996,4.9996,4.9996,4.9996,4.9996,4.9996,4.9996,4.9996,4.9996,4.9996,4.9996,4.9996,4.9924,4.9942,4.9962,4.9927,4.9893,4.9858,4.991,4.9993,4.9982,4.983,4.9483,4.9696,4.95,4.8574,4.8225,4.7951,4.7438,4.715,4.6945,4.6991,4.7524,4.7976,4.8316,4.9305,4.9661,4.9513,4.9805,5.0212,5.0228,5.0811,5.1121,5.1202,5.1202,5.1202,5.1121,5.1202,5.1202,5.1202,5.1202,5.1202,5.1202,5.1202,5.1202,5.1186,5.1186,5.1153,5.0991,5.0619,5.0212,4.9775,4.9127,4.8963,4.8801,4.8445,4.8558,4.8995,4.9287,4.9497,4.9855,5.0163,5.0552,5.0943,5.0894,5.1089,4.889,4.889,4.889,4.9317,4.9847,4.9794,4.9785,4.9807,4.976,4.9207,4.887,4.877,4.8407,4.7913,4.7841,4.7627,4.717,4.7901,4.8901,5.0298,5.1191,5.1601,5.144,5.1637,5.1672,5.169,5.169,5.169,5.169,5.169,5.169,5.164,5.1193,5.087,5.0766,5.0345,5.0083,5.0011,4.9996,4.9996,4.9996,4.9996,4.9996,4.9996,4.9996,4.9996,4.9996,4.9996,4.9996,4.9996,4.9996,4.9996,4.9996,4.9996,4.9996,4.9996,4.9996,4.9996,4.9996,4.9982,4.9967,4.9816,4.9453,4.9087,4.8479,4.8048,4.7655,4.7201,4.6962,4.6911,4.6974,4.7572,4.817,4.8769,4.9564,5.0309,5.06,5.0811,5.0894,5.0959,5.1056,5.1202,5.1202,5.1202,5.1202,5.1202,5.1202,5.1202,5.1202,5.1202,5.1202,5.1202,5.1202,5.1202,5.1202,5.1202,5.1202,5.1202,5.0943,5.0749,5.0293,4.992,4.9627,4.9303,4.8963,4.9271,4.9789,4.9886,5.0082,5.0536,5.0894,5.1008,5.1121,5.1186,5.1202,4.9132,4.9466,4.9457,4.9968,5.0628,5.0397,5.0306,5.0297,4.9995,4.9675,4.9359,4.9293,4.8889,4.8205,4.8163,4.7741,4.7437,4.8229,4.9567,5.0852,5.153,5.1672,5.169,5.169,5.169,5.169,5.169,5.169,5.169,5.169,5.169,5.1652,5.1083,5.0847,5.0725,5.026,5.0022,4.9996,4.9996,4.9996,4.9996,4.9996,4.9996,4.9996,4.9996,4.9996,4.9996,4.9996,4.9996,4.9996,4.9996,4.9996,4.9996,4.9996,4.9996,4.9996,4.9996,4.9996,4.9982,4.9786,4.9742,4.9967,4.9286,4.8778,4.8369,4.7967,4.7488,4.7081,4.6911,4.691,4.6974,4.7927,4.8591,4.906,4.9985,5.0749,5.1105,5.1202,5.1202,5.1202,5.1186,5.1202,5.1202,5.1202,5.1202,5.1202,5.1202,5.1202,5.1202,5.1202,5.1202,5.1202,5.1202,5.1202,5.1202,5.1202,5.1202,5.1202,5.1137,5.104,5.0862,5.0522,5.0163,4.9953,4.9839,5.0147,5.0587,5.0633,5.06,5.0878,5.1089,5.117,5.1202,5.1202,5.1202,4.9364,5.0107,5.0116,5.0673,5.1408,5.0952,5.0785,5.0714,5.0028,5.0014,4.9698,4.9662,4.9406,4.8544,4.8419,4.7955,4.7907,4.8574,5.0019,5.144,5.1637,5.169,5.169,5.169,5.169,5.169,5.169,5.169,5.169,5.169,5.169,5.1584,5.1101,5.0834,5.0702,5.0274,4.9996,4.9996,4.9996,4.9996,4.9996,4.9996,4.9996,4.9996,4.9996,4.9996,4.9996,4.9996,4.9996,4.9996,4.9996,4.9996,4.9996,4.9996,4.9996,4.9996,4.9996,4.9996,4.9906,4.9607,4.9439,4.9833,4.8904,4.8353,4.8161,4.7803,4.7354,4.7098,4.6893,4.6893,4.6991,4.8091,4.8817,4.9271,5.0309,5.1089,5.1202,5.1202,5.1202,5.1202,5.1202,5.1202,5.1202,5.1202,5.1202,5.1202,5.1202,5.1202,5.1202,5.1202,5.1202,5.1202,5.1202,5.1202,5.1202,5.1202,5.1202,5.1202,5.1202,5.1202,5.1202,5.0959,5.07,5.091,5.0959,5.1056,5.104,5.0991,5.1024,5.1202,5.1202,5.1202,5.1202,5.1202,5.1202,4.9364,5.0116,5.0116,5.0971,5.2215,5.1979,5.2001,5.2287,5.1756,5.155,5.1251,5.1244,5.0352,4.9376,4.9091,4.8984,4.877,4.9198,5.0126,5.1422,5.1654,5.169,5.169,5.169,5.169,5.169,5.169,5.169,5.169,5.169,5.169,5.1589,5.1101,5.082,5.0675,5.0288,4.9996,4.9996,4.9996,4.9996,4.9996,4.9996,4.9996,4.9996,4.9996,4.9996,4.9996,4.9996,4.9996,4.9996,4.9996,4.9996,4.9996,4.9996,4.9996,4.9996,4.9996,4.9996,4.9921,4.95,4.9271,4.9087,4.8386,4.7886,4.7721,4.7404,4.7098,4.6996,4.6893,4.691,4.6925,4.8171,4.8882,4.9368,5.0212,5.117,5.1202,5.1202,5.1202,5.1202,5.1202,5.1202,5.1202,5.1202,5.1202,5.1202,5.1202,5.1202,5.1202,5.1202,5.1202,5.1202,5.1202,5.1202,5.1202,5.1202,5.1202,5.1202,5.1202,5.1202,5.1202,5.1202,5.1202,5.1202,5.1202,5.1153,5.117,5.1202,5.1202,5.1202,5.1202,5.1202,5.1202,5.1202,5.1202,5.0014,5.0803,5.1203,5.2104,5.3003,5.2686,5.2582,5.2673,5.2203,5.1841,5.1722,5.1619,5.0816,4.9644,4.9293,4.9109,4.8859,4.9198,4.9965,5.0959,5.1476,5.169,5.169,5.169,5.169,5.169,5.169,5.169,5.169,5.169,5.169,5.1564,5.1101,5.0807,5.0702,5.0277,5.0037,4.9979,4.9962,4.9962,4.9962,4.9962,4.9979,4.9979,4.9979,4.9996,4.9996,4.9996,4.9996,4.9996,4.9996,4.9996,4.9996,4.9996,4.9996,4.9996,4.9982,4.9982,4.9833,4.9333,4.8901,4.9026,4.8048,4.7521,4.7471,4.7269,4.6928,4.6893,4.6893,4.6893,4.6942,4.8186,4.8882,4.9254,5.0293,5.1072,5.1202,5.1202,5.1202,5.1202,5.1202,5.1202,5.1202,5.1202,5.1202,5.1202,5.1202,5.1202,5.1202,5.128,5.1317,5.1298,5.1317,5.1242,5.124,5.1202,5.1202,5.1202,5.1202,5.1202,5.1202,5.1202,5.1202,5.1202,5.1202,5.1202,5.1202,5.1202,5.1202,5.1202,5.1202,5.1202,5.1202,5.1202,5.1202,5.0618,5.1472,5.2271,5.307,5.3614,5.3088,5.2787,5.2642,5.2018,5.1715,5.1672,5.144,5.0625,4.9501,4.8913,4.855,4.8234,4.8966,4.9769,5.0602,5.1351,5.169,5.169,5.169,5.169,5.169,5.169,5.169,5.169,5.169,5.169,5.1551,5.1119,5.0807,5.0702,5.0263,5.0031,4.9772,4.9755,4.9735,4.9597,4.9669,4.9755,4.9824,4.991,4.9996,4.9996,4.9996,4.9996,4.9996,4.9996,4.9996,4.9996,4.9996,4.9996,4.9982,4.9923,4.9862,4.9577,4.8875,4.8417,4.8623,4.7622,4.732,4.7269,4.7133,4.6893,4.6893,4.6893,4.6893,4.7072,4.8154,4.8866,4.9303,5.0228,5.1202,5.1202,5.1202,5.1202,5.1202,5.1202,5.1202,5.1202,5.1202,5.1202,5.1202,5.1202,5.1202,5.124,5.1469,5.1524,5.1487,5.1431,5.1338,5.128,5.1221,5.1202,5.1202,5.1202,5.1202,5.1202,5.1202,5.1202,5.1202,5.1202,5.1202,5.1202,5.1202,5.1202,5.1202,5.1202,5.1202,5.1202,5.1202,5.1202,5.0618,5.1472,5.2271,5.306,5.3624,5.3091,5.2806,5.2705,5.203,5.1703,5.1547,5.0959,5.0179,4.9145,4.7872,4.7723,4.8223,4.8978,4.968,5.0405,5.1244,5.169,5.169,5.169,5.169,5.169,5.169,5.169,5.1652,5.1652,5.1652,5.1508,5.1092,5.0758,5.0527,5.0058,4.9631,4.9082,4.8962,4.8669,4.8289,4.8669,4.8893,4.9117,4.9462,4.9841,4.9806,4.9841,4.9893,4.9996,4.9996,4.9996,4.9996,4.9996,4.9996,4.9862,4.9622,4.9269,4.9195,4.8497,4.7902,4.8,4.7286,4.7014,4.6997,4.7014,4.6893,4.6893,4.6893,4.6893,4.712,4.817,4.8801,4.9481,5.0293,5.1008,5.1202,5.1202,5.1202,5.1202,5.1202,5.1202,5.1202,5.1202,5.1202,5.1202,5.1221,5.124,5.1392,5.1692,5.1749,5.171,5.1637,5.1526,5.128,5.1221,5.1221,5.1221,5.1202,5.1202,5.1202,5.1202,5.1202,5.1202,5.1202,5.1202,5.1202,5.1202,5.1202,5.1202,5.1202,5.1202,5.1202,5.1202,5.1202,5.0618,5.1509,5.2744,5.3478,5.3737,5.3269,5.298,5.2717,5.2221,5.1615,5.1055,5.0691,4.9834,4.8603,4.7455,4.7205,4.7741,4.8782,4.9448,5.0126,5.103,5.169,5.169,5.169,5.169,5.169,5.1678,5.1577,5.1538,5.1449,5.1393,5.1154,5.0772,5.0285,5.005,4.9534,4.8901,4.8393,4.8155,4.8013,4.7858,4.7979,4.8169,4.8203,4.8548,4.8927,4.9238,4.9324,4.96,4.9824,4.9996,4.9996,4.9996,4.9996,4.9996,4.9967,4.95,4.9241,4.9118,4.8448,4.7999,4.7605,4.7235,4.6928,4.6893,4.6893,4.6893,4.6893,4.6893,4.6893,4.7136,4.8186,4.8736,4.9416,5.0341,5.0862,5.1202,5.1202,5.1202,5.1202,5.1202,5.1202,5.1202,5.1202,5.1221,5.124,5.141,5.1598,5.1838,5.2183,5.2131,5.1933,5.1858,5.1749,5.1431,5.1202,5.1221,5.1221,5.1202,5.1202,5.1202,5.1202,5.1202,5.1202,5.1202,5.1202,5.1202,5.1202,5.1202,5.1202,5.1202,5.1202,5.1202,5.1202,5.1202,5.0479,5.1212,5.2819,5.3608,5.3746,5.3369,5.2898,5.2463,5.1913,5.1155,5.0359,4.9924,4.9097,4.8044,4.733,4.7187,4.7455,4.8716,4.9359,5.0036,5.0869,5.1601,5.169,5.169,5.169,5.169,5.169,5.1513,5.125,5.1145,5.1052,5.0789,5.0309,4.9882,4.9319,4.8782,4.8169,4.7496,4.7169,4.7031,4.7048,4.7272,4.7393,4.7496,4.7651,4.7962,4.843,4.8775,4.922,4.9496,4.991,4.9979,4.9996,4.9996,4.9996,4.9891,4.95,4.9102,4.8872,4.8417,4.7999,4.7555,4.7218,4.6893,4.6893,4.6893,4.6893,4.6893,4.6893,4.6893,4.7185,4.817,4.8817,4.9481,5.0293,5.0813,5.1202,5.1202,5.1202,5.1202,5.1202,5.1202,5.1202,5.1202,5.124,5.1261,5.1506,5.184,5.2167,5.2487,5.2487,5.2275,5.2504,5.2274,5.1729,5.145,5.1373,5.124,5.124,5.1202,5.1202,5.1202,5.1202,5.1202,5.1202,5.1202,5.1202,5.1202,5.1202,5.1202,5.1202,5.1202,5.1202,5.1202,5.1202,5.0126,5.0339,5.1974,5.3042,5.3663,5.312,5.2386,5.1653,5.0957,5.0199,4.9371,4.8704,4.7973,4.733,4.7277,4.7473,4.8109,4.8942,4.9662,5.0441,5.1257,5.1637,5.169,5.169,5.169,5.169,5.1678,5.1393,5.0995,5.0915,5.0861,5.0714,4.9882,4.9475,4.8857,4.8066,4.7338,4.6669,4.6203,4.5845,4.6014,4.6289,4.6652,4.6824,4.7272,4.772,4.7793,4.8241,4.8701,4.8908,4.9427,4.984,4.9811,4.974,4.9728,4.9725,4.9364,4.8918,4.848,4.8097,4.7538,4.7133,4.6928,4.6893,4.6893,4.6893,4.6893,4.6893,4.6893,4.6974,4.7363,4.8042,4.8898,4.9578,5.0309,5.0894,5.1202,5.1202,5.1202,5.1202,5.1202,5.1202,5.1202,5.1202,5.1202,5.124,5.1506,5.1822,5.2221,5.2522,5.2697,5.2767,5.3179,5.2939,5.2149,5.1877,5.1674,5.1448,5.1298,5.1258,5.1202,5.1202,5.1202,5.1202,5.1202,5.1202,5.1202,5.1202,5.1202,5.1202,5.1202,5.1202,5.1202,5.1202,5.1202,4.9643,5.0163,5.0822,5.1546,5.2308,5.2042,5.155,5.0894,5.0554,4.9727,4.8579,4.783,4.7294,4.7187,4.758,4.7877,4.8377,4.9549,5.0138,5.0655,5.1244,5.1637,5.169,5.169,5.169,5.169,5.1665,5.1375,5.0888,5.082,5.0537,5.0143,4.9403,4.8761,4.8107,4.7182,4.6334,4.6014,4.5634,4.5414,4.5466,4.5604,4.5858,4.5914,4.6031,4.6583,4.6962,4.7255,4.7773,4.8271,4.8692,4.9086,4.9387,4.9241,4.9256,4.9394,4.8995,4.8528,4.8113,4.777,4.7471,4.7048,4.6911,4.6893,4.6893,4.6893,4.6893,4.6893,4.691,4.7007,4.7702,4.8429,4.919,4.9756,5.0357,5.0991,5.1202,5.1202,5.1202,5.1202,5.1202,5.1202,5.1202,5.1202,5.1202,5.124,5.1524,5.182,5.2131,5.2435,5.2576,5.2802,5.3179,5.3162,5.2416,5.2131,5.1949,5.1637,5.1355,5.128,5.1202,5.1202,5.1202,5.1202,5.1202,5.1202,5.1202,5.1202,5.1202,5.1202,5.1202,5.1202,5.1202,5.1202,5.1202,4.9224,4.9717,4.9736,5.0395,5.1314,5.1278,5.077,5.0115,4.9907,4.9158,4.7824,4.7241,4.7009,4.7223,4.7794,4.8365,4.8847,4.9817,5.0513,5.103,5.144,5.1672,5.169,5.169,5.169,5.169,5.1652,5.1393,5.0834,5.082,5.0509,4.9897,4.8996,4.8248,4.7576,4.6259,4.5414,4.5414,4.5414,4.5414,4.5414,4.5432,4.5449,4.5409,4.5385,4.5476,4.596,4.6326,4.6814,4.7393,4.7933,4.8423,4.8615,4.87,4.8653,4.8653,4.8512,4.8032,4.7803,4.7488,4.7319,4.6978,4.6893,4.6893,4.6893,4.6893,4.6893,4.6893,4.6942,4.7234,4.7961,4.8607,4.9303,4.9888,5.0635,5.1202,5.1202,5.1202,5.1202,5.1202,5.1202,5.1202,5.1202,5.1202,5.1202,5.1202,5.1317,5.1561,5.1749,5.2077,5.2381,5.2645,5.2974,5.2836,5.2592,5.2434,5.2203,5.1506,5.128,5.1258,5.1202,5.1202,5.1202,5.1202,5.1202,5.1202,5.1202,5.1202,5.1202,5.1202,5.1202,5.1202,5.1202,5.1202,5.1202,4.8927,4.89,4.8956,4.9893,5.1129,5.0931,5.0196,4.9291,4.8898,4.8191,4.7274,4.7032,4.7009,4.7223,4.7919,4.8621,4.9281,5.0143,5.0893,5.1458,5.1583,5.169,5.169,5.169,5.169,5.169,5.1615,5.1328,5.0803,5.0753,5.0457,4.9719,4.8703,4.7686,4.7531,4.6169,4.5449,4.5414,4.5414,4.5414,4.5414,4.5414,4.5397,4.5207,4.4984,4.4998,4.5027,4.5419,4.5855,4.6258,4.7211,4.7772,4.8131,4.8222,4.8272,4.8369,4.7983,4.7737,4.7654,4.7218,4.7013,4.6961,4.6961,4.6893,4.6893,4.6893,4.6893,4.6893,4.7023,4.7362,4.7977,4.8672,4.9432,5.0163,5.0927,5.1202,5.1202,5.1202,5.1202,5.1202,5.1202,5.1202,5.1202,5.1202,5.1202,5.1202,5.1202,5.1317,5.1506,5.171,5.204,5.2575,5.2888,5.2974,5.2854,5.2767,5.2434,5.1674,5.124,5.1221,5.1202,5.1202,5.1202,5.1202,5.1202,5.1202,5.1202,5.1202,5.1202,5.1202,5.1202,5.1202,5.1202,5.1202,5.1202,4.889,4.889,4.889,4.9216,4.969,4.9619,4.9196,4.8642,4.8138,4.767,4.733,4.7116,4.7009,4.7366,4.8247,4.902,4.9466,5.0798,5.1583,5.1637,5.169,5.169,5.169,5.169,5.169,5.1658,5.1526,5.125,5.0789,5.0657,5.0373,4.9686,4.8444,4.7203,4.6362,4.5535,4.5414,4.5414,4.5414,4.5414,4.5414,4.5384,4.5247,4.4971,4.4749,4.4499,4.4257,4.4646,4.4836,4.5162,4.6124,4.6748,4.7207,4.7374,4.7638,4.777,4.7554,4.7386,4.7302,4.7081,4.7012,4.6996,4.6978,4.6927,4.6893,4.6893,4.6893,4.7039,4.733,4.7831,4.8607,4.9337,5.005,5.0649,5.1186,5.1202,5.1202,5.1202,5.1202,5.1202,5.1202,5.1202,5.1202,5.1202,5.1202,5.1202,5.1202,5.1202,5.1336,5.1431,5.1674,5.2398,5.2871,5.306,5.3111,5.2905,5.2575,5.1895,5.1431,5.1221,5.1202,5.1202,5.1202,5.1202,5.1202,5.1202,5.1202,5.1202,5.1202,5.1202,5.1202,5.1202,5.1202,5.1202,5.1202,4.889,4.889,4.889,4.889,4.889,4.889,4.8723,4.8308,4.777,4.75,4.7425,4.7149,4.7009,4.7384,4.8247,4.918,4.9412,5.0602,5.1578,5.1619,5.169,5.169,5.169,5.169,5.169,5.1632,5.1423,5.1119,5.0789,5.0537,5.0086,4.934,4.8341,4.7203,4.6207,4.569,4.5414,4.5414,4.5414,4.5414,4.5344,4.522,4.4984,4.4694,4.4384,4.4026,4.3839,4.3811,4.391,4.4316,4.4977,4.5716,4.6258,4.6779,4.7101,4.7268,4.7252,4.7132,4.7149,4.703,4.7013,4.7149,4.7013,4.6927,4.6893,4.6893,4.6893,4.7104,4.762,4.8267,4.8963,4.9726,5.039,5.0991,5.1186,5.1202,5.1202,5.1202,5.1202,5.1202,5.1202,5.1202,5.1202,5.1202,5.1202,5.1202,5.1202,5.1202,5.1202,5.1296,5.1469,5.2149,5.2715,5.2905,5.2991,5.2939,5.2557,5.2077,5.1655,5.124,5.1202,5.1202,5.1202,5.1202,5.1202,5.1202,5.1202,5.1202,5.1202,5.1202,5.1202,5.1202,5.1202,5.1202,5.1202,4.889,4.889,4.889,4.889,4.889,4.889,4.8732,4.8374,4.779,4.7525,4.7522,4.7172,4.6991,4.717,4.7883,4.8579,4.9287,5.0174,5.0887,5.1453,5.1601,5.1654,5.169,5.169,5.169,5.1602,5.1423,5.1119,5.0807,5.0471,4.9828,4.9001,4.8307,4.7427,4.6686,4.6169,4.5742,4.5535,4.5274,4.5261,4.5194,4.4957,4.4694,4.437,4.3968,4.359,4.3366,4.3295,4.3492,4.402,4.4803,4.5408,4.6042,4.6708,4.6917,4.7013,4.6996,4.708,4.7132,4.7013,4.6996,4.7081,4.6996,4.6928,4.6893,4.6926,4.7007,4.7315,4.7831,4.8429,4.9076,4.9823,5.0519,5.0894,5.117,5.1202,5.1202,5.1202,5.1202,5.1202,5.1202,5.1202,5.1202,5.1202,5.1202,5.1202,5.1202,5.1202,5.1202,5.1202,5.145,5.1933,5.2417,5.2698,5.2784,5.2767,5.238,5.184,5.1561,5.1202,5.1202,5.1202,5.1202,5.1202,5.1202,5.1202,5.1202,5.1202,5.1202,5.1202,5.1202,5.1202,5.1202,5.1202,5.1202,4.889,4.889,4.889,4.889,4.889,4.889,4.8848,4.8687,4.8141,4.786,4.7819,4.7249,4.7043,4.708,4.7841,4.8258,4.8954,4.9745,5.0441,5.0923,5.1262,5.1547,5.1654,5.1619,5.1672,5.1602,5.141,5.1092,5.077,5.0387,4.9708,4.8858,4.8548,4.7996,4.7531,4.7134,4.6376,4.5692,4.5294,4.5066,4.4934,4.4708,4.4342,4.3837,4.3735,4.3353,4.3071,4.2947,4.3198,4.3863,4.4561,4.5194,4.5842,4.6659,4.7183,4.7335,4.725,4.7149,4.715,4.7013,4.6928,4.6979,4.6928,4.6911,4.6893,4.6958,4.7119,4.7572,4.8155,4.8801,4.9513,5.0228,5.073,5.1008,5.1202,5.1202,5.1202,5.1202,5.1202,5.1202,5.1202,5.1202,5.1202,5.1202,5.1202,5.1202,5.1202,5.1202,5.1202,5.1202,5.145,5.1931,5.2222,5.254,5.2557,5.2522,5.2076,5.1637,5.1392,5.1221,5.1202,5.1202,5.1202,5.1202,5.1202,5.1202,5.1202,5.1202,5.1202,5.1202,5.1202,5.1202,5.1202,5.1202,5.1202,4.889,4.889,4.889,4.889,4.889,4.889,4.889,4.8803,4.8373,4.8103,4.7923,4.7428,4.7116,4.7062,4.7491,4.7883,4.8323,4.8972,4.9638,5.0126,5.0602,5.0852,5.1066,5.1262,5.1405,5.1416,5.1315,5.0972,5.0702,5.0285,4.9651,4.9341,4.9065,4.8568,4.8134,4.772,4.7203,4.6399,4.5696,4.5103,4.478,4.4437,4.3781,4.3537,4.3582,4.326,4.3117,4.3039,4.3427,4.4107,4.4804,4.5322,4.5905,4.6591,4.7218,4.7352,4.72,4.7149,4.7132,4.7013,4.6928,4.6893,4.6893,4.6893,4.6893,4.6926,4.733,4.7831,4.8542,4.9271,5.0017,5.0665,5.0943,5.1202,5.1202,5.1202,5.1202,5.1202,5.1202,5.1202,5.1202,5.1202,5.1202,5.1202,5.1202,5.1202,5.1202,5.1202,5.1202,5.1202,5.1487,5.1931,5.2167,5.2382,5.2345,5.2292,5.2004,5.1674,5.1394,5.1261,5.124,5.1202,5.1202,5.1202,5.1202,5.1202,5.1202,5.1202,5.1202,5.1202,5.1202,5.1202,5.1202,5.1202,5.1202,4.889,4.889,4.889,4.889,4.889,4.889,4.889,4.8855,4.8559,4.8269,4.7982,4.7649,4.7283,4.7072,4.717,4.7491,4.7877,4.8383,4.8853,4.9252,4.959,4.9929,5.0286,5.0447,5.0798,5.1122,5.1165,5.0806,5.0681,5.0285,4.9944,4.9927,4.9358,4.8962,4.8875,4.8462,4.8017,4.752,4.6575,4.5777,4.4918,4.415,4.3457,4.3434,4.3381,4.3247,4.3654,4.3897,4.4123,4.482,4.5338,4.5726,4.6231,4.6573,4.7102,4.7251,4.7166,4.7098,4.7081,4.6962,4.6928,4.6893,4.6893,4.6893,4.6893,4.7153,4.7621,4.8251,4.8979,4.971,5.0422,5.0846,5.1105,5.1202,5.1202,5.1202,5.1202,5.1202,5.1202,5.1202,5.1202,5.1202,5.1202,5.1202,5.1202,5.1202,5.1202,5.1202,5.1202,5.1202,5.1429,5.1838,5.2041,5.2185,5.2113,5.2076,5.1969,5.1712,5.1394,5.1261,5.1221,5.1202,5.1202,5.1202,5.1202,5.1202,5.1202,5.1202,5.1202,5.1202,5.1202,5.1202,5.1202,5.1202,5.1202,4.889,4.889,4.889,4.889,4.889,4.889,4.889,4.8881,4.8829,4.8476,4.8012,4.7652,4.732,4.707,4.702,4.7205,4.7366,4.7859,4.8258,4.8603,4.8877,4.9145,4.9555,4.9626,5.0072,5.0511,5.0634,5.0584,5.0607,5.0288,4.9996,4.9979,4.9634,4.9582,4.9582,4.922,4.8999,4.854,4.7624,4.6703,4.5924,4.5358,4.483,4.4622,4.4431,4.4431,4.4643,4.4561,4.4949,4.55,4.5646,4.6167,4.6855,4.7034,4.715,4.7217,4.7183,4.7098,4.7013,4.6945,4.6911,4.6893,4.6893,4.6893,4.7072,4.7493,4.8026,4.8704,4.9384,5.0098,5.07,5.0991,5.1202,5.1202,5.1202,5.1202,5.1202,5.1202,5.1202,5.1202,5.1202,5.1202,5.1202,5.1202,5.1202,5.1202,5.1202,5.1202,5.1202,5.1202,5.1202,5.1543,5.184,5.1951,5.1877,5.182,5.1731,5.1582,5.1298,5.1221,5.1202,5.1202,5.1202,5.1202,5.1202,5.1202,5.1202,5.1202,5.1202,5.1202,5.1202,5.1202,5.1202,5.1202,5.1202,4.889,4.889,4.889,4.889,4.889,4.889,4.889,4.889,4.889,4.8642,4.8181,4.786,4.7525,4.7205,4.707,4.7009,4.708,4.7449,4.758,4.783,4.8139,4.8407,4.8621,4.8817,4.9323,4.9798,5.0082,5.0224,5.0511,5.026,4.9996,4.9996,4.9996,4.9996,4.9996,4.9959,4.9804,4.9315,4.8506,4.7807,4.6946,4.6086,4.5212,4.4951,4.5,4.5147,4.5341,4.5273,4.5662,4.6083,4.6309,4.6457,4.6883,4.6997,4.7098,4.7149,4.7132,4.7063,4.7013,4.6945,4.6911,4.6893,4.6926,4.6942,4.7572,4.8026,4.8413,4.9076,4.9578,5.026,5.0813,5.117,5.1202,5.1202,5.1202,5.1202,5.1202,5.1202,5.1202,5.1202,5.1202,5.1202,5.1202,5.1202,5.1202,5.1202,5.1202,5.1202,5.1202,5.1202,5.1202,5.1277,5.1582,5.1637,5.1487,5.1469,5.1469,5.1317,5.1221,5.1202,5.1202,5.1202,5.1202,5.1202,5.1202,5.1202,5.1202,5.1202,5.1202,5.1202,5.1202,5.1202,5.1202,5.1202,5.1202,4.889,4.889,4.889,4.8983,4.9057,4.9067,4.9169,4.9243,4.9123,4.8925,4.8614,4.8186,4.7809,4.7472,4.7149,4.7048,4.7045,4.717,4.7116,4.7098,4.7152,4.7598,4.7901,4.8074,4.8639,4.9181,4.9618,5.003,5.0405,5.0135,4.9996,4.9996,4.9996,4.9996,4.9996,4.9979,4.9875,4.9707,4.924,4.888,4.7736,4.6421,4.5668,4.5243,4.5111,4.5386,4.5759,4.6034,4.6375,4.6553,4.678,4.683,4.6879,4.6961,4.7013,4.708,4.7013,4.7013,4.703,4.6962,4.6928,4.691,4.6958,4.733,4.801,4.8558,4.8979,4.9416,4.9918,5.0406,5.0959,5.1202,5.1202,5.1202,5.1202,5.1202,5.1202,5.1202,5.1202,5.1202,5.1202,5.1202,5.1202,5.1202,5.1202,5.1202,5.1202,5.1202,5.1202,5.1202,5.1202,5.1202,5.1336,5.1298,5.1202,5.1258,5.1317,5.128,5.1202,5.1202,5.1202,5.1202,5.1202,5.1202,5.1202,5.1202,5.1202,5.1202,5.1202,5.1202,5.1202,5.1202,5.1202,5.1202,5.1202,4.889,4.889,4.8881,4.9253,4.981,4.9866,5.0256,5.0748,5.0126,4.983,4.9483,4.8495,4.7809,4.749,4.7138,4.6991,4.7009,4.7009,4.7009,4.7009,4.7009,4.7134,4.7259,4.7509,4.8016,4.8709,4.9419,4.9936,5.0279,5.0135,4.9996,4.9996,4.9996,4.9996,4.9996,4.9996,4.9964,4.983,4.959,4.9148,4.8825,4.7796,4.7093,4.6709,4.6505,4.6586,4.6683,4.6683,4.678,4.6861,4.6893,4.6893,4.6893,4.6893,4.6961,4.6978,4.6927,4.6944,4.6945,4.6928,4.6893,4.6958,4.7151,4.7751,4.8445,4.9208,4.9594,4.9985,5.0438,5.0797,5.1202,5.1202,5.1202,5.1202,5.1202,5.1202,5.1202,5.1202,5.1202,5.1202,5.1202,5.1202,5.1202,5.1202,5.1202,5.1202,5.1202,5.1202,5.1202,5.1202,5.1202,5.1202,5.1202,5.1202,5.1202,5.1202,5.1258,5.1221,5.1202,5.1202,5.1202,5.1202,5.1202,5.1202,5.1202,5.1202,5.1202,5.1202,5.1202,5.1202,5.1202,5.1202,5.1202,5.1202,5.1202]}]]